[[{"header":{"parameterUnit":"m.s-1","parameterCategory":1,"la1":31.0,"la2":29.5877,"lo1":-88.7671,"lo2":-86.6584,"dy":0.0162,"dx":0.0185,"nx":115,"ny":88,"refTime":"2024-03-07T18:00:00:Z","depth":0,"parameterNumber":2,"parameterNumberName":"U-component_of_WINDS"},"data":[0.0,0.0,0.0,0.0,0.0,0.0,0.0,0.0,0.0,0.0,0.0,0.0,0.0,0.0,0.0,0.0,0.0,0.0,0.0,0.0,0.0,0.0,0.0,0.0,0.0,0.0,0.0,0.0,0.0,0.0,0.0,0.0,0.0,0.0,0.0,0.0,0.0,0.0,0.0,0.0,0.0,0.0,0.0,0.0,0.0,0.0,0.0,0.0,0.0,0.0,0.0,0.0,0.0,0.0,0.0,0.0,0.0,0.0,0.0,0.0,0.0,0.0,0.0,0.0,0.0,0.0,0.0,0.0,0.0,0.0,0.0,0.0,0.0,0.0,0.0,0.0,0.0,0.0,0.0,0.0,0.0,0.0,0.0,0.0,0.0,0.0,0.0,0.0,0.0,0.0,0.0,0.0,0.0,0.0,0.0,0.0,0.0,0.0,0.0,0.0,0.0,0.0,0.0,0.0,0.0,0.0,0.0,0.0,0.0,0.0,0.0,0.0,0.0,0.0,0.0,0.0,0.0,0.0,0.0,0.0,0.0,0.0,0.0,0.0,0.0,0.0,0.0,0.0,0.0,0.0,0.0,0.0,0.0,0.0,0.0,0.0,0.0,0.0,0.0,0.0,0.0,0.0,0.0,0.0,0.0,0.0,0.0,0.0,0.0,0.0,0.0,0.0,0.0,0.0,0.0,0.0,0.0,0.0,0.0,0.0,0.0,0.0,0.0,0.0,0.0,0.0,0.0,0.0,0.0,0.0,0.0,0.0,0.0,0.0,0.0,0.0,0.0,0.0,0.0,0.0,0.0,0.0,0.0,0.0,0.0,0.0,0.0,0.0,0.0,0.0,0.0,0.0,0.0,0.0,0.0,0.0,0.0,0.0,0.0,0.0,0.0,0.0,0.0,0.0,0.0,0.0,0.0,0.0,0.0,0.0,0.0,0.0,0.0,0.0,0.0,0.0,0.0,0.0,0.0,0.0,0.0,0.0,0.0,0.0,0.0,0.0,0.0,0.0,0.0,0.0,0.0,0.0,0.0,0.0,0.0,0.0,0.0,0.0,0.0,0.0,0.0,0.0,0.0,0.0,0.0,0.0,0.0,0.0,0.0,0.0,0.0,0.0,0.0,0.0,0.0,0.0,0.0,0.0,0.0,0.0,0.0,0.0,0.0,0.0,0.0,0.0,0.0,0.0,0.0,0.0,0.0,0.0,0.0,0.0,0.0,0.0,0.0,0.0,0.0,0.0,0.0,0.0,0.0,0.0,0.0,0.0,0.0,0.0,0.0,0.0,0.0,0.0,0.0,0.0,0.0,0.0,0.0,0.0,0.0,0.0,0.0,0.0,0.0,0.0,0.0,0.0,0.0,0.0,0.0,0.0,0.0,0.0,0.0,0.0,0.0,0.0,0.0,0.0,0.0,0.0,0.0,0.0,0.0,0.0,0.0,0.0,0.0,0.0,0.0,0.0,0.0,0.0,0.0,0.0,0.0,0.0,0.0,0.0,0.0,0.0,0.0,0.0,0.0,0.0,0.0,0.0,0.0,0.0,0.0,0.0,0.0,0.0,0.0,0.0,0.0,0.0,0.0,0.0,0.0,0.0,0.0,0.0,0.0,0.0,0.0,0.0,0.0,0.0,0.0,0.0,0.0,0.0,0.0,0.0,0.0,0.0,0.0,0.0,0.0,0.0,0.0,0.0,0.0,0.0,0.0,0.0,0.0,0.0,0.0,0.0,0.0,0.0,0.0,0.0,0.0,0.0,0.0,0.0,0.0,0.0,0.0,0.0,0.0,0.0,0.0,0.0,0.0,0.0,0.0,0.0,0.0,0.0,0.0,0.0,0.0,0.0,0.0,0.0,0.0,0.0,0.0,0.0,0.0,0.0,0.0,0.0,0.0,0.0,0.0,0.0,0.0,0.0,0.0,0.0,0.0,0.0,0.0,0.0,0.0,0.0,0.0,0.0,0.0,0.0,0.0,0.0,0.0,0.0,0.0,0.0,0.0,0.0,0.0,0.0,0.0,0.0,0.0,0.0,0.0,0.0,0.0,0.0,0.0,0.0,0.0,0.0,0.0,0.0,0.0,0.0,0.0,0.0,0.0,0.0,0.0,0.0,0.0,0.0,0.0,0.0,0.0,0.0,0.0,0.0,0.0,0.0,0.0,0.0,0.0,0.0,0.0,0.0,0.0,0.0,0.0,0.0,0.0,0.0,0.0,0.0,0.0,0.0,0.0,0.0,0.0,0.0,0.0,0.0,0.0,0.0,0.0,0.0,0.0,0.0,0.0,0.0,0.0,0.0,0.0,0.0,0.0,0.0,0.0,0.0,0.0,0.0,0.0,0.0,0.0,0.0,0.0,0.0,0.0,0.0,0.0,0.0,0.0,0.0,0.0,0.0,0.0,0.0,0.0,0.0,0.0,0.0,0.0,0.0,0.0,0.0,0.0,0.0,0.0,0.0,0.0,0.0,0.0,0.0,0.0,0.0,0.0,0.0,0.0,0.0,0.0,0.0,0.0,0.0,0.0,0.0,0.0,0.0,0.0,0.0,0.0,0.0,0.0,0.0,0.0,0.0,0.0,0.0,0.0,0.0,0.0,0.0,0.0,0.0,0.0,0.0,0.0,0.0,0.0,0.0,0.0,0.0,0.0,0.0,0.0,0.0,0.0,0.0,0.0,0.0,0.0,0.0,0.0,0.0,0.0,0.0,0.0,0.0,0.0,0.0,0.0,0.0,0.0,0.0,0.0,0.0,0.0,0.0,0.0,0.0,0.0,0.0,0.0,0.0,0.0,0.0,0.0,0.0,0.0,0.0,0.0,0.0,0.0,0.0,0.0,0.0,0.0,0.0,0.0,0.0,0.0,0.0,0.0,0.0,0.0,0.0,0.0,0.0,0.0,0.0,0.0,0.0,0.0,0.0,0.0,0.0,0.0,0.0,0.0,0.0,0.0,0.0,0.0,0.0,0.0,0.0,0.0,0.0,0.0,0.0,0.0,0.0,0.0,0.0,0.0,0.0,0.0,0.0,0.0,0.0,0.0,0.0,0.0,0.0,0.0,0.0,0.0,0.0,0.0,0.0,0.0,0.0,0.0,0.0,0.0,0.0,0.0,0.0,0.0,0.0,0.0,0.0,0.0,0.0,0.0,0.0,0.0,0.0,0.0,0.0,0.0,0.0,0.0,0.0,0.0,0.0,0.0,0.0,0.0,0.0,0.0,0.0,0.0,0.0,0.0,0.0,0.0,0.0,0.0,0.0,0.0,0.0,0.0,0.0,0.0,0.0,0.0,0.0,0.0,0.0,0.0,0.0,0.0,0.0,0.0,0.0,0.0,0.0,0.0,0.0,0.0,0.0,0.0,0.0,0.0,0.0,0.0,0.0,0.0,0.0,0.0,0.0,0.0,0.0,0.0,0.0,0.0,0.0,0.0,0.0,0.0,0.0,0.0,0.0,0.0,0.0,0.0,0.0,0.0,0.0,0.0,0.0,0.0,0.0,0.0,0.0,0.0,0.0,0.0,0.0,0.0,0.0,0.0,0.0,0.0,0.0,0.0,0.0,0.0,0.0,0.0,0.0,0.0,0.0,0.0,0.0,0.0,0.0,0.0,0.0,0.0,0.0,0.0,0.0,0.0,0.0,0.0,0.0,0.0,0.0,0.0,0.0,0.0,0.0,0.0,0.0,0.0,0.0,0.0,0.0,0.0,0.0,0.0,0.0,0.0,0.0,0.0,0.0,0.0,0.0,0.0,0.0,0.0,0.0,0.0,0.0,0.0,0.0,0.0,0.0,0.0,0.0,0.0,0.0,0.0,0.0,0.0,0.0,0.0,0.0,0.0,0.0,0.0,0.0,0.0,0.0,0.0,0.0,0.0,0.0,0.0,0.0,0.0,0.0,0.0,0.0,0.0,0.0,0.0,0.0,0.0,0.0,0.0,0.0,0.0,0.0,0.0,0.0,0.0,0.0,0.0,0.0,0.0,0.0,0.0,0.0,0.0,0.0,0.0,0.0,0.0,0.0,0.0,0.0,0.0,0.0,0.0,0.0,0.0,0.0,0.0,0.0,0.0,0.0,0.0,0.0,0.0,0.0,0.0,0.0,0.0,0.0,0.0,0.0,0.0,0.0,0.0,0.0,0.0,0.0,0.0,0.0,0.0,0.0,0.0,0.0,0.0,0.0,0.0,0.0,0.0,0.0,0.0,0.0,0.0,0.0,0.0,0.0,0.0,0.0,0.0,0.0,0.0,0.0,0.0,0.0,0.0,0.0,0.0,0.0,0.0,0.0,0.6834,0.0,0.0,0.0,0.0,0.0,0.0,0.0,0.0,0.0,0.0,0.0,0.0,0.0,0.0,0.0,0.0,0.0,0.0,0.0,0.0,0.0,0.0,0.0,0.0,0.0,0.0,0.0,0.0,0.0,0.0,0.0,0.0,0.0,0.0,0.0,0.0,0.0,0.0,0.0,0.0,0.0,0.0,0.0,0.0,0.0,0.0,0.0,0.0,0.0,0.0,0.0,0.0,0.0,0.0,0.0,0.0,0.0,0.0,0.0,0.0,0.0,0.0,0.0,0.0,0.0,0.0,0.0,0.0,0.0,0.0,0.0,0.0,0.0,0.0,0.0,0.0,0.0,0.0,0.0,0.0,0.0,0.0,0.0,0.0,0.0,0.0,0.0,0.0,0.0,0.0,0.0,0.0,0.0,0.0,0.0,0.0,0.0,0.0,0.0,0.0,0.0,0.0,0.0,0.0,0.0,0.0,0.0,0.0,0.0,0.0,1.0156,0.808,0.7736,0.7356,0.6815,0.0,0.0,0.0,0.0,0.0,0.0,0.0,0.0,0.0,0.0,0.0,0.0,0.0,0.0,0.0,0.0,0.0,0.0,0.0,0.0,0.0,0.0,0.0,0.0,0.0,0.0,0.0,0.0,0.0,0.0,0.0,0.0,0.0,0.0,0.0,0.0,0.0,0.0,0.0,0.0,0.0,0.0,0.0,0.0,0.0,0.0,0.0,0.0,0.0,0.0,0.0,0.0,0.0,0.0,0.0,0.0,0.0,0.0,0.0,0.0,0.0,0.0,0.0,0.0,0.0,0.0,0.0,0.0,0.0,0.0,0.0,0.0,0.0,0.0,0.0,0.0,0.0,0.0,0.0,0.0,0.0,0.0,0.0,0.0,0.0,0.0,0.0,0.0,0.0,0.0,0.0,0.0,0.0,0.0,0.0,0.0,0.0,0.0,0.0,0.0,0.0,0.0,0.0,0.0,0.0,0.0,0.0,0.0,0.0,0.0,0.0,0.0,0.7691,0.7227,0.6725,0.0,0.0,0.0,0.0,0.0,0.0,0.0,0.0,0.0,0.0,0.0,0.0,0.0,0.0,0.0,0.0,0.0,0.0,0.0,0.0,0.0,0.0,0.0,0.0,0.0,0.0,0.0,0.0,0.0,0.0,0.0,0.0,0.0,0.0,0.0,0.0,0.0,0.0,0.0,0.0,0.0,0.0,0.0,0.0,0.0,0.0,0.0,0.0,0.0,0.0,0.0,0.0,0.0,0.0,0.0,0.0,0.0,0.0,0.0,0.0,0.0,0.0,0.0,0.0,0.0,0.0,0.0,0.0,0.0,0.0,0.0,0.0,0.0,0.0,0.0,0.0,0.0,0.0,0.0,0.0,0.0,0.0,0.0,0.0,0.0,0.0,0.0,0.0,0.0,0.0,0.0,0.0,0.0,0.0,0.0,0.0,0.0,0.0,0.0,0.0,0.0,0.0,0.0,0.0,0.0,0.0,0.0,0.0,0.0,0.0,0.946,0.765,0.7279,0.0,0.6415,0.0,0.0,0.0,0.0,0.0,0.0,0.0,0.0,0.0,0.0,0.0,0.0,0.0,0.0,0.0,0.0,0.0,0.0,0.0,0.0,0.0,0.0,0.0,0.0,0.0,0.0,0.0,0.0,0.0,0.0,0.0,0.0,0.0,0.0,0.0,0.0,0.0,0.0,0.0,0.0,0.0,0.0,0.0,0.0,0.0,0.0,0.0,0.0,0.0,0.0,0.0,0.0,0.0,0.0,0.0,0.0,0.0,0.0,0.0,0.0,0.0,0.0,0.0,0.0,0.0,0.0,0.0,0.0,0.0,0.0,0.0,0.0,0.0,0.0,0.0,0.0,0.0,0.0,0.0,0.0,0.0,0.0,0.0,0.0,0.0,0.0,0.0,0.0,0.0,0.0,0.0,0.0,0.0,0.0,0.0,0.0,0.0,0.0,0.0,0.0,0.0,0.0,0.0,0.0,0.0,0.0,0.0,0.0,0.0,0.0,0.9241,0.7276,0.6845,0.6409,0.0,0.0,0.0,0.0,0.0,0.0,0.0,0.0,0.0,0.0,0.0,0.0,0.0,0.0,0.0,0.0,0.0,0.0,0.0,0.0,0.0,0.0,0.0,0.0,0.0,0.0,0.0,0.0,0.0,0.0,0.0,0.0,0.0,0.0,0.0,0.0,0.0,0.0,0.0,0.0,0.0,0.0,0.0,0.0,0.0,0.0,0.0,0.0,0.0,0.0,0.0,0.0,0.0,0.0,0.0,0.0,0.0,0.0,0.0,0.0,0.0,0.0,0.0,0.0,0.0,0.0,0.0,0.0,0.0,0.0,0.0,0.0,0.0,0.0,0.0,0.0,0.0,0.0,0.0,0.0,0.0,0.0,0.0,0.0,0.0,0.0,0.0,0.0,0.0,0.0,0.0,0.0,0.0,0.0,0.0,0.0,0.0,0.0,0.0,0.0,0.0,0.0,0.0,0.0,0.0,0.0,0.0,0.0,0.0,0.0,1.0194,0.891,0.6961,0.6315,0.5981,0.5779,0.0,0.0,0.0,0.0,0.0,0.0,0.0,0.0,0.0,0.0,0.0,0.0,0.0,0.0,0.0,0.0,0.0,0.0,0.0,0.0,0.0,0.0,0.0,0.0,0.0,0.0,0.0,0.0,0.0,0.0,0.0,0.0,0.0,0.0,0.0,0.0,0.0,0.0,0.0,0.0,0.0,0.0,0.0,0.0,0.0,0.0,0.0,0.0,0.0,0.0,0.0,0.0,0.0,0.0,0.0,0.0,0.0,0.0,0.0,0.0,0.0,0.0,0.0,0.0,0.0,0.0,0.0,0.0,0.0,0.0,0.0,0.0,0.0,0.0,0.0,0.0,0.0,0.0,0.0,0.0,0.0,0.0,0.0,0.0,0.0,0.0,0.0,0.0,0.0,0.0,0.0,0.0,0.0,0.0,0.0,0.0,0.0,0.0,0.0,0.0,0.0,0.0,0.0,0.0,0.0,0.0,0.0,0.0,1.0328,0.9893,0.8695,0.652,0.583,0.567,0.0,0.0,0.0,0.0,0.0,0.0,0.0,0.0,0.0,0.0,0.0,0.0,0.0,0.0,0.0,0.0,0.0,0.0,0.0,0.0,0.0,0.0,0.0,0.0,0.0,0.0,0.0,0.0,0.0,0.0,0.0,0.0,0.0,0.0,0.0,0.0,0.0,0.0,0.0,0.0,0.0,0.0,0.0,0.0,0.0,0.0,0.0,0.0,0.0,0.0,0.0,0.0,0.0,0.0,0.0,0.0,0.0,0.0,0.0,0.0,0.0,0.0,0.0,0.0,0.0,0.0,0.0,0.0,0.0,0.0,0.0,0.0,0.0,0.0,0.0,0.0,0.0,0.0,0.0,0.0,0.0,0.0,0.0,0.0,0.0,0.0,0.0,0.0,0.0,0.0,0.0,0.0,0.0,0.0,0.0,0.0,0.0,0.0,0.0,0.0,0.0,0.0,0.0,0.0,0.0,0.0,0.0,0.0,0.0,1.0067,0.8305,0.6975,0.6031,0.5654,0.5539,0.0,0.0,0.0,0.0,0.0,0.0,0.0,0.0,0.0,0.0,0.0,0.0,0.0,0.0,0.0,0.0,0.0,0.0,0.0,0.0,0.0,0.0,0.0,0.0,0.0,0.0,0.0,0.0,0.0,0.0,0.0,0.0,0.0,0.0,0.0,0.0,0.0,0.0,0.0,0.0,0.0,0.0,0.0,0.0,0.0,0.0,0.0,0.0,0.0,0.0,0.0,0.0,0.0,0.0,0.0,0.0,0.0,0.0,0.0,0.0,0.0,0.0,0.0,0.0,0.0,0.0,0.0,0.0,0.0,0.0,0.0,0.0,0.0,0.0,0.0,0.0,0.0,0.0,0.0,0.0,0.0,0.0,0.0,0.0,0.0,0.0,0.0,0.0,0.0,0.0,0.0,0.0,0.0,0.0,0.0,0.0,0.0,0.0,0.0,0.0,0.0,0.0,0.0,0.0,0.0,0.0,0.0,0.0,0.0,0.9144,0.0,0.593,0.5676,0.5594,0.5572,0.0,0.0,0.0,0.0,0.0,0.0,0.0,0.0,0.0,0.0,0.0,0.0,0.0,0.0,0.0,0.0,0.0,0.0,0.0,0.0,0.0,0.0,0.0,0.0,0.0,0.0,0.0,0.0,0.0,0.0,0.0,0.0,0.0,0.0,0.0,0.0,0.0,0.0,0.0,0.0,0.0,0.0,0.0,0.0,0.0,0.0,0.0,0.0,0.0,0.0,0.0,0.0,0.0,0.0,0.0,0.0,0.0,0.0,0.0,0.0,0.0,0.0,0.0,0.0,0.0,0.0,0.0,0.0,0.0,0.0,0.0,0.0,0.0,0.0,0.0,0.0,0.0,0.0,0.0,0.0,0.0,0.0,0.0,0.0,0.0,0.0,0.0,0.0,0.0,0.0,0.0,0.0,0.0,0.0,0.0,0.0,0.0,0.0,0.0,0.0,0.0,0.0,0.0,0.0,0.0,0.0,0.0,0.0,0.9932,0.7577,0.646,0.5784,0.548,0.5464,0.5496,0.0,0.0,0.0,0.0,0.0,0.0,0.0,0.0,0.0,0.0,0.0,0.0,0.0,0.0,0.0,0.0,0.0,0.0,0.0,0.0,0.0,0.0,0.0,0.0,0.0,0.0,0.0,0.0,0.0,0.0,0.0,0.0,0.0,0.0,0.0,0.0,0.0,0.0,0.0,0.0,0.0,0.0,0.0,0.0,0.0,0.0,0.0,0.0,0.0,0.0,0.0,0.0,0.0,0.0,0.0,0.0,0.0,0.0,0.0,0.0,0.0,0.0,0.0,0.0,0.0,0.0,0.0,0.0,0.0,0.0,0.0,0.0,0.0,0.0,0.0,0.0,0.0,0.0,0.0,0.0,0.0,0.0,0.0,0.0,0.0,0.0,0.0,0.0,0.0,0.0,0.0,0.0,0.0,0.0,0.0,0.0,0.0,0.0,0.0,0.0,0.0,0.0,0.0,0.0,0.0,0.0,0.0,0.0,0.0,0.6213,0.5638,0.5437,0.5515,0.5297,0.5271,0.0,0.0,0.0,0.0,0.0,0.0,0.0,0.0,0.0,0.0,0.0,0.0,0.0,0.0,0.0,0.0,0.0,0.0,0.0,0.0,0.0,0.0,0.0,0.0,0.0,0.0,0.0,0.0,0.0,0.0,0.0,0.0,0.0,0.0,0.0,0.0,0.0,0.0,0.0,0.0,0.0,0.0,0.0,0.0,0.0,0.0,0.0,0.0,0.0,0.0,0.0,0.0,0.0,0.0,0.0,0.0,0.0,0.0,0.0,0.0,0.0,0.0,0.0,0.0,0.0,0.0,0.0,0.0,0.0,0.0,0.0,0.0,0.0,0.0,0.0,0.0,0.0,0.0,0.0,0.0,0.0,0.0,0.0,0.0,0.0,0.0,0.0,0.0,0.0,0.0,0.0,0.0,0.0,0.0,0.0,0.0,0.0,0.0,0.0,0.0,0.0,0.0,0.0,0.0,0.0,0.0,0.0,0.0,0.0,0.5609,0.5458,0.535,0.5354,0.5156,0.5127,0.5375,0.0,0.0,0.0,0.0,0.0,0.0,0.0,0.0,0.0,0.0,0.0,0.0,0.0,0.0,0.0,0.0,0.0,0.0,0.0,0.0,0.0,0.0,0.0,0.0,0.0,0.0,0.0,0.0,0.0,0.0,0.0,0.0,0.0,0.0,0.0,0.0,0.0,0.0,0.0,0.0,0.0,0.0,0.0,0.0,0.0,0.0,0.0,0.0,0.0,0.0,0.0,0.0,0.0,0.0,0.0,0.0,0.0,0.0,0.0,0.0,0.0,0.0,0.0,0.0,0.0,0.0,0.0,0.0,0.0,0.0,0.0,0.0,0.0,0.0,0.0,0.0,0.0,0.0,0.0,0.0,0.0,0.0,0.0,0.0,0.0,0.0,0.0,0.0,0.0,0.0,0.0,0.0,0.0,0.0,0.0,0.0,0.0,0.0,0.0,0.0,0.0,0.0,0.0,0.0,0.0,0.0,0.0,0.0,0.5552,0.567,0.5487,0.5097,0.4991,0.5127,0.0,0.0,0.0,0.0,0.0,0.0,0.0,0.0,0.0,0.0,0.0,0.0,0.0,0.0,0.0,0.0,0.0,0.0,0.0,0.0,0.0,0.0,0.0,0.0,0.0,0.0,0.0,0.0,0.0,0.0,0.0,0.0,0.0,0.0,0.0,0.0,0.0,0.0,0.0,0.0,0.0,0.0,0.0,0.0,0.0,0.0,0.0,0.0,0.0,0.0,0.0,0.0,0.0,0.0,0.0,0.0,0.0,0.0,0.0,0.0,0.0,0.0,0.0,0.0,0.0,0.0,0.0,0.0,0.0,0.0,0.0,0.0,0.0,0.0,0.0,0.0,0.0,0.0,0.0,0.0,0.0,0.0,0.0,0.0,0.0,0.0,0.0,0.0,0.0,0.0,0.0,0.0,0.0,0.0,0.0,0.0,0.0,0.0,0.0,0.0,0.0,0.0,0.0,0.0,0.0,0.0,0.0,0.0,0.0,0.5393,0.5562,0.5508,0.5115,0.4313,0.4266,0.0,0.0,0.0,0.0,0.0,0.0,0.0,0.0,0.0,0.0,0.0,0.0,0.0,0.0,0.0,0.0,0.0,0.0,0.0,0.0,0.0,0.0,0.0,0.0,0.0,0.0,0.0,0.0,0.0,0.0,0.0,0.0,0.0,0.0,0.0,0.0,0.0,0.0,0.0,0.0,0.0,0.0,0.0,0.0,0.0,0.0,0.0,0.0,0.0,0.0,0.0,0.0,0.0,0.0,0.0,0.0,0.0,0.0,0.0,0.0,0.0,0.0,0.0,0.0,0.0,0.0,0.0,0.0,0.0,0.0,0.0,0.0,0.0,0.0,0.0,0.0,0.0,0.0,0.0,0.0,0.0,0.0,0.0,0.0,0.0,0.0,0.0,0.0,0.0,0.0,0.0,0.0,0.0,0.0,0.0,0.0,0.0,0.0,0.0,0.0,0.0,0.0,0.0,0.0,0.0,0.0,0.0,0.0,0.6042,0.5398,0.5551,0.5209,0.4362,0.3655,0.3887,0.0,0.0,0.0,0.0,0.0,0.0,0.0,0.0,0.0,0.0,0.0,0.0,0.0,0.0,0.0,0.0,0.0,0.0,0.0,0.0,0.0,0.0,0.0,0.0,0.0,0.0,0.0,0.0,0.0,0.0,0.0,0.0,0.0,0.0,0.0,0.0,0.0,0.0,0.0,0.0,0.0,0.0,0.0,0.0,0.0,0.0,0.0,0.0,0.0,0.0,0.0,0.0,0.0,0.0,0.0,0.0,0.0,0.0,0.0,0.0,0.0,0.0,0.0,0.0,0.0,0.0,0.0,0.0,0.0,0.0,0.0,0.0,0.0,0.0,0.0,0.0,0.0,0.0,0.0,0.0,0.0,0.0,0.0,0.0,0.0,0.0,0.0,0.0,0.0,0.0,0.0,0.0,0.0,0.0,0.0,0.0,0.0,0.0,0.0,0.0,0.0,0.0,0.0,0.0,0.0,0.0,0.0,0.0,0.6063,0.5489,0.5475,0.4722,0.3221,0.3065,0.3494,0.0,0.0,0.0,0.0,0.0,0.0,0.0,0.0,0.0,0.0,0.0,0.0,0.0,0.0,0.0,0.0,0.0,0.0,0.0,0.0,0.0,0.0,0.0,0.0,0.0,0.0,0.0,0.0,0.0,0.0,0.0,0.0,0.0,0.0,0.0,0.0,0.0,0.0,0.0,0.0,0.0,0.0,0.0,0.0,0.0,0.0,0.0,0.0,0.0,0.0,0.0,0.0,0.0,0.0,0.0,0.0,0.0,0.0,0.0,0.0,0.0,0.0,0.0,0.0,0.0,0.0,0.0,0.0,0.0,0.0,0.0,0.0,0.0,0.0,0.0,0.0,0.0,0.0,0.0,0.0,0.0,0.0,0.0,0.0,0.0,0.0,0.0,0.0,0.0,0.0,0.0,0.0,0.0,0.0,0.0,0.0,0.0,0.0,0.0,0.0,0.0,0.0,0.0,0.0,0.0,0.0,0.0,0.0,0.5979,0.5484,0.4618,0.3864,0.3221,0.2374,0.2137,0.0,0.0,0.0,0.0,0.0,0.0,0.0,0.0,0.0,0.0,0.0,0.0,0.0,0.0,0.0,0.0,0.0,0.0,0.0,0.0,0.0,0.0,0.0,0.0,0.0,0.0,0.0,0.0,0.0,0.0,0.0,0.0,0.0,0.0,0.0,0.0,0.0,0.0,0.0,0.0,0.0,0.0,0.0,0.0,0.0,0.0,0.0,0.0,-2.0051,0.0,0.0,0.0,0.0,0.0,0.0,0.0,0.0,0.0,0.0,0.0,0.0,0.0,0.0,0.0,0.0,0.0,0.0,0.0,0.0,0.0,0.0,0.0,0.0,0.0,0.0,0.0,0.0,0.0,0.0,0.0,0.0,0.0,0.0,0.0,0.0,0.0,0.0,0.0,0.0,0.0,0.0,0.0,0.0,0.0,0.0,0.0,0.0,0.0,0.0,0.0,0.0,0.0,0.0,0.0,0.0,0.0,0.0,0.0,0.5753,0.5337,0.4361,0.3344,0.2386,0.1391,0.1079,0.0,0.0,0.0,0.0,0.0,0.0,0.0,0.0,0.0,0.0,0.0,0.0,0.0,0.0,0.0,0.0,0.0,0.0,0.0,0.0,0.0,0.0,0.0,0.0,0.0,0.0,0.0,0.0,0.0,0.0,0.0,0.0,0.0,0.0,0.0,0.0,0.0,0.0,0.0,0.0,0.0,0.0,0.0,0.0,0.0,0.0,0.0,0.0,0.0,0.0,0.0,0.0,0.0,0.0,0.0,0.0,0.0,0.0,0.0,0.0,0.0,0.0,0.0,0.0,0.0,0.0,0.0,0.0,0.0,0.0,0.0,0.0,0.0,0.0,0.0,0.0,0.0,0.0,0.0,0.0,0.0,0.0,0.0,0.0,0.0,0.0,0.0,0.0,0.0,0.0,0.0,0.0,0.0,0.0,0.0,0.0,0.0,0.0,0.0,0.0,0.0,0.0,0.0,0.0,0.0,0.0,0.0,0.5839,0.5517,0.4894,0.4014,0.2828,0.1372,0.0299,0.0198,0.1051,0.0,0.0,0.0,0.0,0.0,0.0,0.0,0.0,0.0,0.0,0.0,0.0,0.0,0.0,0.0,0.0,0.0,0.0,0.0,0.0,0.0,0.0,0.0,0.0,0.0,0.0,0.0,0.0,0.0,0.0,0.0,0.0,0.0,0.0,0.0,0.0,0.0,0.0,-1.7598,-1.9132,0.0,0.0,0.0,0.0,0.0,0.0,0.0,0.0,-2.1778,0.0,0.0,0.0,0.0,0.0,0.0,0.0,0.0,0.0,0.0,0.0,0.0,0.0,0.0,0.0,0.0,0.0,0.0,0.0,0.0,0.0,0.0,0.0,0.0,0.0,0.0,0.0,0.0,0.0,0.0,0.0,0.0,0.0,0.0,0.0,0.0,0.0,0.0,0.0,0.0,0.0,0.0,0.0,0.0,0.0,0.0,0.0,0.0,0.0,0.0,0.0,0.0,0.0,0.0,0.0,0.0,0.5871,0.5801,0.517,0.3966,0.2925,0.1731,0.0294,-0.08,-0.129,-0.1052,0.0,0.0,0.0,0.0,0.0,0.0,0.0,0.0,0.0,0.0,0.0,0.0,0.0,0.0,0.0,0.0,0.0,0.0,0.0,0.0,0.0,0.0,0.0,0.0,0.0,0.0,0.0,0.0,0.0,0.0,0.0,0.0,0.0,0.0,0.0,0.0,0.0,0.0,0.0,-2.0107,-2.0869,0.0,0.0,0.0,0.0,0.0,0.0,0.0,0.0,-2.4527,0.0,0.0,0.0,0.0,0.0,0.0,0.0,0.0,0.0,0.0,0.0,0.0,0.0,0.0,0.0,0.0,0.0,0.0,0.0,0.0,0.0,0.0,0.0,0.0,0.0,0.0,0.0,0.0,0.0,0.0,0.0,0.0,0.0,0.0,0.0,0.0,0.0,0.0,0.0,0.0,0.0,0.0,0.0,0.0,0.0,0.0,0.0,0.0,0.0,0.0,0.0,0.0,0.0,0.0,0.0,0.5806,0.5768,0.5041,0.3636,0.2247,0.0955,-0.0,-0.1084,-0.1573,0.0,0.0,0.0,0.0,0.0,0.0,0.0,0.0,0.0,0.0,0.0,0.0,0.0,0.0,0.0,0.0,0.0,0.0,0.0,0.0,0.0,0.0,0.0,0.0,0.0,0.0,0.0,0.0,0.0,0.0,0.0,0.0,0.0,0.0,0.0,0.0,0.0,0.0,0.0,0.0,-2.0767,-2.1458,-2.1496,0.0,0.0,0.0,0.0,0.0,0.0,-2.472,-2.5481,0.0,0.0,0.0,0.0,0.0,0.0,0.0,0.0,0.0,0.0,0.0,0.0,0.0,0.0,0.0,0.0,0.0,0.0,0.0,0.0,0.0,0.0,0.0,0.0,0.0,0.0,0.0,0.0,0.0,0.0,0.0,0.0,0.0,0.0,0.0,0.0,0.0,0.0,0.0,0.0,0.0,0.0,0.0,0.0,0.0,0.0,0.0,0.0,0.0,0.0,0.0,0.0,0.0,0.0,0.0,0.5735,0.5746,0.4844,0.3224,0.167,0.0474,-0.0381,-0.1167,-0.1557,0.0,0.0,0.0,0.0,0.0,0.0,0.0,0.0,0.0,0.0,0.0,0.0,0.0,0.0,0.0,0.0,0.0,0.0,0.0,0.0,0.0,0.0,0.0,0.0,0.0,0.0,0.0,0.0,0.0,0.0,0.0,0.0,0.0,0.0,0.0,0.0,0.0,0.0,0.0,0.0,0.0,-2.2006,-2.3022,-2.2339,0.0,0.0,0.0,0.0,-2.4646,-2.6002,0.0,0.0,0.0,0.0,0.0,0.0,0.0,0.0,0.0,0.0,0.0,0.0,0.0,0.0,0.0,0.0,0.0,0.0,0.0,0.0,0.0,0.0,0.0,0.0,0.0,0.0,0.0,0.0,0.0,0.0,0.0,0.0,0.0,0.0,0.0,0.0,0.0,0.0,0.0,0.0,0.0,0.0,0.0,0.0,0.0,0.0,0.0,0.0,0.0,0.0,0.0,0.0,0.0,0.0,0.0,0.0,0.5746,0.5668,0.4397,0.1791,0.119,0.028,-0.124,-0.1555,-0.1557,0.0,0.0,0.0,0.0,0.0,0.0,0.0,0.0,0.0,0.0,0.0,0.0,0.0,0.0,0.0,0.0,0.0,0.0,0.0,0.0,0.0,0.0,0.0,0.0,0.0,0.0,0.0,0.0,0.0,0.0,0.0,0.0,0.0,0.0,0.0,0.0,0.0,0.0,0.0,0.0,0.0,-2.2787,-2.3859,-2.3029,-2.2565,0.0,0.0,-2.4542,-2.6872,-2.8153,0.0,0.0,0.0,0.0,0.0,0.0,0.0,0.0,0.0,0.0,0.0,0.0,0.0,0.0,0.0,0.0,0.0,0.0,0.0,0.0,0.0,0.0,0.0,0.0,0.0,0.0,0.0,0.0,0.0,0.0,0.0,0.0,0.0,0.0,0.0,0.0,0.0,0.0,0.0,0.0,0.0,0.0,0.0,0.0,0.0,0.0,0.0,0.0,0.0,0.0,0.0,0.0,0.0,0.0,0.0,0.5746,0.5746,0.5673,0.4585,0.233,0.0462,-0.0755,-0.143,-0.1539,-0.1818,0.0,0.0,0.0,0.0,0.0,0.0,0.0,0.0,0.0,0.0,0.0,0.0,0.0,0.0,0.0,0.0,0.0,0.0,0.0,0.0,0.0,0.0,0.0,0.0,0.0,0.0,0.0,0.0,0.0,0.0,0.0,0.0,0.0,0.0,0.0,0.0,0.0,0.0,0.0,0.0,0.0,0.0,-2.4034,-2.382,0.0,0.0,0.0,-2.6931,-2.9092,0.0,0.0,0.0,0.0,0.0,0.0,0.0,0.0,0.0,0.0,0.0,0.0,0.0,0.0,0.0,0.0,0.0,0.0,0.0,0.0,0.0,0.0,0.0,0.0,0.0,0.0,0.0,0.0,0.0,0.0,0.0,0.0,0.0,0.0,0.0,0.0,0.0,0.0,0.0,0.0,0.0,0.0,0.0,0.0,0.0,0.0,0.0,0.0,0.0,0.0,0.0,0.0,0.0,0.0,0.0,0.0,0.0,0.5708,0.4755,0.3595,0.2151,-0.0462,-0.1883,-0.1986,-0.1986,0.0,0.0,0.0,0.0,0.0,0.0,0.0,0.0,0.0,0.0,0.0,0.0,0.0,0.0,0.0,0.0,0.0,0.0,0.0,0.0,0.0,0.0,0.0,0.0,0.0,0.0,0.0,-1.1147,0.0,0.0,0.0,0.0,0.0,0.0,0.0,0.0,0.0,0.0,0.0,0.0,0.0,0.0,-2.3406,-2.4451,-2.4751,-2.5492,0.0,0.0,-2.886,-3.0611,-3.1153,-3.0781,0.0,0.0,0.0,0.0,0.0,0.0,0.0,0.0,0.0,0.0,0.0,0.0,0.0,0.0,0.0,0.0,0.0,0.0,0.0,0.0,0.0,0.0,0.0,0.0,0.0,0.0,0.0,0.0,0.0,0.0,0.0,0.0,0.0,0.0,0.0,0.0,0.0,0.0,0.0,0.0,0.0,0.0,0.0,0.0,0.0,0.0,0.0,0.0,0.0,0.0,0.0,0.0,0.0,0.0,0.0,0.5605,0.2223,0.0359,0.009,-0.1796,-0.2998,-0.3427,-0.3424,-0.367,0.0,0.0,0.0,0.0,0.0,0.0,0.0,0.0,0.0,0.0,0.0,0.0,0.0,0.0,0.0,0.0,0.0,0.0,0.0,0.0,0.0,0.0,0.0,0.0,0.0,0.0,0.0,0.0,0.0,0.0,0.0,0.0,0.0,0.0,0.0,0.0,0.0,0.0,0.0,0.0,0.0,-2.3795,-2.5804,-2.5812,-2.6151,0.0,0.0,-2.953,-3.1148,-3.2375,-3.2292,-2.9684,0.0,0.0,0.0,0.0,0.0,0.0,0.0,0.0,0.0,0.0,0.0,0.0,0.0,0.0,0.0,0.0,0.0,0.0,0.0,0.0,0.0,0.0,0.0,0.0,0.0,0.0,0.0,0.0,0.0,0.0,0.0,0.0,0.0,0.0,0.0,0.0,0.0,0.0,0.0,0.0,0.0,0.0,0.0,0.0,0.0,0.0,0.0,0.0,0.0,0.0,0.0,0.0,0.0,0.5714,0.5703,0.197,-0.1168,-0.3416,-0.3089,-0.3579,-0.4903,-0.4066,-0.4116,0.0,0.0,0.0,0.0,0.0,0.0,0.0,0.0,0.0,0.0,0.0,0.0,0.0,0.0,0.0,0.0,0.0,0.0,0.0,0.0,0.0,0.0,0.0,0.0,0.0,0.0,0.0,0.0,-1.1472,-1.1964,-1.3084,0.0,0.0,0.0,0.0,0.0,0.0,0.0,0.0,0.0,0.0,-2.3602,-2.4513,-2.6266,0.0,0.0,-3.0023,-3.1309,-3.2499,-3.2354,-3.1588,-2.9994,-2.9456,0.0,0.0,0.0,0.0,0.0,0.0,0.0,0.0,0.0,0.0,0.0,0.0,0.0,0.0,0.0,0.0,0.0,0.0,0.0,0.0,0.0,0.0,0.0,0.0,0.0,0.0,0.0,0.0,0.0,0.0,0.0,0.0,0.0,0.0,0.0,0.0,0.0,0.0,0.0,0.0,0.0,0.0,0.0,0.0,0.0,0.0,0.0,0.0,0.0,0.0,0.0,0.0,0.4981,0.4013,0.0268,-0.2967,-0.5594,-0.4373,-0.4398,-0.5598,-0.4762,-0.4709,0.0,0.0,0.0,0.0,0.0,0.0,0.0,0.0,0.0,0.0,0.0,0.0,0.0,0.0,0.0,0.0,0.0,0.0,0.0,0.0,0.0,0.0,0.0,0.0,0.0,0.0,0.0,0.0,-1.1673,-1.2741,-1.4594,0.0,0.0,0.0,0.0,0.0,0.0,0.0,0.0,0.0,0.0,-2.3777,-2.386,-2.6226,-2.8181,-2.8957,-3.0159,-3.1431,-3.2664,-3.2106,-3.1215,-3.016,0.0,0.0,0.0,0.0,0.0,0.0,0.0,0.0,0.0,0.0,0.0,0.0,0.0,0.0,0.0,0.0,0.0,0.0,0.0,0.0,0.0,0.0,0.0,0.0,0.0,0.0,0.0,0.0,0.0,0.0,1.5045,0.0,0.0,0.0,0.0,0.0,0.0,0.0,0.0,0.0,0.0,0.0,0.0,0.0,0.0,0.0,0.0,0.0,0.0,0.0,0.0,0.0,0.0,0.3326,0.0087,-0.3565,-0.5594,-0.5684,-0.5668,-0.5662,-0.5662,-0.5652,-0.5593,-0.5561,0.0,0.0,0.0,0.0,0.0,0.0,0.0,0.0,0.0,0.0,0.0,0.0,0.0,0.0,0.0,0.0,0.0,0.0,0.0,0.0,0.0,0.0,0.0,0.0,0.0,0.0,-1.1264,-1.2272,-1.3788,0.0,0.0,0.0,0.0,0.0,0.0,0.0,0.0,0.0,0.0,-2.3299,-2.4156,-2.4274,-2.5527,-2.6842,-2.7628,-2.8554,-2.965,-3.1292,-3.1774,-3.1567,0.0,0.0,0.0,0.0,0.0,0.0,0.0,0.0,0.0,0.0,0.0,0.0,0.0,0.0,0.0,0.0,0.0,0.0,0.0,0.0,0.0,0.0,0.0,0.0,0.0,0.0,0.0,1.5547,1.5452,0.0,0.0,0.0,0.0,0.0,0.0,0.0,0.0,0.0,0.0,0.0,0.96,0.8825,0.0,0.0,0.0,0.0,0.0,0.0,0.0,0.0,0.0,0.0,0.0,0.0,-0.0086,-0.3646,-0.5032,-0.5679,-0.5668,-0.5752,-0.5746,-0.5741,-0.5735,-0.5588,-0.547,0.0,0.0,0.0,0.0,0.0,0.0,0.0,0.0,0.0,0.0,0.0,0.0,0.0,0.0,0.0,0.0,0.0,0.0,0.0,0.0,0.0,0.0,0.0,0.0,0.0,-1.1765,0.0,0.0,0.0,0.0,0.0,0.0,0.0,0.0,0.0,0.0,0.0,-2.1384,-2.1695,-2.2846,-2.3642,-2.3534,-2.6114,-2.8192,0.0,0.0,0.0,0.0,0.0,0.0,0.0,0.0,0.0,0.0,0.0,0.0,0.0,0.0,-3.6186,-3.4181,-3.3661,-3.3442,-3.3136,0.0,0.0,0.0,0.0,0.0,0.0,0.0,0.0,0.0,0.0,0.0,0.0,0.0,0.0,1.5295,0.0,1.5032,0.0,0.0,0.0,0.0,0.0,0.0,0.0,0.0,0.9068,0.8916,0.9023,0.8336,0.7786,0.0,0.6697,0.6317,0.0,0.0,0.0,0.0,0.0,0.0,0.0,0.0,-0.3213,-0.5584,-0.5806,-0.5801,-0.5752,-0.5784,-0.5779,-0.5735,-0.5735,-0.5714,-0.5676,-0.567,-0.5692,0.0,0.0,0.0,0.0,0.0,0.0,0.0,0.0,0.0,0.0,0.0,0.0,0.0,0.0,0.0,0.0,0.0,0.0,0.0,0.0,0.0,0.0,0.0,-1.2147,0.0,0.0,0.0,0.0,0.0,0.0,0.0,0.0,0.0,-2.03,-2.1063,-2.176,-2.2229,-2.3038,-2.3499,-2.3387,0.0,0.0,0.0,0.0,0.0,0.0,0.0,-3.1774,-3.2209,-3.2274,-3.2865,-3.4504,-3.6728,-3.7989,-3.6937,0.0,0.0,-3.5656,-3.5032,-3.4753,-3.46,-3.4556,-3.46,-3.4775,-3.4666,-3.5024,0.0,0.0,0.0,0.0,0.0,0.0,0.0,0.0,1.5127,1.4862,0.0,1.4576,0.0,0.0,0.0,0.0,0.0,0.8385,0.0,0.0,0.7963,0.7939,0.7939,0.7939,0.7335,0.6437,0.6247,0.5847,0.5031,0.4279,0.0,0.0,0.0,0.0,0.0,0.0,-0.5758,-0.5705,-0.5882,-0.5871,-0.5768,-0.585,-0.5844,-0.5741,-0.5735,-0.5784,-0.5893,-0.599,-0.6051,-0.6167,-0.6926,0.0,0.0,0.0,0.0,0.0,0.0,0.0,0.0,0.0,0.0,0.0,0.0,0.0,0.0,0.0,0.0,0.0,0.0,0.0,0.0,-1.1529,0.0,0.0,0.0,0.0,0.0,0.0,0.0,0.0,0.0,0.0,-2.0864,-2.134,-2.2204,-2.3832,0.0,0.0,0.0,0.0,-2.5127,-2.7555,-2.8228,-2.9583,-3.2248,-3.3099,-3.3223,-3.2871,0.0,0.0,-3.6221,-3.7362,-3.7811,-3.6556,-3.7797,-3.8816,-3.875,-3.7527,-3.6806,-3.7156,-3.6522,-3.6216,-3.6588,-3.6971,-3.7814,1.6585,0.0,0.0,0.0,0.0,1.6046,1.5803,1.5416,1.5145,1.4469,1.3504,1.338,0.0,0.0,0.0,0.0,0.0,0.0,0.7801,0.7821,0.797,0.764,0.6836,0.6836,0.6331,0.5231,0.4545,0.416,0.4113,0.2993,0.2693,0.3335,0.0,0.0,0.0,0.0,-0.6602,-0.6222,-0.6172,-0.6123,-0.5991,-0.5855,-0.5768,-0.5735,-0.6257,-0.6585,-0.6721,-0.7269,-0.7611,-0.7757,-0.8045,0.0,0.0,0.0,0.0,0.0,0.0,0.0,0.0,0.0,0.0,0.0,0.0,0.0,0.0,0.0,0.0,0.0,0.0,0.0,-1.1718,-1.2575,-1.3453,0.0,0.0,0.0,0.0,0.0,0.0,0.0,0.0,0.0,-2.1354,-2.2281,-2.2938,0.0,0.0,-2.3769,-2.3371,-2.4975,-2.6457,-2.7173,-2.9379,0.0,-3.2078,-3.2906,-3.3555,-3.4093,-3.5634,-3.6945,-3.7458,-3.792,-3.8139,-3.8037,-3.8407,-3.8816,-3.8772,-3.7964,-3.7287,-3.733,-3.7134,-3.7134,-3.7593,-3.8089,-3.8452,1.6941,1.638,1.6607,1.6607,1.6433,1.6313,1.6069,1.5608,1.523,1.4388,1.3125,1.2823,1.2021,1.0782,1.0826,0.0,0.0,0.0,0.7902,0.7902,0.7496,0.7036,0.6437,0.5932,0.5227,0.4131,0.3632,0.3153,0.2936,0.1174,0.0417,0.0686,0.0,0.0,-0.4344,-0.6091,-0.6881,-0.6547,-0.6421,-0.6236,-0.6089,-0.5855,-0.5847,-0.6245,-0.6693,-0.7138,-0.7716,-0.8095,-0.8449,-0.8607,-0.8909,-0.9259,0.0,0.0,0.0,0.0,0.0,0.0,0.0,0.0,0.0,0.0,0.0,-1.1189,-1.1189,0.0,0.0,0.0,-1.277,-1.313,-1.3267,-1.4019,0.0,0.0,0.0,0.0,0.0,0.0,0.0,-2.015,-2.0715,-2.1383,-2.1925,-2.2952,-2.341,-2.3126,-2.3737,-2.3991,-2.3864,0.0,-2.6516,-2.731,-2.9806,-3.1769,-3.2435,-3.3498,-3.4565,-3.5516,-3.6452,-3.7417,-3.8233,-3.8401,-3.8423,-3.8532,-3.8707,-3.8772,-3.8575,-3.8051,-3.7811,-3.8139,-3.792,-3.7898,-3.8532,-3.87,-3.8693,1.7502,1.7235,1.6941,1.6794,1.6714,1.6348,1.6019,1.5673,1.5126,1.4124,1.2823,1.2533,1.1742,1.061,1.0359,0.0,0.9083,0.8364,0.7939,0.7839,0.6836,0.6337,0.6137,0.5135,0.4128,0.3025,0.3192,0.2621,0.1598,-0.065,-0.2602,-0.384,-0.3414,-0.4579,-0.7018,-0.6905,-0.6698,-0.6704,-0.6691,-0.6464,-0.6105,-0.5871,-0.6161,-0.7099,-0.7184,-0.7688,-0.8653,-0.8764,-0.8848,-0.9008,-0.9715,-1.0032,-0.987,0.0,0.0,0.0,0.0,0.0,0.0,0.0,0.0,0.0,0.0,0.0,0.0,0.0,0.0,0.0,-1.4584,0.0,-1.5499,-1.5615,0.0,0.0,0.0,-1.8287,-1.9692,-2.0355,-2.072,-2.072,0.0,0.0,-2.2458,-2.3129,-2.3707,-2.4081,-2.4221,-2.4372,-2.5024,-2.5151,-2.5918,-2.7655,-2.9492,-3.1262,-3.2749,-3.4262,-3.5541,-3.6579,-3.7018,-3.7395,-3.8282,-3.8641,-3.851,-3.8139,-3.8444,-3.8619,-3.8139,-3.8051,-3.8379,-3.9165,-3.8685,-3.8357,-3.9078,-3.8799,-3.87,1.8237,1.8143,1.7622,1.7252,1.7034,1.6036,1.5154,1.4295,1.3325,1.2013,1.0386,1.0386,0.9682,0.8674,0.8583,0.8484,0.828,0.8124,0.754,0.6836,0.6537,0.5532,0.4031,0.378,0.3066,0.2026,0.2009,0.1922,0.1573,-0.1091,-0.3758,-0.6216,-0.6231,-0.6445,-0.693,-0.6995,-0.6973,-0.6967,-0.6796,-0.6584,-0.6236,-0.5986,-0.6288,-0.725,-0.7696,-0.8428,-0.9523,-1.0027,-1.0404,-1.0592,-1.0806,-1.0877,-1.083,-1.1072,0.0,0.0,0.0,0.0,0.0,0.0,0.0,0.0,0.0,-1.1264,-1.1435,0.0,-1.1516,0.0,-1.4428,-1.587,-1.5883,-1.6324,0.0,0.0,-1.8306,-1.8769,-2.0346,-2.0633,-2.072,-2.072,-2.1013,-2.1565,-2.221,-2.2894,-2.3561,-2.4392,-2.4652,-2.4928,-2.5103,-2.558,-2.6072,-2.6791,-2.8426,-3.0077,-3.1407,-3.3664,-3.5562,-3.6058,-3.6449,-3.6758,-3.7234,-3.7623,-3.768,-3.7593,-3.7942,-3.8051,-3.7658,-3.7833,-3.8139,-3.8379,-3.8248,-3.816,-3.8401,-3.8379,-3.8328,1.8374,1.8229,1.7611,1.6978,1.6343,1.5587,1.485,1.4162,1.2832,1.1355,0.9835,0.9183,0.8528,0.8038,0.8038,0.8038,0.7939,0.7335,0.683,0.6337,0.5477,0.4362,0.3226,0.2776,0.226,0.162,0.1681,0.1376,0.0625,-0.1301,-0.3636,-0.6132,-0.689,-0.7177,-0.6989,-0.7111,-0.7149,-0.698,-0.6812,-0.6627,-0.6426,-0.6519,-0.6976,-0.7868,-0.8543,-0.9374,-1.043,-1.0835,-1.1075,-1.1189,-1.1189,-1.1189,-1.1189,-1.1189,-1.1189,0.0,0.0,0.0,0.0,0.0,0.0,0.0,0.0,0.0,0.0,0.0,-1.1721,-1.2685,-1.5741,-1.7383,-1.6829,-1.7675,-1.8523,-1.9262,-1.932,-1.9766,-2.0783,-2.094,-2.094,-2.094,-2.1101,-2.1435,-2.2342,-2.291,-2.353,-2.4436,-2.4885,-2.5167,-2.5342,-2.5691,-2.5961,-2.6264,-2.7615,-2.9467,-3.1084,-3.304,-3.4534,-3.5244,-3.5734,-3.6161,-3.6209,-3.6698,-3.7068,-3.7112,-3.7461,-3.7702,-3.744,-3.7571,-3.7767,-3.7789,-3.7789,-3.7855,-3.8051,-3.7964,-3.7846,1.8359,1.8,1.7237,1.6332,1.5407,1.4689,1.4319,1.4019,1.2467,1.1043,0.9848,0.8549,0.8038,0.8038,0.8038,0.7939,0.7739,0.6531,0.6032,0.5837,0.4096,0.3173,0.2927,0.2161,0.1647,0.1618,0.1448,0.0625,-0.0622,-0.1826,-0.3384,-0.5017,-0.6543,-0.7149,-0.7133,-0.7149,-0.7105,-0.7008,-0.6768,-0.6643,-0.6638,-0.707,-0.7685,-0.8594,-0.9364,-1.0211,-1.1179,-1.1189,-1.1189,-1.1189,-1.1189,-1.1189,-1.1198,-1.1217,-1.1236,0.0,-1.1435,0.0,0.0,0.0,0.0,0.0,0.0,0.0,0.0,-1.1706,-1.2414,-1.3934,-1.7423,-1.9135,-1.8181,-1.9175,-2.0178,-2.0735,-2.0667,-2.0783,-2.1174,-2.1203,-2.1189,-2.1159,-2.1189,-2.155,-2.2397,-2.2879,-2.3588,-2.4443,-2.4897,-2.5199,-2.5485,-2.5596,-2.5755,-2.6041,-2.7327,-2.8994,-3.1275,-3.2402,-3.3274,-3.4336,-3.5142,-3.5465,-3.5361,-3.5972,-3.6469,-3.6631,-3.6981,-3.7265,-3.7287,-3.733,-3.7374,-3.7396,-3.7418,-3.7549,-3.7833,-3.7702,-3.7396,1.8892,1.8211,1.6678,1.5804,1.5188,1.2569,1.1469,1.1367,1.0064,0.9057,0.8421,0.8165,0.8038,0.8038,0.8038,0.7534,0.6736,0.6437,0.5432,0.3827,0.3436,0.2732,0.1921,0.1751,0.1647,0.1521,0.0106,-0.0959,-0.1554,-0.468,-0.6423,-0.6676,-0.71,-0.7111,-0.7029,0.0,0.0,0.0,-0.6888,-0.6768,-0.6757,-0.7205,-0.7834,-0.8765,-0.9429,0.0,-1.1179,-1.1189,-1.1189,-1.1189,-1.1189,0.0,0.0,0.0,0.0,0.0,0.0,0.0,0.0,0.0,0.0,0.0,-1.1548,-1.1548,-1.1746,-1.2911,-1.4612,-1.6663,-1.7756,-1.8822,-2.0068,-2.0183,-2.0384,-2.1072,-2.1115,-2.1145,-2.1203,-2.1203,-2.1115,-2.0852,-2.1042,-2.1462,-2.2124,-2.2726,-2.3572,-2.4379,-2.4881,-2.5119,-2.5183,-2.5437,-2.5659,-2.5849,-2.6836,-2.8412,-3.018,-3.152,-3.2673,-3.3834,-3.447,-3.4749,-3.4783,-3.5275,-3.5734,-3.5756,-3.6382,-3.6828,-3.6828,-3.7112,-3.7309,-3.7352,-3.7352,-3.7418,-3.7505,-3.744,-3.7374,1.857,0.0,1.6754,1.54,0.0,1.1791,1.0396,0.9615,0.8996,0.8412,0.8038,0.8038,0.8038,0.8038,0.8038,0.7434,0.6337,0.5832,0.4726,0.3226,0.2671,0.2166,0.164,0.1685,0.1366,0.0615,-0.0636,-0.1911,-0.3319,-0.5854,-0.7166,-0.7105,-0.721,-0.7127,-0.7073,-0.7127,-0.7154,-0.7154,-0.6921,-0.7012,-0.7422,-0.7912,-0.8539,-0.932,0.0,0.0,0.0,0.0,0.0,0.0,0.0,0.0,0.0,0.0,0.0,-1.1661,-1.186,-1.1926,-1.1831,-1.1822,-1.1869,-1.1964,-1.1879,-1.2067,-1.2789,-1.4265,-1.5947,-1.7676,-1.8713,-1.9679,-2.0565,-2.0739,-2.0885,-2.1189,-2.1203,-2.1203,-2.1203,-2.1203,-2.1145,-2.1013,-2.1229,-2.166,-2.2002,-2.2775,-2.338,-2.3937,-2.4508,-2.4747,-2.4642,-2.504,-2.5373,-2.5373,-2.5853,-2.689,-2.8394,-2.9952,-3.12,-3.2275,-3.3437,-3.4085,-3.3917,-3.4413,-3.5005,-3.5164,-3.5648,-3.609,-3.6347,-3.6544,-3.6675,-3.6675,-3.6675,-3.6784,-3.6981,-3.7221,-3.7374,1.7856,1.7439,1.6474,1.4689,1.2358,1.1116,0.9777,0.8445,0.0,0.0,0.0,0.8038,0.8038,0.8038,0.8038,0.7335,0.6132,0.5227,0.4131,0.2941,0.2092,0.1688,0.1673,0.1719,0.107,-0.0415,-0.1265,-0.2739,-0.4683,-0.6343,-0.7111,-0.7024,-0.7105,-0.7254,-0.7127,-0.7127,-0.7111,-0.7084,-0.7028,-0.734,-0.7916,-0.8708,-0.9351,-1.0019,-1.0806,-1.1189,-1.1189,-1.1189,-1.1189,-1.1189,-1.1227,-1.1331,-1.151,-1.1586,-1.1699,-1.1869,-1.2077,-1.2115,-1.1945,-1.2058,-1.2037,-1.2037,-1.2172,-1.2646,-1.3869,-1.5132,-1.6466,-1.7681,-1.9389,-2.0399,-2.0456,-2.0929,-2.1203,-2.1203,-2.1203,-2.1203,-2.1203,-2.1203,-2.1203,-2.1218,-2.1432,-2.1774,-2.2002,-2.2651,-2.3084,-2.3478,-2.4029,-2.4354,-2.4182,-2.4595,-2.4928,-2.4992,-2.513,-2.5513,-2.6935,-2.8474,-2.9748,-3.084,-3.2438,-3.3445,-3.335,-3.3642,-3.4061,-3.4511,-3.497,-3.5323,-3.5801,-3.5954,-3.5954,-3.5954,-3.5976,-3.6085,-3.6479,-3.685,-3.7134,1.739,1.5693,1.5144,1.3568,1.1148,0.9595,0.8659,0.8296,0.816,0.8079,0.8038,0.8038,0.8038,0.8038,0.8038,0.693,0.5027,0.4826,0.3758,0.1965,0.1769,0.168,0.1699,0.1708,0.0953,-0.0519,-0.2424,-0.3925,-0.4876,-0.6266,-0.7035,-0.7122,-0.7149,-0.7105,-0.7018,-0.7008,-0.6959,-0.6855,-0.7666,-0.8017,-0.7885,-0.9259,-1.0071,-1.0027,-1.0806,-1.1189,-1.1189,-1.1189,-1.1189,-1.1198,-1.1378,-1.1491,-1.1529,-1.185,-1.2068,-1.2106,-1.2285,-1.238,-1.2351,-1.2219,-1.2037,-1.2153,-1.2295,-1.2979,-1.4452,-1.4516,-1.5229,-1.6964,-1.8385,-1.9212,-1.9456,-2.0486,-2.1218,-2.1203,-2.1203,-2.1203,-2.1218,-2.1203,-2.1203,-2.1203,-2.1218,-2.1546,-2.2033,-2.2506,-2.2937,-2.3462,-2.3753,-2.4102,-2.4126,-2.4174,-2.4341,-2.4579,-2.4658,-2.5375,-2.6591,-2.8122,-2.935,-3.0606,-3.1828,-3.283,-3.282,-3.2818,-3.3135,-3.3636,-3.4124,-3.4523,-3.5076,-3.5692,-3.5823,-3.5845,-3.5845,-3.5932,-3.6042,-3.6195,-3.6479,1.6895,1.531,1.3999,1.2412,1.0647,0.9212,0.8418,0.8153,0.816,0.8119,0.8038,0.8038,0.8038,0.7939,0.7434,0.6232,0.4822,0.4225,0.3139,0.1742,0.167,0.1692,0.1705,0.1723,0.0642,-0.1471,-0.2962,-0.4439,-0.5775,-0.6674,-0.7013,-0.7062,-0.7062,-0.7035,-0.6986,-0.6921,-0.6855,-0.6806,-0.7626,-0.8183,-0.8466,-0.9585,-1.0302,-1.0609,-1.1002,-1.1189,-1.1189,-1.1189,-1.1189,-1.1189,-1.1406,-1.1567,-1.168,-1.1973,-1.2191,-1.2295,-1.2389,-1.2436,-1.2436,-1.2126,-1.2126,-1.2465,-1.2455,-1.2885,-1.3999,-1.454,-1.5445,-1.6906,-1.7638,-1.8352,-1.9203,-2.0396,-2.1263,-2.1218,-2.1161,-2.1176,-2.1218,-2.1203,-2.1203,-2.1432,-2.1546,-2.1888,-2.2343,-2.2596,-2.2918,-2.3162,-2.3419,-2.3562,-2.3473,-2.3652,-2.4039,-2.4706,-2.4865,-2.5173,-2.5912,-2.7021,-2.8325,-2.9512,-3.082,-3.1782,-3.221,-3.2259,-3.2378,-3.2759,-3.3151,-3.372,-3.4336,-3.484,-3.5102,-3.5168,-3.519,-3.5255,-3.5474,-3.5954,-3.65,1.6114,1.4724,1.3148,1.1558,0.9976,0.8969,0.833,0.8113,0.818,0.8153,0.8045,0.8038,0.7839,0.754,0.6736,0.5732,0.4425,0.3623,0.2629,0.1734,0.168,0.1704,0.1707,0.1735,0.0432,-0.2115,-0.3593,-0.5139,-0.6442,-0.6812,-0.6937,-0.7089,-0.6986,-0.697,-0.6942,-0.685,-0.679,-0.6757,-0.7522,-0.8186,-0.8969,-0.9754,-1.0474,-1.1166,-1.1217,-1.1217,-1.1264,-1.1217,-1.1189,-1.1208,-1.1444,-1.1652,-1.1813,-1.2068,-1.2257,-1.2361,-1.237,-1.2351,-1.2304,-1.207,-1.2181,-1.2663,-1.254,-1.271,-1.3413,-1.4356,-1.5311,-1.6124,-1.6623,-1.7443,-1.8415,-2.0158,-2.1045,-2.0543,-2.0859,-2.1003,-2.0874,-2.0974,-2.1318,-2.1675,-2.1888,-2.2116,-2.257,-2.2796,-2.2925,-2.3038,-2.3022,-2.3038,-2.302,-2.3304,-2.4039,-2.4674,-2.4992,-2.5008,-2.5071,-2.6189,-2.7452,-2.8592,-2.983,-3.0928,-3.1554,-3.1816,-3.1996,-3.2335,-3.2681,-3.3157,-3.3682,-3.4229,-3.4469,-3.4491,-3.4534,-3.4687,-3.5015,-3.5561,-3.6326,1.48,1.3423,1.2702,1.0933,0.8797,0.8547,0.8391,0.8241,0.8119,0.8052,0.8038,0.8038,0.7441,0.6637,0.6437,0.5231,0.3425,0.3224,0.2646,0.1761,0.1689,0.1704,0.1708,0.1734,0.0644,-0.1771,-0.4575,-0.6127,-0.6508,-0.6654,-0.6879,-0.718,-0.7094,-0.6931,-0.6834,-0.6806,-0.6747,-0.6643,-0.7571,-0.8294,-0.8984,-0.9868,-1.0668,-1.1391,-1.1302,-1.1283,-1.1444,-1.1302,-1.1198,-1.1227,-1.1576,-1.1794,-1.186,-1.2191,-1.2332,-1.2181,-1.2172,-1.2087,-1.1907,-1.1869,-1.1953,-1.2417,-1.2465,-1.272,-1.3325,-1.367,-1.3894,-1.4242,-1.5084,-1.5806,-1.6172,-1.8959,-1.9938,-1.8428,-1.9658,-2.0772,-1.9822,-2.05,-2.1332,-2.166,-2.1774,-2.1888,-2.257,-2.2683,-2.2796,-2.3022,-2.3022,-2.3117,-2.3142,-2.3541,-2.4039,-2.4484,-2.4627,-2.477,-2.5114,-2.6172,-2.721,-2.8129,-2.9316,-3.0305,-3.0994,-3.1391,-3.1506,-3.2144,-3.2641,-3.2836,-3.3595,-3.4163,-3.4338,-3.4207,-3.4294,-3.4556,-3.46,-3.4818,-3.5321,1.444,1.294,1.2574,1.105,0.8918,0.8547,0.8397,0.8269,0.8208,0.8126,0.8045,0.8038,0.7441,0.6337,0.5732,0.4626,0.3224,0.2521,0.204,0.1767,0.169,0.1714,0.1622,0.1401,0.032,-0.1678,-0.4846,-0.6433,-0.654,-0.6654,-0.6923,-0.7175,-0.7022,-0.685,-0.6796,-0.673,-0.6703,-0.673,-0.7089,-0.7651,-0.8611,-0.9784,-1.0817,-1.1428,-1.1548,-1.1472,-1.135,-1.1359,-1.1387,-1.1397,-1.1661,-1.1879,-1.2002,-1.2172,-1.2228,-1.2134,-1.1906,-1.1803,-1.1822,-1.1709,-1.1887,-1.2408,-1.2559,-1.2852,-1.3334,-1.357,-1.3693,-1.3813,-1.4162,-1.4748,-1.558,-1.6357,-1.6843,-1.7103,-1.7079,-1.7067,-1.8156,-1.9435,-2.0486,-2.0831,-2.1645,-2.2343,-2.2683,-2.2796,-2.2909,-2.3022,-2.3022,-2.3149,-2.3499,-2.3689,-2.388,-2.4166,-2.4261,-2.4515,-2.4928,-2.5278,-2.6389,-2.7786,-2.8663,-2.9298,-3.0656,-3.0971,-3.1103,-3.1635,-3.1913,-3.2426,-3.316,-3.377,-3.4054,-3.4076,-3.4272,-3.4534,-3.4534,-3.4731,-3.5233,1.4137,1.2832,1.19,1.0421,0.8872,0.8615,0.8486,0.8391,0.8343,0.8262,0.816,0.7811,0.7089,0.5977,0.5166,0.4156,0.2845,0.2036,0.1645,0.1674,0.1696,0.1716,0.1626,0.1181,-0.0213,-0.2324,-0.506,-0.6428,-0.6455,-0.6747,-0.6989,-0.7028,-0.685,-0.6785,-0.6752,-0.6687,-0.6714,-0.6801,-0.6861,-0.7367,-0.8291,-0.936,-1.0264,-1.0878,-1.125,-1.128,-1.1171,-1.1447,-1.1605,-1.1605,-1.1794,-1.1945,-1.2039,-1.2106,-1.2096,-1.1973,-1.1719,-1.1625,-1.1737,-1.1672,-1.1915,-1.2474,-1.2682,-1.2975,-1.3381,-1.3599,-1.3684,-1.3693,-1.3693,-1.4162,-1.4748,-1.4282,-1.4629,-1.6031,-1.4657,-1.4636,-1.6727,-1.8377,-1.9652,-2.0228,-2.1288,-2.2441,-2.2893,-2.3022,-2.3022,-2.3022,-2.3022,-2.3278,-2.3892,-2.3905,-2.38,-2.4023,-2.4134,-2.4356,-2.4722,-2.4731,-2.5594,-2.6946,-2.7911,-2.8577,-3.0099,-3.0512,-3.0808,-3.1381,-3.1444,-3.1889,-3.2703,-3.3268,-3.3792,-3.4185,-3.4403,-3.4513,-3.4534,-3.4818,-3.5015,1.3588,1.2832,1.0249,0.9044,0.8913,0.8757,0.8696,0.8655,0.8526,0.8459,0.8314,0.7267,0.619,0.5158,0.4953,0.3721,0.1968,0.176,0.167,0.1696,0.1703,0.1707,0.171,0.1174,-0.0639,-0.3297,-0.5652,-0.6681,-0.6453,-0.6797,-0.6921,-0.6823,-0.6812,-0.6747,-0.6676,-0.6741,-0.6796,-0.6817,-0.6997,-0.7569,-0.8336,-0.8432,-0.8776,-0.9511,-1.0241,-1.0636,-1.0835,-1.1472,-1.1803,-1.1803,-1.2002,-1.2039,-1.1888,-1.202,-1.1945,-1.1624,-1.1548,-1.1539,-1.1576,-1.1746,-1.2096,-1.2625,-1.2786,-1.3032,-1.357,-1.3674,-1.3684,-1.3693,-1.3693,-1.3803,-1.3923,-1.3803,-1.3794,-1.4013,-1.3955,-1.4301,-1.5558,-1.7337,-1.8855,-1.9998,-2.0931,-2.1987,-2.2909,-2.3022,-2.3022,-2.3022,-2.3022,-2.331,-2.394,-2.4098,-2.4109,-2.4086,-2.4245,-2.4436,-2.4182,-2.4182,-2.5028,-2.6373,-2.7359,-2.7659,-2.9073,-3.0266,-3.0769,-3.1148,-3.1527,-3.1844,-3.2354,-3.2853,-3.3399,-3.3879,-3.4316,-3.4469,-3.4513,-3.4534,-3.4753,1.2635,1.0907,0.9485,0.894,0.892,0.8771,0.871,0.8696,0.8547,0.8479,0.8262,0.7264,0.6162,0.5068,0.4191,0.3018,0.1738,0.1633,0.165,0.1677,0.1696,0.1715,0.1733,0.1519,-0.0325,-0.3557,-0.596,-0.699,-0.6706,-0.6926,-0.7072,-0.7022,-0.6839,-0.6779,-0.6752,-0.6779,-0.6801,-0.6823,-0.697,-0.7298,-0.7569,-0.7396,-0.7576,-0.806,-0.9233,-1.0192,-1.0565,-1.1028,-1.1379,-1.1915,-1.2106,-1.2106,-1.202,-1.1841,-1.168,-1.1539,-1.152,-1.1576,-1.1728,-1.202,-1.237,-1.2729,-1.3022,-1.3287,-1.3599,-1.3693,-1.3693,-1.3693,-1.3693,-1.3693,-1.3693,-1.3693,-1.3636,-1.3532,-1.3699,-1.4123,-1.4966,-1.6503,-1.8015,-1.9537,-2.1159,-2.2554,-2.278,-2.3022,-2.3022,-2.3038,-2.3197,-2.3483,-2.3917,-2.4125,-2.4023,-2.4023,-2.3975,-2.388,-2.3769,-2.3943,-2.4561,-2.5783,-2.665,-2.7271,-2.834,-2.9869,-3.0559,-3.0893,-3.1313,-3.1819,-3.2202,-3.3049,-3.353,-3.3988,-3.4425,-3.4491,-3.4513,-3.4488,-3.4684,1.1773,0.9831,0.9161,0.894,0.8927,0.8832,0.8784,0.8771,0.8676,0.8628,0.8295,0.6934,0.5798,0.4906,0.3451,0.2379,0.1621,0.1628,0.1647,0.1675,0.1696,0.1608,0.1516,0.1738,-0.0,-0.3347,-0.5892,-0.7046,-0.6978,-0.6948,-0.6964,-0.7028,-0.6839,-0.6779,-0.6757,-0.6779,-0.6817,-0.6872,-0.698,-0.7067,-0.7073,-0.6904,-0.6872,-0.7208,-0.81,-0.9012,-0.9777,-1.0174,-1.0881,-1.1675,-1.1745,-1.1787,-1.1906,-1.1775,-1.1586,-1.1529,-1.1586,-1.1709,-1.1926,-1.2247,-1.2559,-1.2852,-1.3173,-1.3476,-1.3655,-1.3693,-1.3693,-1.3684,-1.3618,-1.3599,-1.3599,-1.3718,-1.3689,-1.3622,-1.3975,-1.4411,-1.4629,-1.5924,-1.7677,-1.9537,-2.1274,-2.2441,-2.2893,-2.3022,-2.2956,-2.302,-2.3194,-2.353,-2.3927,-2.3943,-2.388,-2.3896,-2.3959,-2.3848,-2.3737,-2.3848,-2.4331,-2.5469,-2.6417,-2.6957,-2.7872,-2.9323,-3.0391,-3.0703,-3.1016,-3.1625,-3.2332,-3.3202,-3.377,-3.4229,-3.4469,-3.4556,-3.451,-3.4619,-3.4923,1.0798,0.9721,0.9161,0.894,0.8933,0.892,0.8933,0.8899,0.8906,0.8872,0.8464,0.6368,0.5443,0.4857,0.2902,0.1626,0.1626,0.1644,0.1666,0.169,0.1697,0.1382,0.1067,0.139,-0.0214,-0.3515,-0.5739,-0.6866,-0.7169,-0.7067,-0.6915,-0.6722,-0.6812,-0.6747,-0.6627,-0.6747,-0.6855,-0.6948,-0.7051,-0.7073,-0.6986,-0.6855,-0.6801,-0.6812,-0.6813,-0.7422,-0.853,-0.919,-1.0038,-1.0941,-1.1039,-1.1186,-1.1793,-1.1813,-1.1728,-1.1624,-1.1718,-1.1917,-1.2143,-1.2361,-1.2682,-1.3013,-1.3277,-1.3504,-1.3646,-1.3693,-1.3693,-1.3665,-1.3532,-1.341,-1.3438,-1.3556,-1.3721,-1.3765,-1.4639,-1.5147,-1.4997,-1.5817,-1.7467,-1.9795,-2.1174,-2.1972,-2.2667,-2.307,-2.3067,-2.2965,-2.3126,-2.332,-2.381,-2.3779,-2.3673,-2.3689,-2.3864,-2.3912,-2.3832,-2.3885,-2.4499,-2.5167,-2.6056,-2.6844,-2.7688,-2.8926,-3.0412,-3.0974,-3.1331,-3.1837,-3.242,-3.3268,-3.3726,-3.4141,-3.436,-3.4687,-3.4749,-3.4945,-3.5315,0.9926,0.9161,0.894,0.894,0.894,0.894,0.8886,0.8798,0.8886,0.8825,0.8252,0.6308,0.5271,0.4706,0.2766,0.1686,0.165,0.1639,0.1636,0.165,0.1667,0.1361,0.0945,0.0636,-0.1491,-0.5002,-0.6278,-0.6828,-0.6855,-0.6866,-0.6834,-0.6806,-0.6806,-0.6741,-0.6643,-0.6741,-0.6828,-0.6855,-0.6893,-0.6931,-0.6959,-0.6779,-0.6719,-0.6779,-0.6681,-0.6824,-0.7321,-0.8143,-0.9048,-1.0062,-1.0551,-1.1248,-1.181,-1.1898,-1.186,-1.1945,-1.2002,-1.2209,-1.254,-1.2748,-1.2975,-1.3258,-1.3476,-1.3608,-1.3674,-1.3693,-1.3693,-1.3674,-1.3514,-1.3429,-1.3542,-1.3711,-1.3683,-1.3476,-1.4708,-1.5515,-1.5601,-1.6879,-1.8635,-2.004,-2.106,-2.1972,-2.2714,-2.3181,-2.3304,-2.3184,-2.3535,-2.3952,-2.3591,-2.3819,-2.4007,-2.3737,-2.388,-2.388,-2.3673,-2.3546,-2.3827,-2.4658,-2.5617,-2.6481,-2.7416,-2.8926,-3.0412,-3.1352,-3.1689,-3.2224,-3.2809,-3.3311,-3.3835,-3.4272,-3.4666,-3.4949,-3.5168,-3.5359,-3.5729,0.9485,0.8927,0.8879,0.8852,0.8736,0.8798,0.875,0.8737,0.8872,0.8497,0.7768,0.6191,0.5035,0.4223,0.2609,0.1829,0.168,0.1656,0.165,0.1648,0.1654,0.1346,0.0722,-0.0419,-0.232,-0.4962,-0.6263,-0.6728,-0.6872,-0.6872,-0.6872,-0.6872,-0.6872,-0.6839,-0.6757,-0.6779,-0.6817,-0.6855,-0.6828,-0.6817,-0.6812,-0.6698,-0.6632,-0.6654,-0.6589,-0.6616,-0.6719,-0.7252,-0.8065,-0.9098,-1.0262,-1.1353,-1.2037,-1.2077,-1.2115,-1.2228,-1.2351,-1.2531,-1.2852,-1.306,-1.324,-1.3391,-1.357,-1.3684,-1.3693,-1.3693,-1.3693,-1.3665,-1.3504,-1.3476,-1.3618,-1.3632,-1.3556,-1.3504,-1.4955,-1.5861,-1.6431,-1.7479,-1.8881,-1.9938,-2.0931,-2.1795,-2.2803,-2.3499,-2.3652,-2.3677,-2.4032,-2.4205,-2.3551,-2.3819,-2.3684,-2.3594,-2.3594,-2.3514,-2.3387,-2.3308,-2.3292,-2.4102,-2.5214,-2.6063,-2.6859,-2.9177,-3.087,-3.1798,-3.2245,-3.2703,-3.3289,-3.3748,-3.4229,-3.4622,-3.4993,-3.5212,-3.5474,-3.5635,-3.6025,0.9478,0.8906,0.8784,0.8635,0.8514,0.8508,0.8642,0.8743,0.8872,0.8257,0.7165,0.6016,0.4841,0.3512,0.2302,0.1738,0.171,0.1699,0.1695,0.1689,0.1573,0.1451,0.0924,-0.0831,-0.2402,-0.3966,-0.5817,-0.6754,-0.6926,-0.6937,-0.6975,-0.6942,-0.697,-0.6975,-0.6921,-0.6855,-0.6877,-0.6937,-0.685,-0.6736,-0.6665,-0.6649,-0.6584,-0.6486,-0.648,-0.6535,-0.6649,-0.6791,-0.7293,-0.8353,-1.0023,-1.1142,-1.1916,-1.2234,-1.2408,-1.2455,-1.2654,-1.2833,-1.306,-1.324,-1.3391,-1.3447,-1.3551,-1.3684,-1.3684,-1.3618,-1.3608,-1.3665,-1.3476,-1.3438,-1.3589,-1.3504,-1.3485,-1.4004,-1.5137,-1.6335,-1.7256,-1.7479,-1.8415,-1.985,-2.0625,-2.1525,-2.3168,-2.3816,-2.415,-2.4158,-2.4111,-2.4032,-2.3661,-2.3504,-2.3304,-2.3324,-2.334,-2.3387,-2.3324,-2.3228,-2.3244,-2.4367,-2.537,-2.6191,-2.7149,-2.9509,-3.1248,-3.2075,-3.2809,-3.3268,-3.3748,-3.4229,-3.46,-3.4971,-3.5255,-3.5496,-3.5867,-3.6164,-3.6372,0.9478,0.892,0.8893,0.8763,0.8536,0.8716,0.8832,0.8879,0.892,0.8159,0.6953,0.5912,0.4644,0.3339,0.2225,0.1767,0.174,0.1716,0.1704,0.1703,0.1697,0.1585,0.1264,-0.0,-0.1692,-0.3698,-0.5854,-0.6945,-0.685,-0.6877,-0.6877,-0.6861,-0.7029,-0.7018,-0.6877,-0.6921,-0.6948,-0.6948,-0.6774,-0.6714,-0.6752,-0.6747,-0.6692,-0.6584,-0.6573,-0.6632,-0.6752,-0.6844,-0.7333,-0.8259,-0.9494,-1.0554,-1.1276,-1.1982,-1.2302,-1.2562,-1.2748,-1.2937,-1.323,-1.3353,-1.3447,-1.358,-1.3504,-1.3532,-1.3665,-1.34,-1.341,-1.3523,-1.3391,-1.3315,-1.357,-1.3514,-1.3858,-1.4955,-1.5504,-1.6098,-1.6785,-1.7244,-1.8181,-1.9952,-2.0522,-2.1613,-2.3061,-2.3991,-2.4309,-2.4111,-2.4126,-2.4182,-2.3583,-2.3394,-2.3419,-2.3181,-2.3149,-2.3276,-2.3308,-2.3197,-2.352,-2.4696,-2.5726,-2.6645,-2.8145,-3.0158,-3.1527,-3.2542,-3.3202,-3.3748,-3.4229,-3.4709,-3.5037,-3.5364,-3.5823,-3.6195,-3.6457,-3.6806,-3.6861,0.9588,0.9133,0.8866,0.8729,0.8606,0.8662,0.8784,0.8852,0.8803,0.7931,0.6512,0.5728,0.4455,0.2805,0.2034,0.1797,0.1768,0.175,0.1744,0.1742,0.1744,0.173,0.1501,0.0751,-0.1076,-0.3659,-0.6084,-0.7002,-0.7024,-0.698,-0.6975,-0.704,-0.7111,-0.7105,-0.7062,-0.7029,-0.7056,-0.7024,-0.6866,-0.6796,-0.6801,-0.6801,-0.6768,-0.6703,-0.6698,-0.6752,-0.6877,-0.6991,-0.7489,-0.8266,-0.8982,-0.9691,-1.0476,-1.1092,-1.1663,-1.2194,-1.2397,-1.2712,-1.341,-1.3447,-1.3438,-1.3495,-1.3372,-1.3334,-1.3381,-1.3258,-1.3353,-1.3476,-1.3381,-1.3466,-1.3599,-1.358,-1.4055,-1.4857,-1.5568,-1.6056,-1.6796,-1.7244,-1.8415,-1.9761,-2.0625,-2.1525,-2.32,-2.4055,-2.4166,-2.4,-2.4198,-2.3842,-2.3425,-2.3462,-2.3514,-2.3324,-2.3244,-2.3403,-2.3677,-2.3745,-2.4236,-2.5256,-2.7416,-2.8233,-2.9587,-3.1337,-3.2233,-3.3265,-3.3726,-3.4272,-3.4775,-3.5212,-3.5496,-3.5889,-3.6413,-3.6675,-3.6806,-3.71,-3.732,0.9706,0.9464,0.8893,0.873,0.8615,0.8594,0.8676,0.8777,0.8893,0.7621,0.5877,0.5545,0.4128,0.1801,0.1819,0.1819,0.1793,0.1786,0.1789,0.1787,0.1785,0.1768,0.1742,0.1098,-0.055,-0.3086,-0.5819,-0.7032,-0.7285,-0.723,-0.7252,-0.7296,-0.7258,-0.7269,-0.7285,-0.7247,-0.7198,-0.7182,-0.7056,-0.697,-0.6921,-0.6899,-0.6877,-0.6866,-0.6861,-0.6888,-0.6975,-0.7188,-0.7476,-0.8367,-0.8484,-0.892,-0.9603,-0.9839,-1.0681,-1.1536,-1.1919,-1.246,-1.3361,-1.3495,-1.3391,-1.3381,-1.3192,-1.3079,-1.3154,-1.3221,-1.3287,-1.3485,-1.357,-1.3599,-1.3684,-1.3693,-1.4211,-1.4861,-1.5608,-1.6462,-1.728,-1.7563,-1.8269,-2.0034,-2.0751,-2.173,-2.3022,-2.388,-2.4102,-2.4055,-2.4055,-2.37,-2.351,-2.3447,-2.3594,-2.3642,-2.361,-2.3626,-2.4001,-2.4331,-2.5076,-2.6117,-2.916,-3.0824,-3.1788,-3.3117,-3.3552,-3.4142,-3.4556,-3.4993,-3.543,-3.5758,-3.602,-3.6326,-3.6784,-3.6784,-3.6762,-3.7079,-3.7418,0.9706,0.9471,0.901,0.8893,0.8886,0.8859,0.892,0.9035,0.8967,0.7578,0.5868,0.5471,0.4088,0.1827,0.1813,0.18,0.1795,0.1794,0.1794,0.1794,0.1794,0.1806,0.1692,0.1134,0.0227,-0.1708,-0.5434,-0.7243,-0.7359,-0.7448,-0.7448,-0.747,-0.7508,-0.754,-0.747,-0.7448,-0.7437,-0.7404,-0.723,-0.716,-0.716,-0.71,-0.7067,-0.7067,-0.7062,-0.7035,-0.7013,-0.7095,-0.726,-0.7598,-0.8042,-0.8595,-0.8856,-0.9525,-1.0372,-1.1339,-1.1737,-1.2386,-1.3351,-1.3485,-1.3381,-1.3315,-1.3069,-1.2965,-1.3268,-1.306,-1.3192,-1.3447,-1.3532,-1.3561,-1.3703,-1.3854,-1.4518,-1.5418,-1.6064,-1.682,-1.7753,-1.8106,-1.8905,-2.04,-2.1286,-2.2268,-2.3935,-2.4213,-2.4229,-2.407,-2.3848,-2.3657,-2.3594,-2.3546,-2.3705,-2.3848,-2.3943,-2.3975,-2.4574,-2.5343,-2.6772,-2.7966,-3.0605,-3.2942,-3.4075,-3.469,-3.5109,-3.5216,-3.5364,-3.5758,-3.602,-3.6326,-3.6566,-3.6872,-3.7046,-3.6937,-3.6894,-3.7286,-3.7022,0.9706,0.9588,0.9161,0.894,0.894,0.894,0.8981,0.9028,0.8974,0.7668,0.5812,0.5394,0.4049,0.1931,0.1802,0.1795,0.1794,0.1794,0.1794,0.1794,0.1795,0.1812,0.1725,0.1275,0.0697,-0.0581,-0.3861,-0.6138,-0.7236,-0.7445,-0.754,-0.7595,-0.7627,-0.76,-0.7606,-0.76,-0.7562,-0.7502,-0.7399,-0.7312,-0.7247,-0.7252,-0.7241,-0.722,-0.7187,-0.7122,-0.7084,-0.7116,-0.7149,-0.7265,-0.7598,-0.7961,-0.8033,-0.8489,-0.9544,-1.0864,-1.1176,-1.2107,-1.2994,-1.3287,-1.3088,-1.3117,-1.288,-1.2928,-1.3088,-1.3032,-1.3211,-1.3457,-1.3551,-1.3618,-1.3816,-1.4275,-1.5003,-1.5883,-1.656,-1.7338,-1.8197,-1.8372,-1.9023,-2.0577,-2.1138,-2.223,-2.3227,-2.4047,-2.3896,-2.353,-2.3499,-2.3356,-2.3578,-2.3594,-2.3912,-2.4086,-2.4229,-2.4579,-2.5185,-2.6491,-2.8545,-3.0125,-3.2275,-3.4279,-3.5703,-3.6129,-3.6406,-3.6268,-3.5998,-3.6216,-3.65,-3.6806,-3.7003,-3.7134,-3.7178,-3.7046,-3.6915,-3.6806,-3.6347,0.9816,0.9706,0.9161,0.894,0.894,0.894,0.894,0.894,0.894,0.7604,0.5699,0.5361,0.403,0.2242,0.1795,0.1795,0.1804,0.1813,0.1819,0.1819,0.1819,0.1838,0.1746,0.1294,0.0948,-0.0,-0.2613,-0.5025,-0.709,-0.7644,-0.766,-0.7698,-0.7638,-0.766,-0.7714,-0.7698,-0.7655,-0.7568,-0.7513,-0.7421,-0.7279,-0.7307,-0.7317,-0.7301,-0.7247,-0.722,-0.722,-0.7236,-0.7214,-0.7187,-0.7182,-0.7236,-0.7328,-0.7541,-0.8341,-1.0325,-1.0567,-1.1544,-1.291,-1.3041,-1.2833,-1.2824,-1.2786,-1.2852,-1.2994,-1.3202,-1.3353,-1.3495,-1.3618,-1.3807,-1.3986,-1.4498,-1.5175,-1.6043,-1.703,-1.7817,-1.8399,-1.8356,-1.9394,-2.0876,-2.1441,-2.2078,-2.3027,-2.3753,-2.3371,-2.3085,-2.3101,-2.3197,-2.3451,-2.3785,-2.415,-2.442,-2.4595,-2.5408,-2.6023,-2.733,-2.9514,-3.1532,-3.3638,-3.5102,-3.6609,-3.6959,-3.6881,-3.6706,-3.6544,-3.6719,-3.6872,-3.7068,-3.7221,-3.7352,-3.7287,-3.7156,-3.6752,-3.6307,-3.5903,0.9816,0.9706,0.9161,0.894,0.894,0.894,0.894,0.894,0.894,0.7593,0.5588,0.5361,0.403,0.2354,0.1795,0.1808,0.1829,0.1847,0.1862,0.1864,0.1864,0.1879,0.1665,0.1434,0.1207,0.0733,-0.1342,-0.4273,-0.6621,-0.785,-0.7807,-0.7828,-0.7807,-0.7818,-0.7796,-0.7758,-0.7698,-0.7616,-0.7557,-0.747,-0.7399,-0.7339,-0.7328,-0.7328,-0.7296,-0.7323,-0.7404,-0.7432,-0.741,-0.7317,-0.7307,-0.7312,-0.7323,-0.735,-0.8298,-0.9738,-1.0286,-1.1149,-1.2726,-1.2909,-1.2965,-1.3107,-1.2984,-1.3069,-1.3325,-1.3447,-1.3485,-1.3627,-1.3797,-1.3977,-1.4014,-1.4529,-1.4905,-1.5594,-1.6382,-1.7352,-1.784,-1.8387,-1.9374,-2.1273,-2.1652,-2.1925,-2.2925,-2.3562,-2.3324,-2.3228,-2.3292,-2.3483,-2.3769,-2.4166,-2.4579,-2.4817,-2.4992,-2.6076,-2.703,-2.8622,-3.0336,-3.2358,-3.4166,-3.523,-3.6417,-3.7067,-3.7199,-3.6959,-3.6959,-3.7112,-3.7243,-3.7309,-3.733,-3.7374,-3.7309,-3.7221,-3.6872,-3.6382,-3.5903,0.9891,0.9706,0.9161,0.894,0.894,0.894,0.8981,0.9035,0.8863,0.7633,0.5985,0.5318,0.4058,0.2363,0.1813,0.1828,0.1846,0.1872,0.1884,0.1885,0.1887,0.1902,0.1808,0.1449,0.1706,0.1476,0.0123,-0.1603,-0.3943,-0.678,-0.7521,-0.7883,-0.7877,-0.7872,-0.7867,-0.7823,-0.772,-0.7638,-0.7546,-0.7453,-0.735,-0.7269,-0.7269,-0.7323,-0.7328,-0.7334,-0.7328,-0.7404,-0.7355,-0.7263,-0.7241,-0.7241,-0.7247,-0.7483,-0.8088,-0.9788,-1.0167,-1.0972,-1.2533,-1.2729,-1.2739,-1.2994,-1.2956,-1.3117,-1.3419,-1.3532,-1.358,-1.3703,-1.3882,-1.4062,-1.4166,-1.4838,-1.5356,-1.5691,-1.6198,-1.6701,-1.7472,-1.7931,-1.9412,-2.1149,-2.125,-2.1846,-2.3247,-2.3562,-2.334,-2.334,-2.3451,-2.3753,-2.407,-2.4531,-2.4976,-2.5633,-2.5967,-2.7226,-2.8196,-2.9403,-3.1027,-3.3027,-3.4369,-3.5437,-3.6502,-3.7132,-3.7374,-3.7265,-3.7352,-3.7374,-3.7374,-3.7352,-3.7352,-3.7374,-3.733,-3.7221,-3.685,-3.6435,-3.6063,1.007,0.9706,0.9265,0.894,0.894,0.894,0.9022,0.9103,0.9001,0.7662,0.572,0.5378,0.4095,0.2273,0.1839,0.1861,0.1861,0.1894,0.1907,0.191,0.191,0.1921,0.1934,0.1943,0.1711,0.1356,0.1739,0.1237,-0.0986,-0.3817,-0.6407,-0.7643,-0.7883,-0.7872,-0.7867,-0.7823,-0.7703,-0.7611,-0.7486,-0.7361,-0.7209,-0.716,-0.7214,-0.7323,-0.7334,-0.7301,-0.7301,-0.7361,-0.7334,-0.7252,-0.7209,-0.7187,-0.716,-0.7154,-0.8139,-0.9781,-1.0062,-1.106,-1.2226,-1.2729,-1.2814,-1.3192,-1.3164,-1.3306,-1.3466,-1.3665,-1.3703,-1.3769,-1.3901,-1.4137,-1.4461,-1.5042,-1.5455,-1.5545,-1.5673,-1.6008,-1.697,-1.7847,-1.8938,-2.0134,-2.0552,-2.1686,-2.3262,-2.3451,-2.3213,-2.3467,-2.3594,-2.4086,-2.4436,-2.4897,-2.5466,-2.6303,-2.7101,-2.8415,-2.9401,-3.0067,-3.1809,-3.3723,-3.4511,-3.5232,-3.638,-3.7374,-3.7374,-3.7374,-3.7374,-3.7374,-3.7374,-3.7374,-3.7374,-3.7374,-3.7374,-3.7265,-3.7046,-3.6903,-3.6575,1.0189,0.9816,0.9485,0.9161,0.894,0.894,0.9022,0.913,0.9008,0.7668,0.5622,0.539,0.4014,0.231,0.1892,0.1915,0.1926,0.1943,0.1955,0.1954,0.1956,0.1959,0.197,0.1971,0.148,0.0993,0.1504,0.1123,-0.0,-0.0,-0.3576,-0.6421,-0.7541,-0.7888,-0.7867,-0.7807,-0.7709,-0.7644,-0.747,-0.7301,-0.7187,-0.716,-0.7225,-0.729,-0.7334,-0.735,-0.7383,-0.7421,-0.7399,-0.7307,-0.7301,-0.7258,-0.7182,-0.7154,-0.8152,-0.9293,-1.0082,-1.0731,-1.257,-1.2918,-1.3107,-1.3457,-1.3599,-1.3731,-1.3759,-1.375,-1.3788,-1.3967,-1.4024,-1.4175,-1.4449,-1.461,-1.4785,-1.4933,-1.5228,-1.559,-1.642,-1.7749,-1.8943,-2.0172,-2.0911,-2.2079,-2.3284,-2.3178,-2.3133,-2.3451,-2.3816,-2.4309,-2.4939,-2.5434,-2.6291,-2.7189,-2.8154,-2.934,-3.0229,-3.0938,-3.2283,-3.4113,-3.4757,-3.5253,-3.638,-3.7374,-3.7374,-3.7374,-3.7374,-3.7374,-3.7374,-3.7374,-3.7374,-3.7418,-3.7461,-3.744,-3.7352,-3.721,-3.6925,1.0412,0.9816,0.9265,0.9051,0.894,0.894,0.9069,0.9205,0.9042,0.7708,0.6018,0.5573,0.4088,0.2248,0.1924,0.1929,0.1939,0.1963,0.1977,0.1978,0.1978,0.1978,0.1981,0.1993,0.1501,0.1256,0.0888,0.0638,-0.0,-0.0,-0.0,-0.0,-0.6358,-0.7959,-0.791,-0.7828,-0.7763,-0.7655,-0.7475,-0.7323,-0.7252,-0.7203,-0.7187,-0.7241,-0.7307,-0.7339,-0.7345,-0.7388,-0.735,-0.7258,-0.723,-0.729,-0.7339,-0.7486,-0.8184,-0.9996,-1.0226,-1.1126,-1.257,-1.2928,-1.324,-1.3504,-1.3599,-1.3599,-1.3769,-1.3873,-1.3825,-1.3816,-1.4175,-1.4392,-1.4544,-1.4641,-1.4966,-1.5226,-1.5525,-1.6022,-1.6816,-1.7561,-1.8835,-2.006,-2.1453,-2.2488,-2.3347,-2.3304,-2.3403,-2.3705,-2.4118,-2.4611,-2.5445,-2.6291,-2.7161,-2.8286,-2.9198,-3.0095,-3.0901,-3.1633,-3.2631,-3.4258,-3.5253,-3.5746,-3.6746,-3.7374,-3.7374,-3.7374,-3.7374,-3.7374,-3.7374,-3.744,-3.7505,-3.7527,-3.7571,-3.7636,-3.768,-3.7517,-3.7613,1.0373,0.9816,0.9265,0.9051,0.894,0.894,0.9103,0.9334,0.911,0.7789,0.5981,0.4965,0.346,0.2299,0.1943,0.1945,0.1945,0.1966,0.1979,0.1985,0.1988,0.1994,0.1883,0.1898,0.1779,0.1907,0.0644,-0.0,-0.0,-0.0,-0.0,-0.0,-0.0,-0.6916,-0.7867,-0.7899,-0.7812,-0.7687,-0.754,-0.7437,-0.7377,-0.7301,-0.7269,-0.7285,-0.7317,-0.7339,-0.7274,-0.7334,-0.7334,-0.7296,-0.7328,-0.7426,-0.7524,-0.7702,-0.8573,-1.0059,-1.0547,-1.1342,-1.2641,-1.3192,-1.3221,-1.34,-1.3551,-1.3693,-1.3788,-1.3958,-1.4109,-1.4024,-1.4232,-1.4585,-1.4747,-1.4912,-1.5313,-1.5984,-1.6753,-1.7118,-1.7668,-1.8508,-1.9335,-2.0648,-2.1862,-2.2981,-2.3567,-2.351,-2.3705,-2.3991,-2.442,-2.496,-2.5971,-2.7161,-2.8151,-2.9258,-3.0054,-3.0771,-3.1176,-3.211,-3.3253,-3.4258,-3.5253,-3.6258,-3.6989,-3.7374,-3.7374,-3.7374,-3.7374,-3.7374,-3.7374,-3.7505,-3.7636,-3.7745,-3.7855,-3.8029,-3.8008,-3.7824,-3.8477,0.9831,0.9816,0.9706,0.9382,0.894,0.894,0.911,0.934,0.9191,0.7893,0.5725,0.3607,0.2544,0.1964,0.1969,0.1969,0.1973,0.1975,0.1992,0.2007,0.2018,0.2029,0.1916,0.1668,0.1417,0.1551,-0.0,-0.0,-0.0,-0.0,-0.0,-0.0,-0.0,-0.5866,-0.7219,-0.7992,-0.7867,-0.7758,-0.766,-0.7584,-0.7524,-0.7475,-0.7464,-0.747,-0.7491,-0.7497,-0.7491,-0.7497,-0.7497,-0.747,-0.7557,-0.7655,-0.7741,-0.7785,-0.8812,-1.0343,-1.0815,-1.1792,-1.3111,-1.3636,-1.3721,-1.3882,-1.3948,-1.3939,-1.3986,-1.4175,-1.4336,-1.4449,-1.4534,-1.4952,-1.5226,-1.5482,-1.5883,-1.6619,-1.7521,-1.8116,-1.8656,-1.9458,-2.0442,-2.1272,-2.2467,-2.3743,-2.4458,-2.4547,-2.4452,-2.4722,-2.5167,-2.5691,-2.7079,-2.819,-2.9008,-2.9917,-3.0696,-3.123,-3.1359,-3.2384,-3.3505,-3.4507,-3.55,-3.638,-3.7253,-3.7374,-3.7374,-3.7374,-3.7374,-3.7374,-3.7483,-3.7811,-3.8029,-3.8051,-3.8117,-3.8204,-3.8574,-3.872,-3.9798,1.0139,0.9816,0.9934,0.9596,0.894,0.894,0.9055,0.9198,0.9089,0.7812,0.5578,0.3956,0.2676,0.2216,0.1977,0.1977,0.1979,0.1996,0.2008,0.2022,0.2037,0.2052,0.1939,0.1693,0.1439,-0.0,-0.0,-0.0,-0.0,-0.0,-0.0,-0.0,-0.0,-0.6468,-0.7959,-0.7969,-0.7975,-0.7883,-0.778,-0.7671,-0.7638,-0.7551,-0.7519,-0.7519,-0.7519,-0.7519,-0.7524,-0.7595,-0.7622,-0.766,-0.7747,-0.7861,-0.7954,-0.7981,-0.9162,-1.0767,-1.1106,-1.2242,-1.3633,-1.4024,-1.3986,-1.4137,-1.4194,-1.4203,-1.4222,-1.4392,-1.4515,-1.4629,-1.4789,-1.526,-1.5356,-1.6121,-1.6954,-1.7564,-1.8154,-1.8863,-1.9676,-2.0381,-2.1463,-2.2378,-2.3626,-2.5028,-2.5405,-2.5628,-2.5532,-2.5516,-2.5961,-2.6519,-2.7833,-2.8901,-2.9639,-3.0343,-3.0991,-3.1506,-3.1635,-3.2638,-3.3882,-3.4881,-3.5746,-3.6502,-3.7374,-3.7374,-3.7374,-3.7374,-3.744,-3.7549,-3.7789,-3.8248,-3.8466,-3.851,-3.8401,-3.8248,-3.8719,-3.9552,-4.0999,1.0257,0.9816,0.9824,0.9521,0.8994,0.8954,0.9049,0.9184,0.913,0.7732,0.5594,0.4463,0.3171,0.2341,0.1977,0.1985,0.1993,0.2009,0.2029,0.2049,0.2068,0.1952,0.1833,0.1582,-0.0,-0.0,-0.0,-0.0,-0.0,-0.0,-0.0,-0.0,-0.4403,-0.6341,-0.7052,-0.7816,-0.8095,-0.8008,-0.7877,-0.7752,-0.7736,-0.7682,-0.7638,-0.7638,-0.7644,-0.7649,-0.7687,-0.7752,-0.7785,-0.7818,-0.7894,-0.8035,-0.8106,-0.8413,-0.9348,-1.0572,-1.1652,-1.2361,-1.3717,-1.4251,-1.4166,-1.426,-1.4383,-1.443,-1.4515,-1.4638,-1.4761,-1.4969,-1.5148,-1.5271,-1.5462,-1.631,-1.7297,-1.7741,-1.845,-1.9169,-2.0246,-2.1186,-2.2298,-2.3414,-2.4718,-2.5755,-2.6057,-2.6295,-2.6327,-2.6392,-2.6874,-2.7556,-2.8391,-2.9378,-3.0048,-3.0602,-3.112,-3.1506,-3.1873,-3.3126,-3.4258,-3.5253,-3.6114,-3.6868,-3.7374,-3.7374,-3.7396,-3.7396,-3.7527,-3.7745,-3.8051,-3.8423,-3.875,-3.9012,-3.8881,-3.8772,-3.9946,-4.0917,-4.2279,1.0147,0.9816,0.9603,0.9349,0.913,0.9001,0.9103,0.932,0.9354,0.8078,0.5964,0.4658,0.3321,0.2347,0.2227,0.1993,0.2009,0.202,0.2046,0.2087,0.2104,0.1725,0.1469,0.1073,-0.0,-0.0,-0.0,-0.0,-0.0,-0.0,-0.0,-0.0,-0.322,-0.5228,-0.4809,-0.7038,-0.8049,-0.8057,-0.7943,-0.7883,-0.7861,-0.7834,-0.7812,-0.7834,-0.7807,-0.7796,-0.7888,-0.7926,-0.7943,-0.7943,-0.8073,-0.8144,-0.8111,-0.8187,-0.9246,-1.106,-1.1441,-1.2515,-1.4217,-1.4295,-1.4421,-1.444,-1.4591,-1.4704,-1.4846,-1.495,-1.5026,-1.5205,-1.5328,-1.5721,-1.6059,-1.635,-1.712,-1.7917,-1.8626,-1.9819,-2.0913,-2.1956,-2.2979,-2.4389,-2.5498,-2.6279,-2.6613,-2.6883,-2.6994,-2.7322,-2.78,-2.8527,-2.935,-2.9709,-3.0361,-3.0861,-3.1249,-3.1744,-3.2384,-3.3505,-3.4632,-3.5623,-3.6524,-3.7175,-3.7418,-3.744,-3.744,-3.7461,-3.768,-3.7986,-3.827,-3.8554,-3.9034,-3.9515,-3.9515,-3.9765,-4.1007,-4.2185,-4.3374,1.0249,0.9816,0.9706,0.9525,0.938,0.9264,0.9264,0.9259,0.9319,0.8628,0.704,0.5798,0.4465,0.3467,0.237,0.2011,0.2022,0.2046,0.2076,0.2108,0.2128,0.2142,0.1615,0.0943,0.0404,-0.0,-0.0,-0.0,-0.0,-0.0,-0.0,-0.0,-0.2823,-0.5245,-0.6827,-0.8181,-0.8329,-0.8263,-0.8122,-0.7992,-0.7986,-0.7932,-0.7915,-0.7986,-0.7926,-0.7959,-0.8068,-0.8089,-0.8062,-0.8068,-0.8204,-0.8198,-0.8166,-0.8231,-0.9288,-1.1005,-1.1637,-1.2605,-1.4205,-1.4791,-1.4857,-1.4903,-1.4874,-1.4969,-1.4959,-1.5073,-1.5205,-1.5337,-1.5404,-1.5769,-1.5827,-1.6177,-1.6807,-1.7673,-1.8696,-2.0409,-2.1603,-2.258,-2.3722,-2.5397,-2.6628,-2.674,-2.6994,-2.7142,-2.7387,-2.7551,-2.8065,-2.9367,-3.0354,-3.0266,-3.049,-3.0991,-3.1506,-3.2001,-3.2765,-3.3934,-3.5105,-3.6244,-3.6838,-3.7427,-3.7549,-3.7636,-3.7855,-3.8073,-3.816,-3.827,-3.8772,-3.9274,-3.9668,-3.9995,-4.0188,-4.0784,-4.1923,-4.3094,-4.422,1.0398,0.9898,0.9787,0.9603,0.9456,0.9453,0.9432,0.9327,0.9523,0.891,0.7664,0.6465,0.5129,0.387,0.2646,0.2045,0.205,0.2069,0.2097,0.2124,0.2143,0.2017,0.1481,0.1077,0.0673,-0.0,-0.0,-0.0,-0.0,-0.0,-0.0,-0.0,-0.2819,-0.5644,-0.7503,-0.836,-0.8405,-0.8339,-0.8214,-0.8117,-0.81,-0.8068,-0.8046,-0.8079,-0.8073,-0.8073,-0.8166,-0.8176,-0.8133,-0.8187,-0.8209,-0.8231,-0.8236,-0.8503,-0.9319,-1.0819,-1.2427,-1.3328,-1.4631,-1.5196,-1.5205,-1.5186,-1.5233,-1.5167,-1.5054,-1.5082,-1.5215,-1.5337,-1.5422,-1.575,-1.5943,-1.6177,-1.6601,-1.7586,-1.9759,-2.1476,-2.2263,-2.3224,-2.451,-2.6114,-2.6946,-2.7105,-2.72,-2.7419,-2.7668,-2.7916,-2.8279,-2.9743,-3.106,-3.0822,-3.0786,-3.1192,-3.1783,-3.252,-3.3386,-3.4417,-3.5558,-3.6767,-3.7385,-3.792,-3.8073,-3.8248,-3.8488,-3.8685,-3.8772,-3.9012,-3.9558,-4.0017,-4.0105,-4.043,-4.0817,-4.1693,-4.2879,-4.4085,-4.531,1.0461,1.0055,0.9836,0.9695,0.9456,0.9387,0.9483,0.9605,0.9618,0.8966,0.7983,0.674,0.553,0.4164,0.2815,0.2206,0.2095,0.2104,0.2124,0.2143,0.2153,0.175,0.1481,0.1346,0.0673,-0.0,-0.0,-0.0,-0.0,-0.0,-0.0,-0.0,-0.0,-0.5781,-0.7641,-0.853,-0.8459,-0.8416,-0.8329,-0.8253,-0.8225,-0.8209,-0.8198,-0.8209,-0.8204,-0.8236,-0.828,-0.8263,-0.8198,-0.8187,-0.8193,-0.8225,-0.8242,-0.8247,-0.9607,-1.125,-1.3147,-1.4295,-1.5044,-1.5472,-1.5538,-1.5413,-1.5347,-1.5281,-1.5205,-1.5139,-1.5233,-1.5309,-1.5375,-1.5952,-1.6271,-1.649,-1.6696,-1.8835,-2.1201,-2.2462,-2.3098,-2.4086,-2.5348,-2.6456,-2.6909,-2.7169,-2.7334,-2.7584,-2.7949,-2.8443,-2.8969,-2.9952,-3.1099,-3.1322,-3.1192,-3.1338,-3.2097,-3.2952,-3.3992,-3.5031,-3.6328,-3.7441,-3.7967,-3.8532,-3.8707,-3.8816,-3.8925,-3.91,-3.9362,-3.9689,-3.9973,-4.0148,-4.0236,-4.0647,-4.1271,-4.25,-4.3606,-4.5305,-4.678,1.0239,1.0055,1.0183,0.9824,0.9511,0.9557,0.9686,0.9761,0.9761,0.9425,0.922,0.7953,0.6589,0.5293,0.4134,0.3142,0.2369,0.2113,0.2129,0.2144,0.2155,0.1346,0.0943,0.0673,0.0269,-0.0,-0.0,-0.0,-0.0,-0.0,-0.0,-0.0,-0.0,-0.5513,-0.7393,-0.8579,-0.8552,-0.8503,-0.841,-0.8388,-0.8345,-0.8307,-0.8329,-0.8361,-0.8301,-0.8367,-0.8497,-0.8334,-0.8291,-0.8405,-0.8285,-0.8269,-0.8367,-0.8574,-0.948,-1.1865,-1.3553,-1.4981,-1.5334,-1.5593,-1.5649,-1.5574,-1.5489,-1.5375,-1.5309,-1.5262,-1.5262,-1.5271,-1.5337,-1.5788,-1.6388,-1.6716,-1.7267,-1.9111,-2.1411,-2.3106,-2.3747,-2.4716,-2.5988,-2.6597,-2.7169,-2.7318,-2.7467,-2.7998,-2.8493,-2.8854,-2.9526,-3.0526,-3.1117,-3.1377,-3.1543,-3.1708,-3.2544,-3.3443,-3.4583,-3.563,-3.6936,-3.8143,-3.8716,-3.9122,-3.9209,-3.9296,-3.934,-3.9515,-3.9777,-3.9973,-4.0192,-4.0279,-4.0279,-4.1142,-4.1888,-4.3107,-4.4449,-4.615,-4.76,1.0401,1.0159,1.0119,0.9888,0.9571,0.9747,0.9822,0.9822,0.9822,0.9822,0.9605,0.8563,0.7243,0.5863,0.468,0.3433,0.2128,0.2131,0.214,0.2148,0.1885,0.1481,0.0943,-0.0,-0.0,-0.0,-0.0,-0.0,-0.0,-0.0,-0.0,-0.0,-0.0,-0.0,-0.6183,-0.7794,-0.86,-0.8568,-0.853,-0.8524,-0.8481,-0.8437,-0.8492,-0.8535,-0.8448,-0.8546,-0.8687,-0.8443,-0.8421,-0.8503,-0.8339,-0.8399,-0.8679,-0.9109,-0.9943,-1.2171,-1.3908,-1.5036,-1.5536,-1.5767,-1.5678,-1.5668,-1.5602,-1.5432,-1.5347,-1.5281,-1.5224,-1.5196,-1.5424,-1.574,-1.6277,-1.6976,-1.7906,-1.8967,-2.1262,-2.3623,-2.4596,-2.5427,-2.6188,-2.6902,-2.7334,-2.7467,-2.7733,-2.8263,-2.8888,-2.923,-3.0083,-3.1042,-3.1541,-3.1763,-3.1781,-3.1873,-3.2936,-3.3974,-3.5107,-3.6445,-3.7758,-3.8787,-3.9324,-3.9689,-3.9733,-3.9755,-3.9799,-3.9973,-4.0192,-4.0279,-4.0279,-4.0279,-4.0409,-4.1293,-4.2466,-4.3802,-4.5257,-4.6773,-4.812,1.064,1.0308,0.9877,0.9751,0.9788,0.9808,0.9822,0.9822,0.9822,0.9822,0.9605,0.8605,0.735,0.6026,0.4962,0.3581,0.254,0.2147,0.2147,0.2155,0.1346,0.1077,0.1077,-0.0,-0.0,-0.0,-0.0,-0.0,-0.0,-0.0,-0.0,-0.0,-0.0,-0.0,-0.4833,-0.7531,-0.8472,-0.8584,-0.8584,-0.859,-0.8649,-0.866,-0.8682,-0.8796,-0.8709,-0.8633,-0.8677,-0.8584,-0.8437,-0.8443,-0.8481,-0.8573,-0.9058,-0.9666,-1.0763,-1.1913,-1.3662,-1.4783,-1.54,-1.5739,-1.5843,-1.5853,-1.5687,-1.5555,-1.5479,-1.5309,-1.5215,-1.5271,-1.5348,-1.5982,-1.6661,-1.7064,-1.7829,-1.9627,-2.1925,-2.3686,-2.4567,-2.5546,-2.6635,-2.7334,-2.7467,-2.7733,-2.813,-2.8659,-2.9134,-2.9587,-3.0544,-3.1559,-3.2171,-3.2319,-3.2316,-3.2353,-3.3331,-3.4699,-3.5997,-3.7237,-3.8671,-3.9606,-4.0018,-4.0105,-4.0017,-4.0105,-4.0257,-4.0279,-4.0279,-4.0279,-4.0279,-4.0367,-4.0715,-4.1646,-4.2905,-4.4443,-4.5988,-4.7622,-4.8548,1.1216,1.0308,0.9764,0.9641,0.9792,0.9781,0.9822,0.9822,0.9822,0.9822,0.9727,0.9354,0.8106,0.6174,0.5736,0.4499,0.2684,0.229,0.2155,0.1885,0.1077,0.0673,-0.0,-0.0,-0.0,-0.0,-0.0,-0.0,-0.0,-0.0,-0.0,-0.0,-0.0,-0.0,-0.4294,-0.713,-0.8478,-0.8611,-0.8595,-0.8606,-0.8644,-0.8628,-0.8633,-0.8677,-0.8606,-0.8655,-0.8677,-0.8633,-0.8617,-0.866,-0.8682,-0.8818,-0.9035,-0.9462,-1.058,-1.1985,-1.2788,-1.3994,-1.51,-1.5555,-1.5796,-1.5772,-1.5791,-1.5772,-1.564,-1.5385,-1.5215,-1.5271,-1.561,-1.6226,-1.6848,-1.7152,-1.8046,-2.0285,-2.2717,-2.3747,-2.4804,-2.5916,-2.7051,-2.7467,-2.7733,-2.813,-2.8527,-2.9036,-2.9492,-3.0283,-3.1204,-3.2114,-3.2805,-3.3161,-3.3308,-3.3382,-3.4108,-3.5237,-3.6737,-3.7984,-3.9341,-3.9952,-4.0323,-4.0323,-4.0345,-4.0454,-4.0563,-4.0367,-4.0279,-4.041,-4.0563,-4.0694,-4.1154,-4.2198,-4.3833,-4.5622,-4.7369,-4.9035,-4.9346,1.1388,1.0204,0.9585,0.9593,0.9744,0.9761,0.9822,0.9822,0.9822,0.9822,0.9829,0.9671,0.8806,0.6787,0.6356,0.5149,0.3218,0.2423,0.229,0.1885,0.1346,0.0673,-0.0,-0.0,-0.0,-0.0,-0.0,-0.0,-0.0,-0.0,-0.0,-0.0,-0.0,-0.1479,-0.4297,-0.6996,-0.8644,-0.8666,-0.8617,-0.8611,-0.8628,-0.8622,-0.8671,-0.8687,-0.8677,-0.8687,-0.8687,-0.866,-0.8638,-0.872,-0.8769,-0.8867,-0.9024,-0.9139,-1.0272,-1.1545,-1.2506,-1.2966,-1.4629,-1.5526,-1.5621,-1.5725,-1.5848,-1.581,-1.5489,-1.5252,-1.5233,-1.531,-1.585,-1.6481,-1.6817,-1.7196,-1.8734,-2.0717,-2.3417,-2.5317,-2.5825,-2.6573,-2.72,-2.7334,-2.7733,-2.8395,-2.8922,-2.9578,-3.01,-3.0722,-3.1647,-3.2519,-3.3196,-3.407,-3.4105,-3.4719,-3.5508,-3.639,-3.7698,-3.8793,-3.9843,-4.0323,-4.0563,-4.0782,-4.0913,-4.0759,-4.0715,-4.0804,-4.076,-4.0804,-4.0956,-4.1198,-4.2058,-4.315,-4.4967,-4.6909,-4.8666,-5.0168,-5.0468,1.1444,1.0085,0.9551,0.9573,0.9724,0.9761,0.9822,0.9822,0.9822,0.9822,0.9822,0.9829,0.9131,0.7896,0.669,0.5388,0.4137,0.2689,0.2289,0.2021,0.2021,0.1077,-0.0,-0.0,-0.0,-0.0,-0.0,-0.0,-0.0,-0.0,-0.0,-0.0,-0.0,-0.1479,-0.4297,-0.6866,-0.8649,-0.866,-0.8649,-0.8649,-0.8655,-0.8649,-0.8715,-0.8742,-0.8731,-0.8655,-0.8677,-0.8666,-0.8595,-0.8677,-0.8812,-0.8959,-0.9057,-0.9155,-1.0498,-1.1538,-1.2123,-1.3254,-1.4846,-1.5536,-1.5593,-1.5668,-1.58,-1.5725,-1.5422,-1.53,-1.5281,-1.5623,-1.6175,-1.6643,-1.6989,-1.7748,-1.9446,-2.1437,-2.4145,-2.6377,-2.6745,-2.72,-2.72,-2.7334,-2.7998,-2.8659,-2.9316,-2.997,-3.0686,-3.1312,-3.2089,-3.2966,-3.3895,-3.4835,-3.5317,-3.6261,-3.7371,-3.8179,-3.8765,-3.9427,-4.0192,-4.0693,-4.1,-4.1284,-4.1481,-4.1571,-4.1549,-4.1437,-4.1415,-4.1306,-4.1483,-4.1727,-4.2857,-4.4263,-4.6279,-4.8284,-4.9975,-5.131,-5.1626,1.2003,0.9511,0.9435,0.9525,0.9828,0.9827,0.9822,0.9822,0.9822,0.9822,0.9822,0.9721,0.9113,0.8092,0.6682,0.5483,0.4536,0.2956,0.1885,0.1346,0.2021,0.1212,-0.0,-0.0,-0.0,-0.0,-0.0,-0.0,-0.0,-0.0,-0.0,-0.0,-0.0,-0.0,-0.4297,-0.6728,-0.8633,-0.8649,-0.8638,-0.8622,-0.8633,-0.8622,-0.8606,-0.8622,-0.8617,-0.86,-0.8606,-0.86,-0.859,-0.866,-0.8818,-0.9019,-0.9133,-0.9336,-1.0426,-1.1741,-1.219,-1.3497,-1.4728,-1.5522,-1.5725,-1.5772,-1.5886,-1.5886,-1.5649,-1.5634,-1.5817,-1.6287,-1.6807,-1.7324,-1.787,-1.8592,-2.0117,-2.249,-2.5065,-2.6339,-2.7153,-2.7334,-2.735,-2.7882,-2.8543,-2.935,-3.004,-3.0686,-3.133,-3.1902,-3.2491,-3.3471,-3.5201,-3.5877,-3.638,-3.7668,-3.8814,-3.9199,-3.939,-3.9819,-4.0432,-4.1,-4.1459,-4.1743,-4.2053,-4.2637,-4.2502,-4.2141,-4.183,-4.1655,-4.1878,-4.2345,-4.4153,-4.5764,-4.7807,-4.9596,-5.1347,-5.2312,-5.2631]},{"header":{"parameterUnit":"m.s-1","parameterCategory":1,"la1":31.0,"la2":29.5877,"lo1":-88.7671,"lo2":-86.6584,"dy":0.0162,"dx":0.0185,"nx":115,"ny":88,"refTime":"2024-03-07T18:00:00:Z","depth":0,"parameterNumber":3,"parameterNumberName":"V-component_of_WINDS"},"data":[0.0,0.0,0.0,0.0,0.0,0.0,0.0,0.0,0.0,0.0,0.0,0.0,0.0,0.0,0.0,0.0,0.0,0.0,0.0,0.0,0.0,0.0,0.0,0.0,0.0,0.0,0.0,0.0,0.0,0.0,0.0,0.0,0.0,0.0,0.0,0.0,0.0,0.0,0.0,0.0,0.0,0.0,0.0,0.0,0.0,0.0,0.0,0.0,0.0,0.0,0.0,0.0,0.0,0.0,0.0,0.0,0.0,0.0,0.0,0.0,0.0,0.0,0.0,0.0,0.0,0.0,0.0,0.0,0.0,0.0,0.0,0.0,0.0,0.0,0.0,0.0,0.0,0.0,0.0,0.0,0.0,0.0,0.0,0.0,0.0,0.0,0.0,0.0,0.0,0.0,0.0,0.0,0.0,0.0,0.0,0.0,0.0,0.0,0.0,0.0,0.0,0.0,0.0,0.0,0.0,0.0,0.0,0.0,0.0,0.0,0.0,0.0,0.0,0.0,0.0,0.0,0.0,0.0,0.0,0.0,0.0,0.0,0.0,0.0,0.0,0.0,0.0,0.0,0.0,0.0,0.0,0.0,0.0,0.0,0.0,0.0,0.0,0.0,0.0,0.0,0.0,0.0,0.0,0.0,0.0,0.0,0.0,0.0,0.0,0.0,0.0,0.0,0.0,0.0,0.0,0.0,0.0,0.0,0.0,0.0,0.0,0.0,0.0,0.0,0.0,0.0,0.0,0.0,0.0,0.0,0.0,0.0,0.0,0.0,0.0,0.0,0.0,0.0,0.0,0.0,0.0,0.0,0.0,0.0,0.0,0.0,0.0,0.0,0.0,0.0,0.0,0.0,0.0,0.0,0.0,0.0,0.0,0.0,0.0,0.0,0.0,0.0,0.0,0.0,0.0,0.0,0.0,0.0,0.0,0.0,0.0,0.0,0.0,0.0,0.0,0.0,0.0,0.0,0.0,0.0,0.0,0.0,0.0,0.0,0.0,0.0,0.0,0.0,0.0,0.0,0.0,0.0,0.0,0.0,0.0,0.0,0.0,0.0,0.0,0.0,0.0,0.0,0.0,0.0,0.0,0.0,0.0,0.0,0.0,0.0,0.0,0.0,0.0,0.0,0.0,0.0,0.0,0.0,0.0,0.0,0.0,0.0,0.0,0.0,0.0,0.0,0.0,0.0,0.0,0.0,0.0,0.0,0.0,0.0,0.0,0.0,0.0,0.0,0.0,0.0,0.0,0.0,0.0,0.0,0.0,0.0,0.0,0.0,0.0,0.0,0.0,0.0,0.0,0.0,0.0,0.0,0.0,0.0,0.0,0.0,0.0,0.0,0.0,0.0,0.0,0.0,0.0,0.0,0.0,0.0,0.0,0.0,0.0,0.0,0.0,0.0,0.0,0.0,0.0,0.0,0.0,0.0,0.0,0.0,0.0,0.0,0.0,0.0,0.0,0.0,0.0,0.0,0.0,0.0,0.0,0.0,0.0,0.0,0.0,0.0,0.0,0.0,0.0,0.0,0.0,0.0,0.0,0.0,0.0,0.0,0.0,0.0,0.0,0.0,0.0,0.0,0.0,0.0,0.0,0.0,0.0,0.0,0.0,0.0,0.0,0.0,0.0,0.0,0.0,0.0,0.0,0.0,0.0,0.0,0.0,0.0,0.0,0.0,0.0,0.0,0.0,0.0,0.0,0.0,0.0,0.0,0.0,0.0,0.0,0.0,0.0,0.0,0.0,0.0,0.0,0.0,0.0,0.0,0.0,0.0,0.0,0.0,0.0,0.0,0.0,0.0,0.0,0.0,0.0,0.0,0.0,0.0,0.0,0.0,0.0,0.0,0.0,0.0,0.0,0.0,0.0,0.0,0.0,0.0,0.0,0.0,0.0,0.0,0.0,0.0,0.0,0.0,0.0,0.0,0.0,0.0,0.0,0.0,0.0,0.0,0.0,0.0,0.0,0.0,0.0,0.0,0.0,0.0,0.0,0.0,0.0,0.0,0.0,0.0,0.0,0.0,0.0,0.0,0.0,0.0,0.0,0.0,0.0,0.0,0.0,0.0,0.0,0.0,0.0,0.0,0.0,0.0,0.0,0.0,0.0,0.0,0.0,0.0,0.0,0.0,0.0,0.0,0.0,0.0,0.0,0.0,0.0,0.0,0.0,0.0,0.0,0.0,0.0,0.0,0.0,0.0,0.0,0.0,0.0,0.0,0.0,0.0,0.0,0.0,0.0,0.0,0.0,0.0,0.0,0.0,0.0,0.0,0.0,0.0,0.0,0.0,0.0,0.0,0.0,0.0,0.0,0.0,0.0,0.0,0.0,0.0,0.0,0.0,0.0,0.0,0.0,0.0,0.0,0.0,0.0,0.0,0.0,0.0,0.0,0.0,0.0,0.0,0.0,0.0,0.0,0.0,0.0,0.0,0.0,0.0,0.0,0.0,0.0,0.0,0.0,0.0,0.0,0.0,0.0,0.0,0.0,0.0,0.0,0.0,0.0,0.0,0.0,0.0,0.0,0.0,0.0,0.0,0.0,0.0,0.0,0.0,0.0,0.0,0.0,0.0,0.0,0.0,0.0,0.0,0.0,0.0,0.0,0.0,0.0,0.0,0.0,0.0,0.0,0.0,0.0,0.0,0.0,0.0,0.0,0.0,0.0,0.0,0.0,0.0,0.0,0.0,0.0,0.0,0.0,0.0,0.0,0.0,0.0,0.0,0.0,0.0,0.0,0.0,0.0,0.0,0.0,0.0,0.0,0.0,0.0,0.0,0.0,0.0,0.0,0.0,0.0,0.0,0.0,0.0,0.0,0.0,0.0,0.0,0.0,0.0,0.0,0.0,0.0,0.0,0.0,0.0,0.0,0.0,0.0,0.0,0.0,0.0,0.0,0.0,0.0,0.0,0.0,0.0,0.0,0.0,0.0,0.0,0.0,0.0,0.0,0.0,0.0,0.0,0.0,0.0,0.0,0.0,0.0,0.0,0.0,0.0,0.0,0.0,0.0,0.0,0.0,0.0,0.0,0.0,0.0,0.0,0.0,0.0,0.0,0.0,0.0,0.0,0.0,0.0,0.0,0.0,0.0,0.0,0.0,0.0,0.0,0.0,0.0,0.0,0.0,0.0,0.0,0.0,0.0,0.0,0.0,0.0,0.0,0.0,0.0,0.0,0.0,0.0,0.0,0.0,0.0,0.0,0.0,0.0,0.0,0.0,0.0,0.0,0.0,0.0,0.0,0.0,0.0,0.0,0.0,0.0,0.0,0.0,0.0,0.0,0.0,0.0,0.0,0.0,0.0,0.0,0.0,0.0,0.0,0.0,0.0,0.0,0.0,0.0,0.0,0.0,0.0,0.0,0.0,0.0,0.0,0.0,0.0,0.0,0.0,0.0,0.0,0.0,0.0,0.0,0.0,0.0,0.0,0.0,0.0,0.0,0.0,0.0,0.0,0.0,0.0,0.0,0.0,0.0,0.0,0.0,0.0,0.0,0.0,0.0,0.0,0.0,0.0,0.0,0.0,0.0,0.0,0.0,0.0,0.0,0.0,0.0,0.0,0.0,0.0,0.0,0.0,0.0,0.0,0.0,0.0,0.0,0.0,0.0,0.0,0.0,0.0,0.0,0.0,0.0,0.0,0.0,0.0,0.0,0.0,0.0,0.0,0.0,0.0,0.0,0.0,0.0,0.0,0.0,0.0,0.0,0.0,0.0,0.0,0.0,0.0,0.0,0.0,0.0,0.0,0.0,0.0,0.0,0.0,0.0,0.0,0.0,0.0,0.0,0.0,0.0,0.0,0.0,0.0,0.0,0.0,0.0,0.0,0.0,0.0,0.0,0.0,0.0,0.0,0.0,0.0,0.0,0.0,0.0,0.0,0.0,0.0,0.0,0.0,0.0,0.0,0.0,0.0,0.0,0.0,0.0,0.0,0.0,0.0,0.0,0.0,0.0,0.0,0.0,0.0,0.0,0.0,0.0,0.0,0.0,0.0,0.0,0.0,0.0,0.0,0.0,0.0,0.0,0.0,0.0,0.0,0.0,0.0,0.0,0.0,0.0,0.0,0.0,0.0,0.0,0.0,0.0,0.0,0.0,0.0,0.0,0.0,0.0,0.0,0.0,0.0,0.0,0.0,0.0,0.0,0.0,0.0,0.0,0.0,0.0,0.0,0.0,0.0,0.0,0.0,0.0,0.0,0.0,0.0,0.0,0.0,0.0,0.0,0.0,0.0,0.0,0.0,0.0,0.0,0.0,0.0,0.0,0.0,0.0,0.0,0.0,-4.0838,0.0,0.0,0.0,0.0,0.0,0.0,0.0,0.0,0.0,0.0,0.0,0.0,0.0,0.0,0.0,0.0,0.0,0.0,0.0,0.0,0.0,0.0,0.0,0.0,0.0,0.0,0.0,0.0,0.0,0.0,0.0,0.0,0.0,0.0,0.0,0.0,0.0,0.0,0.0,0.0,0.0,0.0,0.0,0.0,0.0,0.0,0.0,0.0,0.0,0.0,0.0,0.0,0.0,0.0,0.0,0.0,0.0,0.0,0.0,0.0,0.0,0.0,0.0,0.0,0.0,0.0,0.0,0.0,0.0,0.0,0.0,0.0,0.0,0.0,0.0,0.0,0.0,0.0,0.0,0.0,0.0,0.0,0.0,0.0,0.0,0.0,0.0,0.0,0.0,0.0,0.0,0.0,0.0,0.0,0.0,0.0,0.0,0.0,0.0,0.0,0.0,0.0,0.0,0.0,0.0,0.0,0.0,0.0,0.0,0.0,-4.3558,-4.1088,-4.2783,-4.281,-4.0723,0.0,0.0,0.0,0.0,0.0,0.0,0.0,0.0,0.0,0.0,0.0,0.0,0.0,0.0,0.0,0.0,0.0,0.0,0.0,0.0,0.0,0.0,0.0,0.0,0.0,0.0,0.0,0.0,0.0,0.0,0.0,0.0,0.0,0.0,0.0,0.0,0.0,0.0,0.0,0.0,0.0,0.0,0.0,0.0,0.0,0.0,0.0,0.0,0.0,0.0,0.0,0.0,0.0,0.0,0.0,0.0,0.0,0.0,0.0,0.0,0.0,0.0,0.0,0.0,0.0,0.0,0.0,0.0,0.0,0.0,0.0,0.0,0.0,0.0,0.0,0.0,0.0,0.0,0.0,0.0,0.0,0.0,0.0,0.0,0.0,0.0,0.0,0.0,0.0,0.0,0.0,0.0,0.0,0.0,0.0,0.0,0.0,0.0,0.0,0.0,0.0,0.0,0.0,0.0,0.0,0.0,0.0,0.0,0.0,0.0,0.0,0.0,-4.3069,-4.3188,-4.1292,0.0,0.0,0.0,0.0,0.0,0.0,0.0,0.0,0.0,0.0,0.0,0.0,0.0,0.0,0.0,0.0,0.0,0.0,0.0,0.0,0.0,0.0,0.0,0.0,0.0,0.0,0.0,0.0,0.0,0.0,0.0,0.0,0.0,0.0,0.0,0.0,0.0,0.0,0.0,0.0,0.0,0.0,0.0,0.0,0.0,0.0,0.0,0.0,0.0,0.0,0.0,0.0,0.0,0.0,0.0,0.0,0.0,0.0,0.0,0.0,0.0,0.0,0.0,0.0,0.0,0.0,0.0,0.0,0.0,0.0,0.0,0.0,0.0,0.0,0.0,0.0,0.0,0.0,0.0,0.0,0.0,0.0,0.0,0.0,0.0,0.0,0.0,0.0,0.0,0.0,0.0,0.0,0.0,0.0,0.0,0.0,0.0,0.0,0.0,0.0,0.0,0.0,0.0,0.0,0.0,0.0,0.0,0.0,0.0,0.0,-4.2235,-4.3948,-4.3497,0.0,-4.2922,0.0,0.0,0.0,0.0,0.0,0.0,0.0,0.0,0.0,0.0,0.0,0.0,0.0,0.0,0.0,0.0,0.0,0.0,0.0,0.0,0.0,0.0,0.0,0.0,0.0,0.0,0.0,0.0,0.0,0.0,0.0,0.0,0.0,0.0,0.0,0.0,0.0,0.0,0.0,0.0,0.0,0.0,0.0,0.0,0.0,0.0,0.0,0.0,0.0,0.0,0.0,0.0,0.0,0.0,0.0,0.0,0.0,0.0,0.0,0.0,0.0,0.0,0.0,0.0,0.0,0.0,0.0,0.0,0.0,0.0,0.0,0.0,0.0,0.0,0.0,0.0,0.0,0.0,0.0,0.0,0.0,0.0,0.0,0.0,0.0,0.0,0.0,0.0,0.0,0.0,0.0,0.0,0.0,0.0,0.0,0.0,0.0,0.0,0.0,0.0,0.0,0.0,0.0,0.0,0.0,0.0,0.0,0.0,0.0,0.0,-4.1683,-4.2903,-4.2618,-4.2251,0.0,0.0,0.0,0.0,0.0,0.0,0.0,0.0,0.0,0.0,0.0,0.0,0.0,0.0,0.0,0.0,0.0,0.0,0.0,0.0,0.0,0.0,0.0,0.0,0.0,0.0,0.0,0.0,0.0,0.0,0.0,0.0,0.0,0.0,0.0,0.0,0.0,0.0,0.0,0.0,0.0,0.0,0.0,0.0,0.0,0.0,0.0,0.0,0.0,0.0,0.0,0.0,0.0,0.0,0.0,0.0,0.0,0.0,0.0,0.0,0.0,0.0,0.0,0.0,0.0,0.0,0.0,0.0,0.0,0.0,0.0,0.0,0.0,0.0,0.0,0.0,0.0,0.0,0.0,0.0,0.0,0.0,0.0,0.0,0.0,0.0,0.0,0.0,0.0,0.0,0.0,0.0,0.0,0.0,0.0,0.0,0.0,0.0,0.0,0.0,0.0,0.0,0.0,0.0,0.0,0.0,0.0,0.0,0.0,0.0,-4.1661,-4.1475,-4.2163,-4.1633,-4.1248,-4.1119,0.0,0.0,0.0,0.0,0.0,0.0,0.0,0.0,0.0,0.0,0.0,0.0,0.0,0.0,0.0,0.0,0.0,0.0,0.0,0.0,0.0,0.0,0.0,0.0,0.0,0.0,0.0,0.0,0.0,0.0,0.0,0.0,0.0,0.0,0.0,0.0,0.0,0.0,0.0,0.0,0.0,0.0,0.0,0.0,0.0,0.0,0.0,0.0,0.0,0.0,0.0,0.0,0.0,0.0,0.0,0.0,0.0,0.0,0.0,0.0,0.0,0.0,0.0,0.0,0.0,0.0,0.0,0.0,0.0,0.0,0.0,0.0,0.0,0.0,0.0,0.0,0.0,0.0,0.0,0.0,0.0,0.0,0.0,0.0,0.0,0.0,0.0,0.0,0.0,0.0,0.0,0.0,0.0,0.0,0.0,0.0,0.0,0.0,0.0,0.0,0.0,0.0,0.0,0.0,0.0,0.0,0.0,0.0,-4.3437,-4.2015,-4.1801,-4.2985,-4.0836,-4.0346,0.0,0.0,0.0,0.0,0.0,0.0,0.0,0.0,0.0,0.0,0.0,0.0,0.0,0.0,0.0,0.0,0.0,0.0,0.0,0.0,0.0,0.0,0.0,0.0,0.0,0.0,0.0,0.0,0.0,0.0,0.0,0.0,0.0,0.0,0.0,0.0,0.0,0.0,0.0,0.0,0.0,0.0,0.0,0.0,0.0,0.0,0.0,0.0,0.0,0.0,0.0,0.0,0.0,0.0,0.0,0.0,0.0,0.0,0.0,0.0,0.0,0.0,0.0,0.0,0.0,0.0,0.0,0.0,0.0,0.0,0.0,0.0,0.0,0.0,0.0,0.0,0.0,0.0,0.0,0.0,0.0,0.0,0.0,0.0,0.0,0.0,0.0,0.0,0.0,0.0,0.0,0.0,0.0,0.0,0.0,0.0,0.0,0.0,0.0,0.0,0.0,0.0,0.0,0.0,0.0,0.0,0.0,0.0,0.0,-4.1933,-4.1282,-4.1131,-4.1596,-4.023,-4.0048,0.0,0.0,0.0,0.0,0.0,0.0,0.0,0.0,0.0,0.0,0.0,0.0,0.0,0.0,0.0,0.0,0.0,0.0,0.0,0.0,0.0,0.0,0.0,0.0,0.0,0.0,0.0,0.0,0.0,0.0,0.0,0.0,0.0,0.0,0.0,0.0,0.0,0.0,0.0,0.0,0.0,0.0,0.0,0.0,0.0,0.0,0.0,0.0,0.0,0.0,0.0,0.0,0.0,0.0,0.0,0.0,0.0,0.0,0.0,0.0,0.0,0.0,0.0,0.0,0.0,0.0,0.0,0.0,0.0,0.0,0.0,0.0,0.0,0.0,0.0,0.0,0.0,0.0,0.0,0.0,0.0,0.0,0.0,0.0,0.0,0.0,0.0,0.0,0.0,0.0,0.0,0.0,0.0,0.0,0.0,0.0,0.0,0.0,0.0,0.0,0.0,0.0,0.0,0.0,0.0,0.0,0.0,0.0,0.0,-4.0824,0.0,-4.09,-4.0384,-3.9804,-3.9649,0.0,0.0,0.0,0.0,0.0,0.0,0.0,0.0,0.0,0.0,0.0,0.0,0.0,0.0,0.0,0.0,0.0,0.0,0.0,0.0,0.0,0.0,0.0,0.0,0.0,0.0,0.0,0.0,0.0,0.0,0.0,0.0,0.0,0.0,0.0,0.0,0.0,0.0,0.0,0.0,0.0,0.0,0.0,0.0,0.0,0.0,0.0,0.0,0.0,0.0,0.0,0.0,0.0,0.0,0.0,0.0,0.0,0.0,0.0,0.0,0.0,0.0,0.0,0.0,0.0,0.0,0.0,0.0,0.0,0.0,0.0,0.0,0.0,0.0,0.0,0.0,0.0,0.0,0.0,0.0,0.0,0.0,0.0,0.0,0.0,0.0,0.0,0.0,0.0,0.0,0.0,0.0,0.0,0.0,0.0,0.0,0.0,0.0,0.0,0.0,0.0,0.0,0.0,0.0,0.0,0.0,0.0,0.0,-3.9835,-4.0389,-4.1374,-4.1158,-3.9623,-3.9507,-3.9108,0.0,0.0,0.0,0.0,0.0,0.0,0.0,0.0,0.0,0.0,0.0,0.0,0.0,0.0,0.0,0.0,0.0,0.0,0.0,0.0,0.0,0.0,0.0,0.0,0.0,0.0,0.0,0.0,0.0,0.0,0.0,0.0,0.0,0.0,0.0,0.0,0.0,0.0,0.0,0.0,0.0,0.0,0.0,0.0,0.0,0.0,0.0,0.0,0.0,0.0,0.0,0.0,0.0,0.0,0.0,0.0,0.0,0.0,0.0,0.0,0.0,0.0,0.0,0.0,0.0,0.0,0.0,0.0,0.0,0.0,0.0,0.0,0.0,0.0,0.0,0.0,0.0,0.0,0.0,0.0,0.0,0.0,0.0,0.0,0.0,0.0,0.0,0.0,0.0,0.0,0.0,0.0,0.0,0.0,0.0,0.0,0.0,0.0,0.0,0.0,0.0,0.0,0.0,0.0,0.0,0.0,0.0,0.0,0.0,-3.9791,-4.0113,-4.0614,-4.1195,-3.9569,-3.9375,0.0,0.0,0.0,0.0,0.0,0.0,0.0,0.0,0.0,0.0,0.0,0.0,0.0,0.0,0.0,0.0,0.0,0.0,0.0,0.0,0.0,0.0,0.0,0.0,0.0,0.0,0.0,0.0,0.0,0.0,0.0,0.0,0.0,0.0,0.0,0.0,0.0,0.0,0.0,0.0,0.0,0.0,0.0,0.0,0.0,0.0,0.0,0.0,0.0,0.0,0.0,0.0,0.0,0.0,0.0,0.0,0.0,0.0,0.0,0.0,0.0,0.0,0.0,0.0,0.0,0.0,0.0,0.0,0.0,0.0,0.0,0.0,0.0,0.0,0.0,0.0,0.0,0.0,0.0,0.0,0.0,0.0,0.0,0.0,0.0,0.0,0.0,0.0,0.0,0.0,0.0,0.0,0.0,0.0,0.0,0.0,0.0,0.0,0.0,0.0,0.0,0.0,0.0,0.0,0.0,0.0,0.0,0.0,0.0,-4.0551,-4.0769,-4.1335,-4.2083,-4.0533,-4.03,-4.1528,0.0,0.0,0.0,0.0,0.0,0.0,0.0,0.0,0.0,0.0,0.0,0.0,0.0,0.0,0.0,0.0,0.0,0.0,0.0,0.0,0.0,0.0,0.0,0.0,0.0,0.0,0.0,0.0,0.0,0.0,0.0,0.0,0.0,0.0,0.0,0.0,0.0,0.0,0.0,0.0,0.0,0.0,0.0,0.0,0.0,0.0,0.0,0.0,0.0,0.0,0.0,0.0,0.0,0.0,0.0,0.0,0.0,0.0,0.0,0.0,0.0,0.0,0.0,0.0,0.0,0.0,0.0,0.0,0.0,0.0,0.0,0.0,0.0,0.0,0.0,0.0,0.0,0.0,0.0,0.0,0.0,0.0,0.0,0.0,0.0,0.0,0.0,0.0,0.0,0.0,0.0,0.0,0.0,0.0,0.0,0.0,0.0,0.0,0.0,0.0,0.0,0.0,0.0,0.0,0.0,0.0,0.0,0.0,-4.2175,-4.3066,-4.3129,-4.2272,-4.2167,-4.1757,0.0,0.0,0.0,0.0,0.0,0.0,0.0,0.0,0.0,0.0,0.0,0.0,0.0,0.0,0.0,0.0,0.0,0.0,0.0,0.0,0.0,0.0,0.0,0.0,0.0,0.0,0.0,0.0,0.0,0.0,0.0,0.0,0.0,0.0,0.0,0.0,0.0,0.0,0.0,0.0,0.0,0.0,0.0,0.0,0.0,0.0,0.0,0.0,0.0,0.0,0.0,0.0,0.0,0.0,0.0,0.0,0.0,0.0,0.0,0.0,0.0,0.0,0.0,0.0,0.0,0.0,0.0,0.0,0.0,0.0,0.0,0.0,0.0,0.0,0.0,0.0,0.0,0.0,0.0,0.0,0.0,0.0,0.0,0.0,0.0,0.0,0.0,0.0,0.0,0.0,0.0,0.0,0.0,0.0,0.0,0.0,0.0,0.0,0.0,0.0,0.0,0.0,0.0,0.0,0.0,0.0,0.0,0.0,0.0,-4.3141,-4.4497,-4.4858,-4.404,-4.283,-4.2364,0.0,0.0,0.0,0.0,0.0,0.0,0.0,0.0,0.0,0.0,0.0,0.0,0.0,0.0,0.0,0.0,0.0,0.0,0.0,0.0,0.0,0.0,0.0,0.0,0.0,0.0,0.0,0.0,0.0,0.0,0.0,0.0,0.0,0.0,0.0,0.0,0.0,0.0,0.0,0.0,0.0,0.0,0.0,0.0,0.0,0.0,0.0,0.0,0.0,0.0,0.0,0.0,0.0,0.0,0.0,0.0,0.0,0.0,0.0,0.0,0.0,0.0,0.0,0.0,0.0,0.0,0.0,0.0,0.0,0.0,0.0,0.0,0.0,0.0,0.0,0.0,0.0,0.0,0.0,0.0,0.0,0.0,0.0,0.0,0.0,0.0,0.0,0.0,0.0,0.0,0.0,0.0,0.0,0.0,0.0,0.0,0.0,0.0,0.0,0.0,0.0,0.0,0.0,0.0,0.0,0.0,0.0,0.0,-4.4395,-4.3967,-4.5207,-4.572,-4.5298,-4.3989,-4.3342,0.0,0.0,0.0,0.0,0.0,0.0,0.0,0.0,0.0,0.0,0.0,0.0,0.0,0.0,0.0,0.0,0.0,0.0,0.0,0.0,0.0,0.0,0.0,0.0,0.0,0.0,0.0,0.0,0.0,0.0,0.0,0.0,0.0,0.0,0.0,0.0,0.0,0.0,0.0,0.0,0.0,0.0,0.0,0.0,0.0,0.0,0.0,0.0,0.0,0.0,0.0,0.0,0.0,0.0,0.0,0.0,0.0,0.0,0.0,0.0,0.0,0.0,0.0,0.0,0.0,0.0,0.0,0.0,0.0,0.0,0.0,0.0,0.0,0.0,0.0,0.0,0.0,0.0,0.0,0.0,0.0,0.0,0.0,0.0,0.0,0.0,0.0,0.0,0.0,0.0,0.0,0.0,0.0,0.0,0.0,0.0,0.0,0.0,0.0,0.0,0.0,0.0,0.0,0.0,0.0,0.0,0.0,0.0,-4.455,-4.4703,-4.5413,-4.589,-4.6059,-4.5248,-4.4394,0.0,0.0,0.0,0.0,0.0,0.0,0.0,0.0,0.0,0.0,0.0,0.0,0.0,0.0,0.0,0.0,0.0,0.0,0.0,0.0,0.0,0.0,0.0,0.0,0.0,0.0,0.0,0.0,0.0,0.0,0.0,0.0,0.0,0.0,0.0,0.0,0.0,0.0,0.0,0.0,0.0,0.0,0.0,0.0,0.0,0.0,0.0,0.0,0.0,0.0,0.0,0.0,0.0,0.0,0.0,0.0,0.0,0.0,0.0,0.0,0.0,0.0,0.0,0.0,0.0,0.0,0.0,0.0,0.0,0.0,0.0,0.0,0.0,0.0,0.0,0.0,0.0,0.0,0.0,0.0,0.0,0.0,0.0,0.0,0.0,0.0,0.0,0.0,0.0,0.0,0.0,0.0,0.0,0.0,0.0,0.0,0.0,0.0,0.0,0.0,0.0,0.0,0.0,0.0,0.0,0.0,0.0,0.0,-4.3931,-4.4664,-4.488,-4.5304,-4.6059,-4.5289,-4.448,0.0,0.0,0.0,0.0,0.0,0.0,0.0,0.0,0.0,0.0,0.0,0.0,0.0,0.0,0.0,0.0,0.0,0.0,0.0,0.0,0.0,0.0,0.0,0.0,0.0,0.0,0.0,0.0,0.0,0.0,0.0,0.0,0.0,0.0,0.0,0.0,0.0,0.0,0.0,0.0,0.0,0.0,0.0,0.0,0.0,0.0,0.0,0.0,-4.5035,0.0,0.0,0.0,0.0,0.0,0.0,0.0,0.0,0.0,0.0,0.0,0.0,0.0,0.0,0.0,0.0,0.0,0.0,0.0,0.0,0.0,0.0,0.0,0.0,0.0,0.0,0.0,0.0,0.0,0.0,0.0,0.0,0.0,0.0,0.0,0.0,0.0,0.0,0.0,0.0,0.0,0.0,0.0,0.0,0.0,0.0,0.0,0.0,0.0,0.0,0.0,0.0,0.0,0.0,0.0,0.0,0.0,0.0,0.0,-4.2976,-4.3463,-4.4278,-4.4993,-4.5523,-4.5526,-4.4948,0.0,0.0,0.0,0.0,0.0,0.0,0.0,0.0,0.0,0.0,0.0,0.0,0.0,0.0,0.0,0.0,0.0,0.0,0.0,0.0,0.0,0.0,0.0,0.0,0.0,0.0,0.0,0.0,0.0,0.0,0.0,0.0,0.0,0.0,0.0,0.0,0.0,0.0,0.0,0.0,0.0,0.0,0.0,0.0,0.0,0.0,0.0,0.0,0.0,0.0,0.0,0.0,0.0,0.0,0.0,0.0,0.0,0.0,0.0,0.0,0.0,0.0,0.0,0.0,0.0,0.0,0.0,0.0,0.0,0.0,0.0,0.0,0.0,0.0,0.0,0.0,0.0,0.0,0.0,0.0,0.0,0.0,0.0,0.0,0.0,0.0,0.0,0.0,0.0,0.0,0.0,0.0,0.0,0.0,0.0,0.0,0.0,0.0,0.0,0.0,0.0,0.0,0.0,0.0,0.0,0.0,0.0,-4.1545,-4.1904,-4.2139,-4.3683,-4.4637,-4.4901,-4.5741,-4.5429,-4.3776,0.0,0.0,0.0,0.0,0.0,0.0,0.0,0.0,0.0,0.0,0.0,0.0,0.0,0.0,0.0,0.0,0.0,0.0,0.0,0.0,0.0,0.0,0.0,0.0,0.0,0.0,0.0,0.0,0.0,0.0,0.0,0.0,0.0,0.0,0.0,0.0,0.0,0.0,-4.5547,-4.5348,0.0,0.0,0.0,0.0,0.0,0.0,0.0,0.0,-4.5658,0.0,0.0,0.0,0.0,0.0,0.0,0.0,0.0,0.0,0.0,0.0,0.0,0.0,0.0,0.0,0.0,0.0,0.0,0.0,0.0,0.0,0.0,0.0,0.0,0.0,0.0,0.0,0.0,0.0,0.0,0.0,0.0,0.0,0.0,0.0,0.0,0.0,0.0,0.0,0.0,0.0,0.0,0.0,0.0,0.0,0.0,0.0,0.0,0.0,0.0,0.0,0.0,0.0,0.0,0.0,0.0,-4.1777,-4.1274,-4.1358,-4.2157,-4.3182,-4.4067,-4.4882,-4.5813,-4.5489,-4.3815,0.0,0.0,0.0,0.0,0.0,0.0,0.0,0.0,0.0,0.0,0.0,0.0,0.0,0.0,0.0,0.0,0.0,0.0,0.0,0.0,0.0,0.0,0.0,0.0,0.0,0.0,0.0,0.0,0.0,0.0,0.0,0.0,0.0,0.0,0.0,0.0,0.0,0.0,0.0,-4.6801,-4.715,0.0,0.0,0.0,0.0,0.0,0.0,0.0,0.0,-4.5887,0.0,0.0,0.0,0.0,0.0,0.0,0.0,0.0,0.0,0.0,0.0,0.0,0.0,0.0,0.0,0.0,0.0,0.0,0.0,0.0,0.0,0.0,0.0,0.0,0.0,0.0,0.0,0.0,0.0,0.0,0.0,0.0,0.0,0.0,0.0,0.0,0.0,0.0,0.0,0.0,0.0,0.0,0.0,0.0,0.0,0.0,0.0,0.0,0.0,0.0,0.0,0.0,0.0,0.0,0.0,-4.1313,-4.1042,-4.1059,-4.156,-4.2871,-4.3779,-4.4258,-4.5143,-4.5051,0.0,0.0,0.0,0.0,0.0,0.0,0.0,0.0,0.0,0.0,0.0,0.0,0.0,0.0,0.0,0.0,0.0,0.0,0.0,0.0,0.0,0.0,0.0,0.0,0.0,0.0,0.0,0.0,0.0,0.0,0.0,0.0,0.0,0.0,0.0,0.0,0.0,0.0,0.0,0.0,-4.7196,-4.7914,-4.7169,0.0,0.0,0.0,0.0,0.0,0.0,-4.6006,-4.5499,0.0,0.0,0.0,0.0,0.0,0.0,0.0,0.0,0.0,0.0,0.0,0.0,0.0,0.0,0.0,0.0,0.0,0.0,0.0,0.0,0.0,0.0,0.0,0.0,0.0,0.0,0.0,0.0,0.0,0.0,0.0,0.0,0.0,0.0,0.0,0.0,0.0,0.0,0.0,0.0,0.0,0.0,0.0,0.0,0.0,0.0,0.0,0.0,0.0,0.0,0.0,0.0,0.0,0.0,0.0,-4.081,-4.0887,-4.0925,-4.0967,-4.2506,-4.3474,-4.3709,-4.4555,-4.4582,0.0,0.0,0.0,0.0,0.0,0.0,0.0,0.0,0.0,0.0,0.0,0.0,0.0,0.0,0.0,0.0,0.0,0.0,0.0,0.0,0.0,0.0,0.0,0.0,0.0,0.0,0.0,0.0,0.0,0.0,0.0,0.0,0.0,0.0,0.0,0.0,0.0,0.0,0.0,0.0,0.0,-4.8567,-4.8267,-4.8458,0.0,0.0,0.0,0.0,-4.5868,-4.6192,0.0,0.0,0.0,0.0,0.0,0.0,0.0,0.0,0.0,0.0,0.0,0.0,0.0,0.0,0.0,0.0,0.0,0.0,0.0,0.0,0.0,0.0,0.0,0.0,0.0,0.0,0.0,0.0,0.0,0.0,0.0,0.0,0.0,0.0,0.0,0.0,0.0,0.0,0.0,0.0,0.0,0.0,0.0,0.0,0.0,0.0,0.0,0.0,0.0,0.0,0.0,0.0,0.0,0.0,0.0,0.0,-4.0887,-4.0977,-4.0976,-4.1016,-4.1936,-4.2851,-4.3693,-4.4543,-4.4582,0.0,0.0,0.0,0.0,0.0,0.0,0.0,0.0,0.0,0.0,0.0,0.0,0.0,0.0,0.0,0.0,0.0,0.0,0.0,0.0,0.0,0.0,0.0,0.0,0.0,0.0,0.0,0.0,0.0,0.0,0.0,0.0,0.0,0.0,0.0,0.0,0.0,0.0,0.0,0.0,0.0,-4.9714,-4.8382,-4.9387,-4.9515,0.0,0.0,-4.7908,-4.7495,-4.8517,0.0,0.0,0.0,0.0,0.0,0.0,0.0,0.0,0.0,0.0,0.0,0.0,0.0,0.0,0.0,0.0,0.0,0.0,0.0,0.0,0.0,0.0,0.0,0.0,0.0,0.0,0.0,0.0,0.0,0.0,0.0,0.0,0.0,0.0,0.0,0.0,0.0,0.0,0.0,0.0,0.0,0.0,0.0,0.0,0.0,0.0,0.0,0.0,0.0,0.0,0.0,0.0,0.0,0.0,0.0,-4.0887,-4.0887,-4.1016,-4.1034,-4.1028,-4.238,-4.3275,-4.3687,-4.4075,-4.3829,0.0,0.0,0.0,0.0,0.0,0.0,0.0,0.0,0.0,0.0,0.0,0.0,0.0,0.0,0.0,0.0,0.0,0.0,0.0,0.0,0.0,0.0,0.0,0.0,0.0,0.0,0.0,0.0,0.0,0.0,0.0,0.0,0.0,0.0,0.0,0.0,0.0,0.0,0.0,0.0,0.0,0.0,-4.847,-4.9661,0.0,0.0,0.0,-4.8089,-4.8416,0.0,0.0,0.0,0.0,0.0,0.0,0.0,0.0,0.0,0.0,0.0,0.0,0.0,0.0,0.0,0.0,0.0,0.0,0.0,0.0,0.0,0.0,0.0,0.0,0.0,0.0,0.0,0.0,0.0,0.0,0.0,0.0,0.0,0.0,0.0,0.0,0.0,0.0,0.0,0.0,0.0,0.0,0.0,0.0,0.0,0.0,0.0,0.0,0.0,0.0,0.0,0.0,0.0,0.0,0.0,0.0,0.0,-4.0616,-4.0936,-4.1093,-4.1037,-4.2341,-4.3123,-4.3314,-4.3314,0.0,0.0,0.0,0.0,0.0,0.0,0.0,0.0,0.0,0.0,0.0,0.0,0.0,0.0,0.0,0.0,0.0,0.0,0.0,0.0,0.0,0.0,0.0,0.0,0.0,0.0,0.0,-4.5128,0.0,0.0,0.0,0.0,0.0,0.0,0.0,0.0,0.0,0.0,0.0,0.0,0.0,0.0,-5.1063,-4.931,-5.0468,-5.1409,0.0,0.0,-4.8509,-4.9227,-4.9856,-4.926,0.0,0.0,0.0,0.0,0.0,0.0,0.0,0.0,0.0,0.0,0.0,0.0,0.0,0.0,0.0,0.0,0.0,0.0,0.0,0.0,0.0,0.0,0.0,0.0,0.0,0.0,0.0,0.0,0.0,0.0,0.0,0.0,0.0,0.0,0.0,0.0,0.0,0.0,0.0,0.0,0.0,0.0,0.0,0.0,0.0,0.0,0.0,0.0,0.0,0.0,0.0,0.0,0.0,0.0,0.0,-3.9881,-4.0721,-4.117,-4.1094,-4.1133,-4.1572,-4.2362,-4.2323,-4.1949,0.0,0.0,0.0,0.0,0.0,0.0,0.0,0.0,0.0,0.0,0.0,0.0,0.0,0.0,0.0,0.0,0.0,0.0,0.0,0.0,0.0,0.0,0.0,0.0,0.0,0.0,0.0,0.0,0.0,0.0,0.0,0.0,0.0,0.0,0.0,0.0,0.0,0.0,0.0,0.0,0.0,-5.1615,-5.1472,-5.2341,-5.2739,0.0,0.0,-4.9883,-5.009,-5.181,-5.1678,-4.7504,0.0,0.0,0.0,0.0,0.0,0.0,0.0,0.0,0.0,0.0,0.0,0.0,0.0,0.0,0.0,0.0,0.0,0.0,0.0,0.0,0.0,0.0,0.0,0.0,0.0,0.0,0.0,0.0,0.0,0.0,0.0,0.0,0.0,0.0,0.0,0.0,0.0,0.0,0.0,0.0,0.0,0.0,0.0,0.0,0.0,0.0,0.0,0.0,0.0,0.0,0.0,0.0,0.0,-4.0024,-4.0578,-4.1007,-4.1155,-4.1108,-4.1565,-4.1957,-4.2216,-4.2226,-4.179,0.0,0.0,0.0,0.0,0.0,0.0,0.0,0.0,0.0,0.0,0.0,0.0,0.0,0.0,0.0,0.0,0.0,0.0,0.0,0.0,0.0,0.0,0.0,0.0,0.0,0.0,0.0,0.0,-4.6013,-4.5847,-4.489,0.0,0.0,0.0,0.0,0.0,0.0,0.0,0.0,0.0,0.0,-5.209,-5.1105,-5.2682,0.0,0.0,-5.2264,-5.1092,-5.2009,-5.1777,-5.0551,-4.8001,-4.7139,0.0,0.0,0.0,0.0,0.0,0.0,0.0,0.0,0.0,0.0,0.0,0.0,0.0,0.0,0.0,0.0,0.0,0.0,0.0,0.0,0.0,0.0,0.0,0.0,0.0,0.0,0.0,0.0,0.0,0.0,0.0,0.0,0.0,0.0,0.0,0.0,0.0,0.0,0.0,0.0,0.0,0.0,0.0,0.0,0.0,0.0,0.0,0.0,0.0,0.0,0.0,0.0,-3.9846,-4.074,-4.1015,-4.1143,-4.1105,-4.1607,-4.184,-4.1814,-4.18,-4.1334,0.0,0.0,0.0,0.0,0.0,0.0,0.0,0.0,0.0,0.0,0.0,0.0,0.0,0.0,0.0,0.0,0.0,0.0,0.0,0.0,0.0,0.0,0.0,0.0,0.0,0.0,0.0,0.0,-4.5963,-4.5556,-4.4257,0.0,0.0,0.0,0.0,0.0,0.0,0.0,0.0,0.0,0.0,-5.2782,-5.1757,-5.3182,-5.4426,-5.446,-5.2501,-5.1292,-5.2274,-5.138,-4.9955,-4.8266,0.0,0.0,0.0,0.0,0.0,0.0,0.0,0.0,0.0,0.0,0.0,0.0,0.0,0.0,0.0,0.0,0.0,0.0,0.0,0.0,0.0,0.0,0.0,0.0,0.0,0.0,0.0,0.0,0.0,0.0,-4.3693,0.0,0.0,0.0,0.0,0.0,0.0,0.0,0.0,0.0,0.0,0.0,0.0,0.0,0.0,0.0,0.0,0.0,0.0,0.0,0.0,0.0,0.0,-3.8999,-3.9922,-4.0743,-4.1105,-4.1093,-4.0977,-4.0938,-4.0938,-4.0861,-4.0435,-3.9572,0.0,0.0,0.0,0.0,0.0,0.0,0.0,0.0,0.0,0.0,0.0,0.0,0.0,0.0,0.0,0.0,0.0,0.0,0.0,0.0,0.0,0.0,0.0,0.0,0.0,0.0,-4.5179,-4.5402,-4.5455,0.0,0.0,0.0,0.0,0.0,0.0,0.0,0.0,0.0,0.0,-5.2952,-5.3939,-5.3886,-5.4126,-5.3836,-5.2511,-5.0986,-5.0085,-5.0322,-5.085,-5.0518,0.0,0.0,0.0,0.0,0.0,0.0,0.0,0.0,0.0,0.0,0.0,0.0,0.0,0.0,0.0,0.0,0.0,0.0,0.0,0.0,0.0,0.0,0.0,0.0,0.0,0.0,0.0,-4.36,-4.3634,0.0,0.0,0.0,0.0,0.0,0.0,0.0,0.0,0.0,0.0,0.0,-4.5163,-4.54,0.0,0.0,0.0,0.0,0.0,0.0,0.0,0.0,0.0,0.0,0.0,0.0,-3.9258,-4.0657,-4.0981,-4.1054,-4.0977,-4.0926,-4.0887,-4.0848,-4.081,-4.0397,-3.9545,0.0,0.0,0.0,0.0,0.0,0.0,0.0,0.0,0.0,0.0,0.0,0.0,0.0,0.0,0.0,0.0,0.0,0.0,0.0,0.0,0.0,0.0,0.0,0.0,0.0,-4.7188,0.0,0.0,0.0,0.0,0.0,0.0,0.0,0.0,0.0,0.0,0.0,-4.8887,-4.9305,-5.1615,-5.31,-5.2549,-5.3541,-5.4156,0.0,0.0,0.0,0.0,0.0,0.0,0.0,0.0,0.0,0.0,0.0,0.0,0.0,0.0,-5.3902,-5.1155,-5.014,-4.958,-4.9127,0.0,0.0,0.0,0.0,0.0,0.0,0.0,0.0,0.0,0.0,0.0,0.0,0.0,0.0,-4.3192,0.0,-4.3656,0.0,0.0,0.0,0.0,0.0,0.0,0.0,0.0,-4.4077,-4.4825,-4.5361,-4.5532,-4.5312,0.0,-4.5486,-4.4949,0.0,0.0,0.0,0.0,0.0,0.0,0.0,0.0,-3.9714,-4.1028,-4.1313,-4.1274,-4.0926,-4.1158,-4.1119,-4.081,-4.081,-4.0655,-4.0384,-4.0346,-4.05,0.0,0.0,0.0,0.0,0.0,0.0,0.0,0.0,0.0,0.0,0.0,0.0,0.0,0.0,0.0,0.0,0.0,0.0,0.0,0.0,0.0,0.0,0.0,-4.697,0.0,0.0,0.0,0.0,0.0,0.0,0.0,0.0,0.0,-4.7823,-4.9026,-5.0044,-5.0222,-5.1744,-5.2779,-5.2529,0.0,0.0,0.0,0.0,0.0,0.0,0.0,-5.085,-5.1545,-5.0905,-5.0851,-5.2627,-5.4196,-5.5274,-5.528,0.0,0.0,-5.3363,-5.2183,-5.1523,-5.1297,-5.1232,-5.1297,-5.1556,-5.1394,-5.096,0.0,0.0,0.0,0.0,0.0,0.0,0.0,0.0,-4.2423,-4.2558,0.0,-4.3564,0.0,0.0,0.0,0.0,0.0,-4.3138,0.0,0.0,-4.5163,-4.5603,-4.5603,-4.5603,-4.5665,-4.58,-4.5905,-4.5958,-4.5936,-4.4443,0.0,0.0,0.0,0.0,0.0,0.0,-4.0333,-4.1248,-4.1854,-4.1777,-4.1042,-4.1622,-4.1583,-4.0848,-4.081,-4.1158,-4.1932,-4.1957,-4.2383,-4.3195,-4.3119,0.0,0.0,0.0,0.0,0.0,0.0,0.0,0.0,0.0,0.0,0.0,0.0,0.0,0.0,0.0,0.0,0.0,0.0,0.0,0.0,-4.6241,0.0,0.0,0.0,0.0,0.0,0.0,0.0,0.0,0.0,0.0,-4.8856,-4.997,-5.1682,-5.3528,0.0,0.0,0.0,0.0,-5.358,-5.2373,-5.2812,-5.3096,-5.2624,-5.297,-5.3169,-5.2605,0.0,0.0,-5.4724,-5.5653,-5.6057,-5.497,-5.6302,-5.7547,-5.745,-5.5636,-5.4567,-5.5086,-5.4146,-5.3693,-5.4244,-5.3793,-5.3013,-4.526,0.0,0.0,0.0,0.0,-4.4085,-4.3716,-4.3232,-4.3369,-4.3558,-4.3826,-4.4109,0.0,0.0,0.0,0.0,0.0,0.0,-4.4239,-4.4355,-4.5201,-4.5654,-4.5742,-4.5742,-4.5775,-4.5914,-4.7203,-4.7553,-4.7008,-4.7249,-4.5663,-4.2369,0.0,0.0,0.0,0.0,-4.2893,-4.3581,-4.3233,-4.2885,-4.2628,-4.1661,-4.1042,-4.081,-4.0654,-4.0998,-4.1846,-4.1755,-4.2091,-4.2898,-4.2885,0.0,0.0,0.0,0.0,0.0,0.0,0.0,0.0,0.0,0.0,0.0,0.0,0.0,0.0,0.0,0.0,0.0,0.0,0.0,-4.6999,-4.7343,-4.7304,0.0,0.0,0.0,0.0,0.0,0.0,0.0,0.0,0.0,-5.1236,-5.1861,-5.213,0.0,0.0,-5.3385,-5.2493,-5.3867,-5.4851,-5.45,-5.4677,0.0,-5.473,-5.3961,-5.3699,-5.456,-5.5665,-5.6351,-5.6059,-5.6219,-5.6543,-5.6658,-5.721,-5.7547,-5.7482,-5.6284,-5.528,-5.5345,-5.5053,-5.5053,-5.5733,-5.5679,-5.5429,-4.6544,-4.5002,-4.5626,-4.5626,-4.5149,-4.4819,-4.445,-4.4076,-4.3919,-4.3955,-4.4308,-4.4355,-4.4094,-4.3649,-4.4241,0.0,0.0,0.0,-4.4816,-4.4816,-4.5401,-4.5712,-4.58,-4.5829,-4.5875,-4.6065,-4.7478,-4.81,-4.7996,-4.8892,-4.7811,-4.4917,0.0,0.0,-4.3141,-4.4034,-4.4708,-4.5153,-4.4974,-4.4369,-4.3324,-4.1661,-4.0952,-4.117,-4.1099,-4.154,-4.2667,-4.2637,-4.2966,-4.3771,-4.379,-4.3558,0.0,0.0,0.0,0.0,0.0,0.0,0.0,0.0,0.0,0.0,0.0,-4.4876,-4.4876,0.0,0.0,0.0,-4.644,-4.6948,-4.7437,-4.7709,0.0,0.0,0.0,0.0,0.0,0.0,0.0,-4.9872,-5.095,-5.1943,-5.2606,-5.3103,-5.3202,-5.2559,-5.3314,-5.3885,-5.3599,0.0,-5.5905,-5.6304,-5.6353,-5.6438,-5.6464,-5.5475,-5.5048,-5.6018,-5.6671,-5.707,-5.695,-5.6931,-5.6964,-5.7126,-5.7385,-5.7482,-5.7191,-5.6413,-5.6057,-5.6543,-5.6219,-5.6187,-5.7126,-5.7106,-5.6828,-4.8086,-4.7352,-4.6544,-4.614,-4.592,-4.5222,-4.4925,-4.4881,-4.4243,-4.4123,-4.4355,-4.4438,-4.4209,-4.3771,-4.3992,0.0,-4.4153,-4.513,-4.5603,-4.562,-4.5742,-4.5814,-4.5841,-4.5964,-4.6026,-4.6151,-4.7118,-4.8014,-4.8802,-4.9683,-4.9658,-4.8794,-4.7338,-4.6494,-4.6268,-4.6205,-4.6197,-4.6235,-4.6868,-4.5993,-4.344,-4.1777,-4.1222,-4.1863,-4.1809,-4.2514,-4.4001,-4.4059,-4.448,-4.5285,-4.5218,-4.4789,-4.4064,0.0,0.0,0.0,0.0,0.0,0.0,0.0,0.0,0.0,0.0,0.0,0.0,0.0,0.0,0.0,-4.6967,0.0,-4.7701,-4.7705,0.0,0.0,0.0,-4.8587,-4.9046,-5.0379,-5.1285,-5.1285,0.0,0.0,-5.323,-5.3835,-5.4522,-5.5382,-5.4723,-5.4741,-5.6204,-5.649,-5.6872,-5.7656,-5.788,-5.7878,-5.759,-5.7022,-5.6603,-5.6869,-5.7003,-5.7037,-5.7293,-5.7288,-5.7093,-5.6543,-5.6996,-5.7255,-5.6543,-5.6413,-5.6899,-5.8065,-5.7352,-5.6867,-5.7935,-5.7793,-5.7106,-5.0105,-4.9848,-4.9081,-4.8051,-4.6801,-4.6905,-4.6294,-4.5339,-4.5348,-4.5229,-4.4988,-4.4988,-4.5065,-4.5151,-4.5208,-4.5227,-4.5225,-4.5491,-4.5671,-4.5742,-4.5786,-4.5879,-4.6074,-4.6722,-4.6775,-4.6401,-4.8435,-4.8907,-4.806,-4.9988,-5.0564,-4.973,-4.9846,-4.8952,-4.7071,-4.8245,-4.8841,-4.8802,-4.8353,-4.6844,-4.4369,-4.2589,-4.2072,-4.2749,-4.2036,-4.2373,-4.3861,-4.3869,-4.4182,-4.4981,-4.501,-4.4872,-4.4683,-4.4825,0.0,0.0,0.0,0.0,0.0,0.0,0.0,0.0,0.0,-4.5179,-4.5862,0.0,-4.5761,0.0,-4.8322,-4.8484,-4.8521,-4.8787,0.0,0.0,-4.9621,-5.02,-5.0677,-5.1067,-5.1285,-5.1285,-5.2009,-5.2712,-5.3291,-5.3936,-5.484,-5.6098,-5.6027,-5.599,-5.6383,-5.7453,-5.8217,-5.8449,-5.8932,-5.9029,-5.7844,-5.715,-5.6636,-5.6599,-5.6395,-5.6334,-5.6255,-5.6042,-5.5863,-5.5733,-5.6251,-5.6413,-5.583,-5.6089,-5.6543,-5.6899,-5.6705,-5.6575,-5.6931,-5.6899,-5.6556,-5.1176,-5.0772,-5.0079,-4.9307,-4.8492,-4.833,-4.7826,-4.7056,-4.6666,-4.6404,-4.6271,-4.5648,-4.5457,-4.5586,-4.5586,-4.5586,-4.5603,-4.5665,-4.5703,-4.5814,-4.6278,-4.6358,-4.6137,-4.7067,-4.7055,-4.6378,-4.8135,-4.8496,-4.773,-4.967,-5.0416,-4.9937,-5.0627,-5.0271,-4.8957,-4.9807,-5.0078,-4.9668,-4.8469,-4.7154,-4.5722,-4.3617,-4.2834,-4.3513,-4.2948,-4.3174,-4.4296,-4.4279,-4.4421,-4.4876,-4.4876,-4.4876,-4.4876,-4.4876,-4.4876,0.0,0.0,0.0,0.0,0.0,0.0,0.0,0.0,0.0,0.0,0.0,-4.6152,-4.7758,-4.8444,-4.8751,-4.8532,-4.9228,-4.9874,-5.018,-5.066,-5.1158,-5.1765,-5.1828,-5.1828,-5.1828,-5.2226,-5.2723,-5.3279,-5.3972,-5.4768,-5.5866,-5.6223,-5.6525,-5.6918,-5.7703,-5.831,-5.8645,-5.8885,-5.8462,-5.6952,-5.6655,-5.6354,-5.5589,-5.5554,-5.5418,-5.4966,-5.4922,-5.4956,-5.5021,-5.5539,-5.5895,-5.5507,-5.5701,-5.5992,-5.6025,-5.6025,-5.6122,-5.6413,-5.6284,-5.5845,-5.1845,-5.1185,-5.0416,-5.0265,-5.0393,-4.9589,-4.9127,-4.8889,-4.7775,-4.7362,-4.7346,-4.6128,-4.5586,-4.5586,-4.5586,-4.5603,-4.5637,-4.5747,-4.5815,-4.588,-4.6813,-4.6846,-4.6196,-4.7138,-4.7159,-4.6339,-4.74,-4.7769,-4.7535,-4.9224,-4.9964,-4.9826,-5.0555,-5.0867,-5.0751,-5.0867,-5.0558,-4.9861,-4.8159,-4.727,-4.7231,-4.4639,-4.3585,-4.4211,-4.4055,-4.4227,-4.4838,-4.4876,-4.4876,-4.4876,-4.4876,-4.4876,-4.4914,-4.499,-4.5066,0.0,-4.5862,0.0,0.0,0.0,0.0,0.0,0.0,0.0,0.0,-4.6518,-4.6739,-4.7042,-4.8197,-4.8889,-4.8626,-4.9628,-5.0576,-5.1321,-5.1475,-5.1765,-5.2408,-5.248,-5.2444,-5.2371,-5.2444,-5.2676,-5.3086,-5.39,-5.4574,-5.5223,-5.5919,-5.6597,-5.7239,-5.7489,-5.7846,-5.8488,-5.7942,-5.7213,-5.6133,-5.6122,-5.5928,-5.4684,-5.4635,-5.4612,-5.3934,-5.4092,-5.4323,-5.4308,-5.4826,-5.5247,-5.528,-5.5345,-5.5409,-5.5442,-5.5474,-5.5668,-5.6089,-5.5895,-5.5442,-5.2982,-5.289,-5.1713,-5.1292,-5.1274,-5.041,-4.9188,-4.7808,-4.7859,-4.7146,-4.5993,-4.5722,-4.5586,-4.5586,-4.5586,-4.5632,-4.5757,-4.58,-4.5891,-4.6052,-4.624,-4.6326,-4.6327,-4.7194,-4.7159,-4.6459,-4.8515,-4.8819,-4.7474,-4.9741,-5.0491,-4.9868,-5.0519,-5.0596,-5.0016,0.0,0.0,0.0,-4.901,-4.8159,-4.8082,-4.5488,-4.4432,-4.5093,-4.436,0.0,-4.4838,-4.4876,-4.4876,-4.4876,-4.4876,0.0,0.0,0.0,0.0,0.0,0.0,0.0,0.0,0.0,0.0,0.0,-4.6316,-4.6316,-4.7112,-4.8183,-4.8552,-4.8052,-4.8783,-4.9679,-5.062,-5.0911,-5.1419,-5.2154,-5.2263,-5.2335,-5.248,-5.248,-5.2263,-5.1611,-5.2082,-5.2459,-5.2438,-5.354,-5.4538,-5.508,-5.5883,-5.6418,-5.6561,-5.7132,-5.7632,-5.7718,-5.7223,-5.6675,-5.6464,-5.5996,-5.5467,-5.4675,-5.4369,-5.4283,-5.4076,-5.3803,-5.3734,-5.3766,-5.4194,-5.46,-5.46,-5.5021,-5.5312,-5.5377,-5.5377,-5.5474,-5.5604,-5.5507,-5.5409,-5.2806,0.0,-5.1565,-5.117,0.0,-5.0076,-4.8907,-4.7792,-4.7952,-4.7106,-4.5586,-4.5586,-4.5586,-4.5586,-4.5586,-4.5648,-4.5814,-4.5841,-4.5929,-4.6137,-4.7033,-4.7255,-4.6963,-4.8252,-4.8145,-4.6988,-4.855,-4.8634,-4.7462,-4.9459,-5.0194,-4.9769,-5.0503,-5.0712,-5.0326,-5.0712,-5.0906,-5.0906,-4.9243,-4.8361,-4.8221,-4.6044,-4.4978,-4.5301,0.0,0.0,0.0,0.0,0.0,0.0,0.0,0.0,0.0,0.0,0.0,-4.6771,-4.7567,-4.7832,-4.7453,-4.7416,-4.7605,-4.7984,-4.7643,-4.7515,-4.773,-4.894,-4.9445,-4.8895,-4.972,-5.0605,-5.1221,-5.1656,-5.2019,-5.2444,-5.248,-5.248,-5.248,-5.248,-5.2335,-5.2009,-5.2216,-5.2293,-5.215,-5.301,-5.377,-5.408,-5.4724,-5.5258,-5.5348,-5.624,-5.6989,-5.6989,-5.673,-5.6376,-5.6028,-5.5744,-5.5145,-5.425,-5.3772,-5.3503,-5.3239,-5.3245,-5.3139,-5.3128,-5.3604,-5.4013,-5.3887,-5.4179,-5.4373,-5.4373,-5.4373,-5.4535,-5.4826,-5.5183,-5.5409,-5.2227,-5.2121,-5.1081,-5.081,-5.0984,-4.963,-4.8597,-4.7894,0.0,0.0,0.0,-4.5586,-4.5586,-4.5586,-4.5586,-4.5665,-4.5802,-4.5875,-4.6065,-4.643,-4.7923,-4.833,-4.79,-4.9228,-4.9051,-4.7576,-4.8304,-4.8242,-4.7543,-4.9005,-4.9807,-4.9977,-5.0558,-5.0813,-5.0712,-5.0712,-5.0596,-5.0403,-4.9227,-4.8392,-4.7945,-4.6417,-4.5454,-4.5192,-4.501,-4.4876,-4.4876,-4.4876,-4.4876,-4.4876,-4.5028,-4.5445,-4.6165,-4.6468,-4.6923,-4.7605,-4.8439,-4.859,-4.7908,-4.8363,-4.8731,-4.8731,-4.8818,-4.8899,-4.8769,-4.9496,-4.9933,-4.993,-5.0842,-5.1456,-5.1601,-5.2127,-5.248,-5.248,-5.248,-5.248,-5.248,-5.248,-5.248,-5.2516,-5.2387,-5.2246,-5.215,-5.2723,-5.3089,-5.3044,-5.3654,-5.4065,-5.4313,-5.5241,-5.599,-5.6133,-5.6114,-5.5984,-5.5531,-5.5286,-5.4789,-5.3686,-5.3194,-5.2752,-5.2349,-5.2302,-5.245,-5.2389,-5.2834,-5.3116,-5.3078,-5.3304,-5.3304,-5.3304,-5.3337,-5.3499,-5.4082,-5.4632,-5.5053,-5.1972,-5.1734,-5.1124,-5.108,-5.1343,-4.9946,-4.8491,-4.7048,-4.6278,-4.5817,-4.5586,-4.5586,-4.5586,-4.5586,-4.5586,-4.5688,-4.5897,-4.5919,-4.645,-4.7381,-4.7662,-4.8096,-4.8642,-4.8915,-4.8506,-4.7614,-4.8259,-4.8513,-4.8427,-4.9251,-5.0055,-5.0674,-5.0867,-5.0558,-4.9939,-4.9861,-4.9513,-4.8778,-4.9092,-4.8561,-4.7118,-4.6549,-4.59,-4.523,-4.501,-4.4876,-4.4876,-4.4876,-4.4876,-4.4914,-4.5634,-4.6089,-4.6241,-4.7529,-4.8401,-4.8553,-4.9273,-4.9652,-4.9538,-4.9007,-4.8731,-4.8742,-4.9311,-5.0185,-5.1243,-5.0209,-5.0202,-5.1825,-5.1919,-5.2077,-5.2736,-5.268,-5.2516,-5.248,-5.248,-5.248,-5.2516,-5.248,-5.248,-5.248,-5.2516,-5.234,-5.2222,-5.27,-5.3068,-5.3008,-5.335,-5.4135,-5.4509,-5.4616,-5.467,-5.5205,-5.5384,-5.536,-5.5437,-5.4896,-5.4338,-5.355,-5.297,-5.2539,-5.2269,-5.1762,-5.1514,-5.1794,-5.1801,-5.1912,-5.2248,-5.2916,-5.311,-5.3142,-5.3142,-5.3272,-5.3434,-5.3661,-5.4082,-5.0861,-5.0871,-5.0478,-5.0247,-5.0092,-4.9104,-4.774,-4.624,-4.6278,-4.6047,-4.5586,-4.5586,-4.5586,-4.5603,-4.5648,-4.5789,-4.588,-4.5978,-4.6339,-4.696,-4.7822,-4.8447,-4.8837,-4.9345,-4.9058,-4.8141,-4.8425,-4.8312,-4.7895,-4.904,-4.99,-5.0248,-5.0248,-5.0055,-4.9707,-4.9243,-4.8778,-4.843,-4.815,-4.7622,-4.6819,-4.6084,-4.5529,-4.5057,-4.4962,-4.4876,-4.4876,-4.4876,-4.4876,-4.4876,-4.5748,-4.6392,-4.6847,-4.8022,-4.8894,-4.9311,-4.969,-4.9879,-4.9879,-4.9554,-4.9554,-4.9993,-4.9955,-5.0733,-5.2704,-5.1989,-5.1728,-5.2419,-5.2713,-5.2924,-5.312,-5.3134,-5.2961,-5.2516,-5.2707,-5.2744,-5.2516,-5.248,-5.248,-5.2387,-5.234,-5.2198,-5.2005,-5.2279,-5.2394,-5.233,-5.26,-5.2921,-5.3345,-5.3437,-5.3992,-5.5491,-5.5847,-5.5881,-5.5887,-5.5402,-5.4703,-5.4072,-5.3382,-5.2633,-5.2051,-5.1376,-5.1069,-5.0687,-5.0805,-5.0945,-5.1145,-5.1653,-5.2041,-5.2139,-5.2171,-5.2268,-5.2592,-5.3304,-5.4114,-4.9966,-5.0108,-4.9939,-4.9569,-4.9034,-4.8394,-4.724,-4.6009,-4.6394,-4.624,-4.5624,-4.5586,-4.562,-4.5671,-4.5757,-4.5854,-4.5959,-4.6029,-4.6293,-4.6726,-4.8096,-4.8798,-4.8876,-4.9696,-4.949,-4.843,-4.8343,-4.7889,-4.7337,-4.8469,-4.9359,-4.9653,-4.9707,-4.9591,-4.9397,-4.874,-4.8314,-4.8082,-4.7494,-4.7027,-4.6685,-4.5889,-4.5369,-4.5204,-4.499,-4.499,-4.5179,-4.499,-4.4876,-4.4952,-4.5899,-4.6733,-4.7378,-4.8401,-4.9159,-4.9576,-4.9614,-4.9538,-4.9349,-4.9326,-4.9781,-5.0789,-5.0296,-5.0978,-5.3299,-5.3579,-5.3395,-5.3155,-5.3533,-5.3683,-5.3481,-5.3559,-5.3426,-5.2826,-5.2954,-5.2981,-5.2654,-5.2572,-5.2434,-5.2329,-5.2198,-5.2102,-5.1907,-5.1808,-5.1794,-5.1744,-5.1708,-5.1744,-5.2008,-5.2651,-5.3992,-5.5419,-5.6133,-5.6169,-5.6311,-5.5844,-5.5059,-5.4344,-5.354,-5.2505,-5.1491,-5.0916,-5.0711,-5.003,-5.0085,-5.0334,-5.0172,-5.0746,-5.1102,-5.1135,-5.1199,-5.1426,-5.1912,-5.2721,-5.3855,-4.9963,-4.9663,-5.0014,-4.983,-4.926,-4.8471,-4.7586,-4.674,-4.6047,-4.5663,-4.5586,-4.5586,-4.5687,-4.5771,-4.58,-4.5914,-4.6084,-4.6098,-4.6605,-4.7467,-4.8369,-4.8798,-4.8915,-4.9657,-4.9214,-4.774,-4.7515,-4.7339,-4.7052,-4.7347,-4.8183,-4.9521,-4.9691,-4.932,-4.8624,-4.843,-4.8005,-4.727,-4.7802,-4.7643,-4.6762,-4.6424,-4.6206,-4.6114,-4.5331,-4.5255,-4.5899,-4.5331,-4.4914,-4.5028,-4.643,-4.7302,-4.7567,-4.8894,-4.9462,-4.8856,-4.8818,-4.8477,-4.7757,-4.7605,-4.8389,-4.9803,-4.9993,-5.1016,-5.3442,-5.4322,-5.4708,-5.4579,-5.4392,-5.4228,-5.4161,-5.3912,-5.3683,-5.3518,-5.3286,-5.3072,-5.3017,-5.2717,-5.247,-5.2293,-5.2246,-5.2198,-5.1907,-5.1858,-5.1808,-5.1708,-5.1708,-5.1922,-5.2595,-5.3187,-5.3992,-5.4991,-5.5312,-5.5633,-5.6078,-5.5808,-5.4874,-5.3748,-5.2887,-5.1965,-5.0826,-4.9752,-4.9217,-4.9735,-4.9785,-4.961,-5.0042,-5.0649,-5.0908,-5.0714,-5.0843,-5.1232,-5.1297,-5.162,-5.2365,-4.954,-4.9589,-4.9966,-4.9844,-4.9317,-4.8471,-4.7625,-4.6894,-4.6547,-4.6086,-4.5624,-4.5586,-4.5687,-4.5814,-4.5854,-4.5939,-4.6098,-4.6181,-4.6713,-4.7623,-4.8408,-4.9072,-4.9544,-4.9394,-4.8905,-4.8057,-4.7095,-4.651,-4.6535,-4.7347,-4.8493,-4.9482,-4.9189,-4.874,-4.8353,-4.7889,-4.7695,-4.7889,-4.8153,-4.8304,-4.8221,-4.7559,-4.6853,-4.6266,-4.6316,-4.6013,-4.552,-4.5558,-4.5672,-4.571,-4.6771,-4.7643,-4.8136,-4.8818,-4.9045,-4.8666,-4.82,-4.7782,-4.7416,-4.7403,-4.8124,-4.9765,-5.0372,-5.1547,-5.348,-5.4427,-5.492,-5.489,-5.4761,-5.4565,-5.4334,-5.435,-5.4242,-5.3833,-5.3758,-5.3721,-5.3487,-5.3036,-5.268,-5.2545,-5.2257,-5.2005,-5.1858,-5.1808,-5.1758,-5.1708,-5.1708,-5.1993,-5.2779,-5.3207,-5.3635,-5.4277,-5.4491,-5.5062,-5.599,-5.579,-5.471,-5.3662,-5.3066,-5.2316,-5.0026,-4.9325,-4.9057,-4.8948,-4.8907,-4.8991,-4.9394,-5.0066,-5.0487,-5.0519,-5.0811,-5.1199,-5.1199,-5.1491,-5.2236,-4.9302,-4.9617,-5.005,-5.0099,-4.9683,-4.8856,-4.8125,-4.7586,-4.7317,-4.6855,-4.6278,-4.6061,-4.6059,-4.6177,-4.6236,-4.6337,-4.6515,-4.6635,-4.712,-4.7939,-4.8564,-4.915,-4.9661,-4.9204,-4.8788,-4.8382,-4.7151,-4.6472,-4.6665,-4.8005,-4.8957,-4.9227,-4.874,-4.8275,-4.8043,-4.7579,-4.7773,-4.8392,-4.8817,-4.9296,-4.9545,-4.8718,-4.7777,-4.712,-4.7314,-4.6985,-4.6087,-4.6341,-4.6544,-4.6544,-4.7302,-4.7908,-4.8287,-4.8553,-4.8515,-4.8022,-4.7441,-4.7062,-4.7074,-4.7252,-4.8238,-5.0031,-5.0865,-5.204,-5.3669,-5.4541,-5.4882,-5.492,-5.492,-5.4761,-5.4565,-5.473,-5.4597,-5.4121,-5.4226,-5.415,-5.3869,-5.337,-5.2914,-5.2696,-5.2361,-5.192,-5.1722,-5.1708,-5.1708,-5.1708,-5.1708,-5.1978,-5.273,-5.3067,-5.3457,-5.3956,-5.4206,-5.4706,-5.5526,-5.5223,-5.4267,-5.3171,-5.2494,-5.1555,-4.9359,-4.8829,-4.8827,-4.8554,-4.842,-4.8409,-4.8713,-4.9321,-5.0098,-5.0681,-5.1005,-5.1167,-5.1199,-5.162,-5.1912,-4.9416,-4.9617,-5.0374,-5.0644,-5.0548,-4.9663,-4.9317,-4.9086,-4.8355,-4.7971,-4.7758,-4.7217,-4.7016,-4.7101,-4.7123,-4.7276,-4.7459,-4.7428,-4.7822,-4.8564,-4.8759,-4.8876,-4.8954,-4.8892,-4.8824,-4.8677,-4.7753,-4.754,-4.8203,-4.9141,-4.9243,-4.8546,-4.8469,-4.8005,-4.7502,-4.7966,-4.8353,-4.8508,-4.9784,-5.0648,-5.0488,-4.972,-4.9144,-4.8928,-4.8181,-4.7976,-4.8372,-4.7783,-4.734,-4.734,-4.8136,-4.8287,-4.7681,-4.8211,-4.7908,-4.662,-4.6316,-4.6278,-4.643,-4.7112,-4.8515,-5.0637,-5.1282,-5.2267,-5.4427,-5.4844,-5.4882,-5.492,-5.492,-5.4852,-5.4822,-5.4852,-5.4814,-5.4678,-5.4451,-5.4321,-5.4259,-5.3758,-5.3244,-5.2784,-5.2463,-5.2114,-5.1758,-5.1708,-5.1708,-5.1708,-5.1708,-5.205,-5.2837,-5.3495,-5.3832,-5.4099,-5.4456,-5.4884,-5.4313,-5.4313,-5.3368,-5.2323,-5.1726,-5.0678,-4.911,-4.7969,-4.8065,-4.8193,-4.8086,-4.8111,-4.8194,-4.8706,-4.9515,-5.0228,-5.0876,-5.1102,-5.1167,-5.1199,-5.1523,-4.9749,-5.0236,-5.0563,-5.0702,-5.0587,-4.974,-4.9394,-4.9317,-4.8471,-4.8086,-4.8084,-4.789,-4.7611,-4.7229,-4.7903,-4.7639,-4.6843,-4.6768,-4.7237,-4.8017,-4.8564,-4.9111,-4.9618,-4.9703,-4.9608,-4.9325,-4.8542,-4.8207,-4.8484,-4.9281,-4.9537,-4.9189,-4.8662,-4.8237,-4.8043,-4.8237,-4.8392,-4.8546,-4.9591,-5.0333,-5.0648,-4.9489,-4.9225,-5.0177,-4.9219,-4.8471,-4.8151,-4.8248,-4.8327,-4.8238,-4.8553,-4.8553,-4.8211,-4.7491,-4.6847,-4.6278,-4.6203,-4.643,-4.7036,-4.8211,-4.9614,-5.1054,-5.2229,-5.329,-5.4541,-5.492,-5.492,-5.492,-5.492,-5.492,-5.492,-5.492,-5.4693,-5.4276,-5.4436,-5.4609,-5.4425,-5.3979,-5.3452,-5.2956,-5.2371,-5.1871,-5.1772,-5.1708,-5.1708,-5.1744,-5.2101,-5.2743,-5.3405,-5.3868,-5.3956,-5.3956,-5.3849,-5.3635,-5.3385,-5.3778,-5.3584,-5.2572,-5.1743,-5.0488,-4.9086,-4.8033,-4.7968,-4.78,-4.776,-4.7846,-4.7967,-4.8997,-4.971,-5.039,-5.1038,-5.1135,-5.1167,-5.1372,-5.1664,-5.0,-5.0577,-5.0663,-5.0702,-5.0625,-5.0087,-4.9817,-4.974,-4.9202,-4.8933,-4.8911,-4.857,-4.8089,-4.7678,-4.7844,-4.7362,-4.6417,-4.6612,-4.7159,-4.7978,-4.8564,-4.9114,-4.9625,-4.9774,-4.9687,-4.9418,-4.8865,-4.8593,-4.8879,-4.9436,-4.9552,-4.9227,-4.8662,-4.8237,-4.8082,-4.8237,-4.8508,-4.8894,-4.9668,-5.0287,-5.0326,-4.9126,-4.8894,-4.9714,-4.9062,-4.8625,-4.8597,-4.8914,-4.9082,-4.91,-4.8922,-4.8631,-4.82,-4.7226,-4.6468,-4.6241,-4.6468,-4.6961,-4.7832,-4.9121,-5.0372,-5.1547,-5.2836,-5.4048,-5.4769,-5.492,-5.492,-5.4882,-5.4617,-5.4541,-5.4541,-5.4511,-5.4398,-5.4132,-5.4527,-5.4736,-5.4597,-5.4193,-5.3606,-5.2956,-5.2325,-5.192,-5.1722,-5.1708,-5.1865,-5.2008,-5.2401,-5.285,-5.3742,-5.3778,-5.3635,-5.3671,-5.3813,-5.3564,-5.3314,-5.3564,-5.3389,-5.2509,-5.1292,-5.0169,-4.9263,-4.8322,-4.7704,-4.7504,-4.7533,-4.7554,-4.8161,-4.9224,-5.0066,-5.0746,-5.1102,-5.1232,-5.1404,-5.1567,-5.2021,-5.0259,-5.0598,-5.0663,-5.0702,-5.0664,-5.0587,-5.0664,-5.0471,-5.051,-5.0317,-4.9912,-4.9199,-4.872,-4.8233,-4.745,-4.6573,-4.6573,-4.7081,-4.7705,-4.8408,-4.8603,-4.873,-4.8895,-4.9004,-4.8945,-4.874,-4.849,-4.8856,-4.9444,-4.9498,-4.9204,-4.86,-4.8469,-4.8005,-4.7154,-4.8005,-4.8778,-4.9436,-5.0171,-5.0326,-4.9707,-4.8778,-4.8392,-4.8469,-4.7719,-4.8221,-5.0297,-4.9585,-4.9341,-4.9868,-4.9286,-4.8452,-4.7745,-4.7378,-4.7036,-4.662,-4.6999,-4.7795,-4.8704,-4.9576,-5.0865,-5.2191,-5.3252,-5.4162,-5.4731,-5.492,-5.492,-5.4806,-5.4276,-5.3783,-5.3897,-5.3867,-5.4027,-5.4701,-5.4635,-5.4618,-5.4538,-5.4265,-5.3757,-5.2944,-5.2408,-5.2078,-5.1822,-5.1815,-5.2115,-5.2502,-5.2559,-5.2687,-5.3794,-5.3723,-5.3171,-5.3207,-5.3599,-5.3706,-5.3528,-5.3333,-5.2839,-5.2177,-5.0863,-4.9698,-4.9188,-4.8379,-4.7737,-4.7468,-4.7561,-4.7647,-4.8291,-4.9321,-5.0001,-5.0617,-5.094,-5.1426,-5.1761,-5.2053,-5.2604,-5.0478,-5.0663,-5.0702,-5.0702,-5.0702,-5.0702,-5.0394,-4.9894,-5.0394,-5.0048,-4.9314,-5.0467,-5.0153,-4.8875,-4.871,-4.8291,-4.7237,-4.6924,-4.6846,-4.7237,-4.7744,-4.7988,-4.8116,-4.8589,-4.8805,-4.861,-4.8502,-4.8585,-4.8778,-4.8856,-4.8624,-4.843,-4.843,-4.7966,-4.727,-4.7966,-4.8585,-4.8778,-4.9049,-4.932,-4.9513,-4.8237,-4.7811,-4.8237,-4.754,-4.7796,-4.8987,-4.8659,-4.8817,-4.9455,-4.9114,-4.8718,-4.8263,-4.7719,-4.7567,-4.7908,-4.8136,-4.8969,-5.0296,-5.113,-5.204,-5.3177,-5.4048,-5.4579,-5.4844,-5.492,-5.492,-5.4844,-5.42,-5.3859,-5.4314,-5.3989,-5.3875,-5.4048,-5.4414,-5.4555,-5.4409,-5.3944,-5.3363,-5.2893,-5.2454,-5.2078,-5.1929,-5.2065,-5.2651,-5.3003,-5.3488,-5.4116,-5.3933,-5.4132,-5.392,-5.3314,-5.3635,-5.3635,-5.3171,-5.2886,-5.2588,-5.1988,-5.0823,-4.9804,-4.9206,-4.8379,-4.7737,-4.7593,-4.7651,-4.7999,-4.8641,-4.9386,-5.0163,-5.0811,-5.1394,-5.1815,-5.2139,-5.2669,-5.3221,-5.0563,-5.0625,-5.0356,-5.0202,-5.0183,-4.9894,-4.9625,-4.9548,-5.0317,-5.0105,-4.9749,-5.1347,-5.112,-4.9508,-4.9775,-4.9302,-4.8096,-4.7432,-4.7237,-4.7198,-4.7354,-4.7442,-4.7299,-4.7967,-4.8304,-4.8222,-4.8385,-4.8638,-4.8894,-4.8894,-4.8894,-4.8894,-4.8894,-4.8662,-4.8082,-4.8237,-4.8508,-4.8778,-4.8585,-4.8508,-4.8469,-4.7657,-4.7192,-4.7347,-4.6883,-4.7076,-4.7811,-4.7812,-4.8197,-4.9086,-4.9335,-4.9175,-4.8731,-4.8439,-4.859,-4.9045,-4.9538,-5.0258,-5.1547,-5.2381,-5.3101,-5.3707,-5.4427,-5.4882,-5.492,-5.492,-5.492,-5.4806,-5.4162,-5.4048,-5.4617,-5.417,-5.3867,-5.4162,-5.4387,-5.4415,-5.4164,-5.3794,-5.3318,-5.2974,-5.2799,-5.2618,-5.2444,-5.2779,-5.3437,-5.381,-5.4294,-5.4687,-5.4164,-5.4132,-5.3508,-5.2993,-5.2993,-5.2814,-5.2529,-5.235,-5.2315,-5.1688,-5.085,-5.0067,-4.9468,-4.8319,-4.7535,-4.7814,-4.8031,-4.8713,-4.9354,-5.0034,-5.0746,-5.1329,-5.1879,-5.2203,-5.2592,-5.3331,-5.3915,-5.0525,-5.051,-4.9817,-4.9605,-4.9547,-4.8874,-4.9009,-4.9586,-5.0317,-5.0699,-5.0983,-5.18,-5.1452,-5.0229,-5.0221,-4.9774,-4.8954,-4.8642,-4.8525,-4.8369,-4.806,-4.7478,-4.7061,-4.761,-4.783,-4.7726,-4.8244,-4.8832,-4.9281,-4.9359,-4.9629,-4.9397,-4.9591,-4.9629,-4.9243,-4.8778,-4.8933,-4.9359,-4.874,-4.7927,-4.7424,-4.7308,-4.6844,-4.6148,-4.6109,-4.6496,-4.7308,-4.7564,-4.8083,-4.9258,-4.9822,-4.9744,-4.9162,-4.9527,-4.9765,-4.9955,-5.0751,-5.1471,-5.2381,-5.3101,-5.3707,-5.3935,-5.4352,-5.4882,-5.4882,-5.4617,-5.4579,-5.4806,-5.4048,-5.3897,-5.4503,-5.4162,-5.4086,-5.464,-5.4581,-5.4275,-5.3907,-5.3794,-5.3481,-5.309,-5.3381,-5.3614,-5.2967,-5.3492,-5.4242,-5.458,-5.4473,-5.4294,-5.3774,-5.3417,-5.2651,-5.2386,-5.2422,-5.2529,-5.2386,-5.2172,-5.2208,-5.2254,-5.1164,-5.0045,-4.9487,-4.8392,-4.7662,-4.8004,-4.8641,-4.9321,-5.0034,-5.0746,-5.1297,-5.1847,-5.2268,-5.2624,-5.3175,-5.3869,-5.4435,-5.0525,-5.0587,-5.0433,-5.0337,-5.0336,-5.0067,-5.0087,-5.0356,-5.0587,-5.0794,-5.1091,-5.1891,-5.1784,-5.0945,-5.0967,-5.0594,-4.9813,-4.915,-4.8798,-4.8759,-4.8603,-4.8411,-4.8265,-4.8398,-4.8447,-4.8335,-4.8554,-4.8647,-4.874,-4.8933,-4.8933,-4.8817,-5.0016,-4.9939,-4.8933,-4.9243,-4.9436,-4.9436,-4.8198,-4.7773,-4.8043,-4.8005,-4.7618,-4.6844,-4.6767,-4.7192,-4.8043,-4.8701,-4.9064,-4.9353,-5.0005,-5.0191,-4.9834,-4.991,-5.0274,-5.0854,-5.113,-5.1888,-5.3063,-5.3556,-5.3935,-5.4465,-5.4162,-5.4276,-5.4806,-5.3745,-5.3783,-5.4238,-5.3707,-5.3404,-5.4427,-5.42,-5.4073,-5.4387,-5.4518,-5.4345,-5.4055,-5.387,-5.3561,-5.301,-5.3462,-5.3494,-5.3354,-5.3885,-5.4598,-5.4473,-5.4509,-5.4313,-5.3596,-5.3167,-5.26,-5.2065,-5.1993,-5.2279,-5.235,-5.2101,-5.2213,-5.2661,-5.1598,-4.9849,-4.9243,-4.8497,-4.8086,-4.802,-4.9224,-5.0034,-5.0746,-5.1459,-5.1944,-5.243,-5.311,-5.3661,-5.4049,-5.4567,-5.4907,-5.0504,-5.0509,-5.0279,-5.0144,-5.0086,-4.9759,-4.9817,-5.0202,-5.0568,-5.0791,-5.1189,-5.2304,-5.2232,-5.1369,-5.1757,-5.1453,-5.0633,-5.0126,-4.993,-4.9891,-4.993,-4.954,-4.9118,-4.9174,-4.9324,-4.9239,-4.955,-4.9823,-4.9977,-4.9668,-4.9629,-5.0094,-5.0596,-5.0558,-5.0248,-5.0016,-5.021,-4.9977,-4.8856,-4.8353,-4.8392,-4.8392,-4.8159,-4.7695,-4.7657,-4.8043,-4.8933,-4.9745,-5.0107,-5.0064,-5.0298,-5.0445,-5.0367,-5.0555,-5.1028,-5.1787,-5.214,-5.2948,-5.3783,-5.3935,-5.3897,-5.4124,-5.3631,-5.348,-5.3669,-5.3177,-5.3556,-5.4048,-5.3669,-5.401,-5.4541,-5.4465,-5.4345,-5.4495,-5.4743,-5.4643,-5.4093,-5.387,-5.3481,-5.3207,-5.3381,-5.3614,-5.3039,-5.4028,-5.4277,-5.4223,-5.4349,-5.3866,-5.3238,-5.3008,-5.2814,-5.2386,-5.2208,-5.2564,-5.287,-5.2711,-5.2272,-5.2654,-5.2666,-5.0673,-4.9486,-4.8954,-4.8931,-4.9087,-5.0001,-5.0811,-5.1556,-5.2203,-5.2624,-5.3207,-5.3984,-5.4373,-5.4567,-5.4746,-5.5069,-5.0521,-5.0448,-4.9798,-4.951,-4.949,-4.874,-4.9202,-4.9779,-5.0433,-5.0996,-5.158,-5.2756,-5.2455,-5.157,-5.2078,-5.2078,-5.1336,-5.1141,-5.1219,-5.118,-5.1102,-5.0633,-4.9891,-5.03,-5.0427,-5.0452,-5.1076,-5.1672,-5.1834,-5.1447,-5.1602,-5.1912,-5.1641,-5.1718,-5.1834,-5.1563,-5.1215,-5.1099,-5.021,-4.9591,-4.9243,-4.9088,-4.8933,-4.8856,-4.8817,-4.901,-4.9629,-5.0349,-5.0781,-5.0681,-5.0701,-5.0587,-5.0581,-5.1212,-5.192,-5.2577,-5.3213,-5.3971,-5.46,-5.4124,-5.3707,-5.3669,-5.2911,-5.2456,-5.276,-5.3025,-5.329,-5.4086,-5.4427,-5.4541,-5.4882,-5.492,-5.495,-5.498,-5.5341,-5.5134,-5.4391,-5.4054,-5.382,-5.323,-5.3709,-5.3784,-5.3584,-5.3635,-5.4135,-5.4028,-5.4028,-5.3544,-5.3115,-5.2973,-5.2993,-5.31,-5.3028,-5.3064,-5.3281,-5.3389,-5.287,-5.2669,-5.3151,-5.2068,-5.038,-4.9798,-4.9977,-5.038,-5.1232,-5.1879,-5.2527,-5.3013,-5.3402,-5.3855,-5.4535,-5.4535,-5.4503,-5.4713,-5.4955,-5.0521,-5.0486,-5.0452,-5.0433,-5.0394,-5.024,-5.0587,-5.1241,-5.0856,-5.1476,-5.2525,-5.2057,-5.1949,-5.2312,-5.1921,-5.1531,-5.1414,-5.1375,-5.1375,-5.1375,-5.1375,-5.1726,-5.1691,-5.198,-5.207,-5.2159,-5.2807,-5.322,-5.3204,-5.2995,-5.2995,-5.3149,-5.342,-5.3652,-5.3149,-5.2995,-5.2917,-5.2685,-5.1447,-5.0945,-5.0945,-5.0519,-5.0287,-5.0287,-5.0248,-5.0055,-4.99,-5.048,-5.0851,-5.0841,-5.0773,-5.0682,-5.0875,-5.139,-5.2142,-5.278,-5.3493,-5.4188,-5.4562,-5.4086,-5.3669,-5.3404,-5.2419,-5.2002,-5.3215,-5.2381,-5.2911,-5.3935,-5.4276,-5.4389,-5.4958,-5.5564,-5.5637,-5.5597,-5.6023,-5.6331,-5.588,-5.5726,-5.5295,-5.4928,-5.5093,-5.5462,-5.4721,-5.4384,-5.442,-5.4063,-5.3564,-5.3135,-5.2993,-5.2886,-5.3242,-5.3564,-5.3778,-5.3849,-5.3922,-5.404,-5.3696,-5.3437,-5.382,-5.3756,-5.1974,-5.1189,-5.1565,-5.1965,-5.243,-5.3013,-5.3402,-5.3855,-5.4211,-5.4665,-5.4924,-5.4762,-5.4697,-5.4761,-5.4374,-5.0521,-5.0504,-5.0663,-5.0702,-5.0702,-5.0702,-5.0933,-5.1202,-5.0894,-5.1305,-5.202,-5.1319,-5.1442,-5.2034,-5.1609,-5.1414,-5.1375,-5.1375,-5.1375,-5.1375,-5.1414,-5.1882,-5.2706,-5.311,-5.3277,-5.3278,-5.3533,-5.387,-5.4049,-5.3823,-5.3652,-5.4039,-5.4271,-5.4078,-5.4116,-5.4078,-5.3807,-5.3382,-5.2647,-5.2028,-5.1563,-5.1602,-5.1525,-5.137,-5.1138,-5.0674,-5.0403,-5.0635,-5.0867,-5.089,-5.0841,-5.0984,-5.1447,-5.2126,-5.2777,-5.3398,-5.3733,-5.4051,-5.4126,-5.329,-5.2494,-5.2608,-5.1661,-5.185,-5.2494,-5.2267,-5.2987,-5.3973,-5.4352,-5.4617,-5.5413,-5.57,-5.5993,-5.6319,-5.6815,-5.7155,-5.6846,-5.6543,-5.6039,-5.5404,-5.5067,-5.4677,-5.4389,-5.433,-5.3671,-5.285,-5.2779,-5.2457,-5.2957,-5.2993,-5.3706,-5.4099,-5.442,-5.4563,-5.463,-5.4617,-5.4544,-5.4627,-5.5067,-5.4858,-5.3942,-5.3563,-5.347,-5.3517,-5.3369,-5.3693,-5.4114,-5.4567,-5.4859,-5.5053,-5.5118,-5.4924,-5.4729,-5.4567,-5.3887,-5.05,-5.0521,-5.0663,-5.0702,-5.0702,-5.0702,-5.0702,-5.0702,-5.0702,-5.088,-5.1011,-5.1008,-5.1209,-5.1357,-5.1414,-5.1414,-5.1648,-5.1921,-5.2078,-5.2078,-5.2078,-5.2624,-5.3331,-5.3891,-5.4328,-5.4258,-5.439,-5.4691,-5.4777,-5.4387,-5.4503,-5.4774,-5.4349,-5.4503,-5.489,-5.4774,-5.4465,-5.3846,-5.3459,-5.2801,-5.1796,-5.1989,-5.2066,-5.195,-5.1563,-5.137,-5.137,-5.1486,-5.1331,-5.1138,-5.1099,-5.1486,-5.2144,-5.2824,-5.3415,-5.3744,-5.3736,-5.3735,-5.3262,-5.2305,-5.1471,-5.1433,-5.1282,-5.1547,-5.2115,-5.2949,-5.3556,-5.4124,-5.4617,-5.5375,-5.6095,-5.657,-5.6635,-5.6882,-5.7492,-5.7825,-5.7478,-5.6918,-5.6325,-5.5834,-5.5494,-5.4991,-5.3922,-5.335,-5.2493,-5.1851,-5.1886,-5.2101,-5.2671,-5.3421,-5.4242,-5.4848,-5.5241,-5.5431,-5.549,-5.6034,-5.58,-5.545,-5.5984,-5.5633,-5.531,-5.4794,-5.4422,-5.4164,-5.4179,-5.4438,-5.4665,-5.4956,-5.5183,-5.5377,-5.528,-5.5086,-5.4745,-5.4338,-5.348,-5.05,-5.0521,-5.0663,-5.0702,-5.0702,-5.0702,-5.0702,-5.0702,-5.0702,-5.0803,-5.1023,-5.1008,-5.1209,-5.1352,-5.1414,-5.1765,-5.239,-5.2897,-5.3327,-5.3366,-5.3366,-5.3795,-5.4506,-5.4747,-5.5338,-5.5972,-5.5921,-5.5852,-5.5938,-5.5857,-5.5548,-5.5702,-5.5548,-5.5625,-5.547,-5.52,-5.4774,-5.4194,-5.3768,-5.3149,-5.2647,-5.2221,-5.2144,-5.2144,-5.1912,-5.2105,-5.2685,-5.2879,-5.2724,-5.2066,-5.1989,-5.2028,-5.2105,-5.2298,-5.2394,-5.2543,-5.2916,-5.302,-5.2503,-5.1774,-5.2002,-5.257,-5.2077,-5.2419,-5.3442,-5.3935,-5.4086,-5.4655,-5.5337,-5.6057,-5.6209,-5.7207,-5.7635,-5.7695,-5.8086,-5.8578,-5.79,-5.7441,-5.7075,-5.652,-5.6041,-5.5305,-5.4008,-5.2921,-5.2386,-5.2172,-5.2315,-5.2743,-5.3385,-5.4277,-5.5205,-5.574,-5.6133,-5.6241,-5.6353,-5.7095,-5.7354,-5.6328,-5.6304,-5.6106,-5.581,-5.5474,-5.515,-5.4794,-5.4794,-5.5021,-5.5215,-5.5312,-5.5345,-5.5409,-5.5312,-5.5183,-5.4665,-5.4194,-5.348,-5.0883,-5.0521,-5.0663,-5.0702,-5.0702,-5.0702,-5.0933,-5.1241,-5.0914,-5.1073,-5.1528,-5.168,-5.1559,-5.1547,-5.1921,-5.2351,-5.2858,-5.36,-5.3951,-5.399,-5.4029,-5.4459,-5.5244,-5.5332,-5.5833,-5.6348,-5.6523,-5.6501,-5.6386,-5.6233,-5.6178,-5.6089,-5.6051,-5.6012,-5.5973,-5.5664,-5.4929,-5.4349,-5.3691,-5.3033,-5.2298,-5.1718,-5.1718,-5.2105,-5.2144,-5.2182,-5.2144,-5.2685,-5.2337,-5.1679,-5.1525,-5.1525,-5.1563,-5.1609,-5.1794,-5.2176,-5.2302,-5.2179,-5.1706,-5.1054,-5.1092,-5.2115,-5.1964,-5.2608,-5.3821,-5.4276,-5.4465,-5.4958,-5.5678,-5.6398,-5.6815,-5.7894,-5.8325,-5.8559,-5.8907,-5.8726,-5.8053,-5.7749,-5.7186,-5.6566,-5.5358,-5.4411,-5.3785,-5.2921,-5.2422,-5.2422,-5.2671,-5.335,-5.4063,-5.5098,-5.6097,-5.6573,-5.6979,-5.7081,-5.7176,-5.7706,-5.8048,-5.7205,-5.6638,-5.6437,-5.5941,-5.5572,-5.5409,-5.5247,-5.5377,-5.5409,-5.5409,-5.5377,-5.5377,-5.5409,-5.5345,-5.5183,-5.4632,-5.4017,-5.3466,-5.1207,-5.0521,-5.0604,-5.0702,-5.0702,-5.0702,-5.1164,-5.1625,-5.1048,-5.1266,-5.2227,-5.2263,-5.2027,-5.206,-5.2663,-5.3288,-5.3288,-5.4225,-5.4615,-5.4693,-5.4693,-5.5005,-5.5396,-5.563,-5.5989,-5.6507,-5.6926,-5.6705,-5.6476,-5.6355,-5.6238,-5.6162,-5.6089,-5.6012,-5.5973,-5.5664,-5.4813,-5.4155,-5.3265,-5.2376,-5.1293,-5.0945,-5.1331,-5.2105,-5.2182,-5.195,-5.195,-5.2376,-5.2182,-5.1602,-5.1293,-5.1138,-5.0945,-5.0906,-5.1391,-5.2137,-5.1765,-5.1481,-5.1418,-5.1054,-5.1395,-5.2911,-5.2798,-5.3366,-5.401,-5.4806,-5.4958,-5.5223,-5.5754,-5.6702,-5.7466,-5.8164,-5.8703,-5.9043,-5.9008,-5.8716,-5.7753,-5.7038,-5.6191,-5.5317,-5.4245,-5.3675,-5.3182,-5.2671,-5.2136,-5.2707,-5.2993,-5.4099,-5.4884,-5.5919,-5.6863,-5.7384,-5.7789,-5.7938,-5.8014,-5.8068,-5.798,-5.7251,-5.6872,-5.6658,-5.602,-5.5409,-5.5409,-5.5409,-5.5409,-5.5409,-5.5409,-5.5409,-5.5409,-5.5409,-5.5409,-5.5247,-5.4924,-5.4455,-5.397,-5.1223,-5.05,-5.0563,-5.0663,-5.0702,-5.0702,-5.1164,-5.1779,-5.1087,-5.1305,-5.2394,-5.238,-5.2464,-5.2918,-5.4186,-5.4849,-5.5162,-5.563,-5.5981,-5.5942,-5.602,-5.6098,-5.6411,-5.645,-5.6504,-5.6905,-5.7441,-5.7176,-5.6953,-5.6719,-5.6449,-5.6354,-5.6333,-5.6128,-5.5973,-5.5548,-5.4851,-5.4387,-5.3149,-5.195,-5.1138,-5.0945,-5.1409,-5.1873,-5.2182,-5.2298,-5.2531,-5.2801,-5.2647,-5.1989,-5.195,-5.1641,-5.1099,-5.0906,-5.0756,-5.0758,-5.0687,-5.1032,-5.1858,-5.1812,-5.257,-5.3973,-5.4541,-5.5072,-5.5185,-5.5148,-5.5299,-5.6019,-5.6247,-5.6853,-5.7952,-5.8597,-5.8754,-5.8797,-5.8883,-5.8182,-5.7263,-5.6292,-5.5406,-5.4679,-5.3772,-5.3303,-5.2916,-5.2365,-5.1958,-5.2671,-5.3492,-5.4598,-5.5686,-5.6791,-5.769,-5.8308,-5.8369,-5.8526,-5.838,-5.8494,-5.7941,-5.7338,-5.6996,-5.6691,-5.602,-5.5409,-5.5409,-5.5409,-5.5409,-5.5409,-5.5409,-5.5409,-5.5409,-5.5474,-5.5539,-5.5507,-5.5377,-5.4907,-5.4487,-5.1178,-5.05,-5.0604,-5.0682,-5.0702,-5.0702,-5.1433,-5.2202,-5.1279,-5.1576,-5.2822,-5.3028,-5.3437,-5.4211,-5.5083,-5.524,-5.5513,-5.6216,-5.6606,-5.6645,-5.6645,-5.6645,-5.6723,-5.7074,-5.7324,-5.7564,-5.8118,-5.8512,-5.8047,-5.789,-5.7695,-5.707,-5.6911,-5.6631,-5.6283,-5.5702,-5.5238,-5.4465,-5.3188,-5.2105,-5.1602,-5.1254,-5.1138,-5.1525,-5.1989,-5.2221,-5.226,-5.2569,-5.2298,-5.1641,-5.1447,-5.1873,-5.2221,-5.2437,-5.2412,-5.2653,-5.2609,-5.2346,-5.1858,-5.185,-5.3101,-5.4162,-5.4541,-5.4541,-5.5223,-5.564,-5.5451,-5.5413,-5.6853,-5.7725,-5.8331,-5.9273,-5.9474,-5.9408,-5.8967,-5.8267,-5.7229,-5.5695,-5.47,-5.4012,-5.3432,-5.3302,-5.3059,-5.2651,-5.2564,-5.3242,-5.417,-5.5277,-5.6486,-5.769,-5.858,-5.9303,-5.9207,-5.9064,-5.8734,-5.8565,-5.797,-5.7297,-5.6691,-5.6381,-5.5781,-5.5409,-5.5409,-5.5409,-5.5409,-5.5409,-5.5409,-5.5507,-5.5604,-5.5636,-5.5701,-5.5798,-5.5863,-5.536,-5.4727,-5.0987,-5.05,-5.0604,-5.0682,-5.0702,-5.0702,-5.1625,-5.2933,-5.1664,-5.2116,-5.3534,-5.403,-5.4617,-5.5421,-5.563,-5.5708,-5.5708,-5.6294,-5.6684,-5.684,-5.6918,-5.7113,-5.7508,-5.7977,-5.8215,-5.825,-5.9059,-5.9375,-5.9492,-5.9492,-5.914,-5.8047,-5.7578,-5.7358,-5.688,-5.6205,-5.5586,-5.4697,-5.3652,-5.2917,-5.2492,-5.195,-5.1718,-5.1834,-5.2066,-5.2221,-5.1757,-5.2182,-5.2182,-5.1912,-5.2144,-5.284,-5.3536,-5.3945,-5.413,-5.4271,-5.4258,-5.3937,-5.3166,-5.2911,-5.3025,-5.3745,-5.4352,-5.492,-5.5299,-5.5981,-5.6588,-5.6247,-5.7081,-5.7959,-5.8602,-5.9809,-5.9748,-5.9653,-5.9401,-5.8728,-5.7789,-5.6129,-5.4981,-5.4501,-5.411,-5.3814,-5.356,-5.3115,-5.3242,-5.3885,-5.4848,-5.6062,-5.732,-5.858,-5.902,-5.9657,-5.9304,-5.9111,-5.8943,-5.8528,-5.7887,-5.7297,-5.6691,-5.61,-5.562,-5.5409,-5.5409,-5.5409,-5.5409,-5.5409,-5.5409,-5.5604,-5.5798,-5.596,-5.6122,-5.6381,-5.6349,-5.5813,-5.4697,-5.0577,-5.05,-5.0521,-5.0622,-5.0702,-5.0702,-5.1664,-5.2972,-5.2125,-5.2812,-5.4465,-5.5038,-5.5488,-5.6255,-5.6372,-5.6372,-5.6489,-5.6567,-5.7035,-5.7465,-5.7777,-5.8089,-5.8523,-5.8804,-5.9045,-5.9237,-5.9922,-6.0312,-6.0469,-6.0859,-6.0195,-5.9101,-5.8437,-5.826,-5.7754,-5.6863,-5.5973,-5.52,-5.4503,-5.3962,-5.3536,-5.3188,-5.3111,-5.3149,-5.3304,-5.3343,-5.3304,-5.3343,-5.3343,-5.3149,-5.3768,-5.4465,-5.5084,-5.5393,-5.5635,-5.5807,-5.5638,-5.5479,-5.5142,-5.4693,-5.5034,-5.5678,-5.5943,-5.5906,-5.6095,-5.6853,-5.7497,-5.7952,-5.8293,-5.8873,-5.9408,-5.9866,-6.0327,-5.9926,-5.9627,-5.8796,-5.7847,-5.6509,-5.5412,-5.5057,-5.4918,-5.4932,-5.5259,-5.5134,-5.492,-5.5526,-5.6525,-5.7703,-5.8403,-5.9435,-5.9475,-5.9679,-5.9282,-5.9046,-5.8978,-5.8422,-5.7741,-5.7147,-5.6536,-5.602,-5.5491,-5.5409,-5.5409,-5.5409,-5.5409,-5.5409,-5.5571,-5.6057,-5.6381,-5.6413,-5.651,-5.664,-5.6389,-5.5814,-5.4277,-5.0396,-5.05,-5.0517,-5.0542,-5.0702,-5.0702,-5.1356,-5.2164,-5.1548,-5.2271,-5.4206,-5.4857,-5.5717,-5.6402,-5.6606,-5.6606,-5.6684,-5.7153,-5.7504,-5.7894,-5.8324,-5.8753,-5.9226,-5.9663,-5.9944,-6.0117,-6.0742,-6.1211,-6.1289,-6.1562,-6.1406,-6.0508,-5.9609,-5.9061,-5.8484,-5.7615,-5.6747,-5.6089,-5.5354,-5.4581,-5.4349,-5.373,-5.3498,-5.3498,-5.3498,-5.3498,-5.3536,-5.4039,-5.4233,-5.4503,-5.5122,-5.5935,-5.6592,-5.6786,-5.7042,-5.7397,-5.7134,-5.6981,-5.6785,-5.6247,-5.6095,-5.6702,-5.6929,-5.6967,-5.7043,-5.7725,-5.8218,-5.8672,-5.9317,-6.0085,-6.0463,-6.1234,-6.1657,-6.0754,-5.9846,-5.8929,-5.7962,-5.6765,-5.628,-5.6091,-5.6341,-5.6545,-5.7061,-5.756,-5.7346,-5.7311,-5.831,-5.9216,-5.9689,-5.9917,-5.9774,-5.9551,-5.9217,-5.8944,-5.8875,-5.828,-5.752,-5.692,-5.6381,-5.5941,-5.5409,-5.5409,-5.5409,-5.5409,-5.5507,-5.5668,-5.6025,-5.6705,-5.7029,-5.7093,-5.6931,-5.6705,-5.6337,-5.5707,-5.4162,-5.0412,-5.05,-5.0538,-5.0755,-5.101,-5.0779,-5.1318,-5.2087,-5.1779,-5.252,-5.4361,-5.5171,-5.5847,-5.6436,-5.6606,-5.684,-5.7074,-5.7543,-5.8089,-5.8675,-5.9222,-5.9616,-6.0011,-6.0409,-6.0781,-6.0937,-6.1289,-6.164,-6.1601,-6.168,-6.1601,-6.1367,-6.1052,-6.0332,-5.9584,-5.8385,-5.7598,-5.6979,-5.6051,-5.5161,-5.5045,-5.4658,-5.4349,-5.4349,-5.4387,-5.4426,-5.4697,-5.5161,-5.5393,-5.5625,-5.6167,-5.7172,-5.7675,-5.8026,-5.8199,-5.8466,-5.8579,-5.8154,-5.7688,-5.7156,-5.6815,-5.7194,-5.7687,-5.7876,-5.8218,-5.871,-5.9203,-6.0037,-6.0757,-6.125,-6.1444,-6.1951,-6.1845,-6.0866,-5.9878,-5.8995,-5.8386,-5.7427,-5.734,-5.7232,-5.7532,-5.7846,-5.8524,-5.9059,-5.9131,-5.893,-5.9313,-5.9774,-5.9858,-5.9902,-5.9613,-5.9418,-5.9149,-5.8944,-5.8702,-5.7959,-5.7297,-5.6691,-5.6146,-5.5701,-5.5409,-5.5409,-5.5442,-5.5442,-5.5636,-5.596,-5.6413,-5.6964,-5.745,-5.7838,-5.7644,-5.7482,-5.6002,-5.5296,-5.4114,-5.0435,-5.05,-5.0581,-5.1065,-5.1779,-5.1048,-5.1625,-5.2856,-5.3049,-5.4048,-5.5579,-5.6057,-5.6308,-5.6592,-5.6675,-5.7074,-5.7543,-5.7855,-5.8597,-5.9768,-6.0237,-6.0796,-6.1193,-6.1475,-6.1406,-6.164,-6.1719,-6.1719,-6.1719,-6.1719,-6.1719,-6.168,-6.1439,-6.1301,-6.11,-5.9468,-5.8196,-5.7327,-5.6515,-5.6089,-5.5935,-5.5741,-5.5586,-5.5741,-5.5548,-5.547,-5.6128,-5.6399,-5.6515,-5.6515,-5.7443,-5.7946,-5.7714,-5.8255,-5.8374,-5.8256,-5.8859,-5.888,-5.8653,-5.787,-5.7839,-5.7914,-5.8521,-5.8976,-5.9544,-5.9961,-6.0264,-6.0984,-6.1477,-6.1902,-6.2097,-6.2102,-6.1732,-6.0977,-5.9987,-5.9233,-5.8649,-5.8725,-5.871,-5.8519,-5.8642,-5.9023,-5.9773,-6.038,-6.0629,-6.0653,-6.0651,-6.0485,-6.0177,-5.9914,-5.9586,-5.9284,-5.9081,-5.8771,-5.8422,-5.7741,-5.7072,-5.6459,-5.5974,-5.5637,-5.5474,-5.5507,-5.5507,-5.5539,-5.5863,-5.6316,-5.6737,-5.7158,-5.7871,-5.8583,-5.8583,-5.813,-5.6441,-5.4977,-5.4043,-5.0374,-5.05,-5.0521,-5.139,-5.2528,-5.1875,-5.1875,-5.251,-5.3531,-5.4477,-5.5335,-5.6343,-5.6738,-5.6691,-5.7138,-5.7582,-5.7894,-5.8597,-5.9456,-6.0354,-6.0939,-6.133,-6.1658,-6.1711,-6.1717,-6.1719,-6.1719,-6.1719,-6.1719,-6.1719,-6.1719,-6.168,-6.1576,-6.1495,-6.1104,-6.011,-5.9261,-5.8797,-5.7791,-5.6863,-5.6824,-5.6437,-5.6321,-5.6824,-5.6399,-5.6631,-5.7404,-5.7559,-5.7366,-5.7404,-5.8372,-5.8333,-5.8101,-5.8565,-5.8644,-5.8664,-5.9179,-5.93,-5.9741,-5.988,-6.0145,-5.9772,-5.9658,-6.0037,-5.9999,-6.0454,-6.0984,-6.1515,-6.178,-6.2091,-6.2318,-6.2551,-6.2183,-6.1129,-6.0211,-5.9693,-5.9355,-5.9993,-6.0223,-5.9833,-5.9809,-6.0058,-6.0629,-6.0606,-6.0796,-6.0807,-6.0529,-6.0212,-5.9896,-5.9722,-5.952,-5.9217,-5.8944,-5.8632,-5.8209,-5.7897,-5.7287,-5.6619,-5.6188,-5.575,-5.5668,-5.5798,-5.6122,-5.6446,-5.6575,-5.6737,-5.7482,-5.8227,-5.881,-5.9295,-5.9024,-5.8518,-5.7176,-5.5657,-5.4364,-5.0543,-5.0922,-5.0943,-5.1813,-5.2951,-5.2277,-5.2162,-5.2895,-5.401,-5.4709,-5.541,-5.6742,-5.7192,-5.7135,-5.7713,-5.8558,-5.8714,-5.9261,-6.0041,-6.0822,-6.1369,-6.1607,-6.1701,-6.1709,-6.1715,-6.1719,-6.1719,-6.1719,-6.1719,-6.1719,-6.1719,-6.164,-6.1498,-6.1421,-6.1103,-6.044,-5.9803,-5.9339,-5.8449,-5.7753,-5.7637,-5.7404,-5.725,-5.7482,-5.7443,-5.7443,-5.8101,-5.8178,-5.7869,-5.8255,-5.841,-5.8565,-5.8604,-5.8644,-5.8837,-5.9096,-5.9098,-5.9502,-6.0361,-6.0947,-6.0984,-6.0909,-6.1098,-6.0833,-6.0378,-6.0492,-6.1022,-6.1515,-6.1856,-6.2015,-6.2208,-6.2551,-6.1955,-6.0829,-6.0364,-5.9816,-5.9944,-6.05,-6.0665,-6.0418,-6.0522,-6.0879,-6.1093,-6.0867,-6.0711,-6.0555,-6.03,-5.9984,-5.9665,-5.9525,-5.9455,-5.9287,-5.915,-5.8971,-5.871,-5.8429,-5.7742,-5.6887,-5.6483,-5.6219,-5.6446,-5.6705,-5.7061,-5.7352,-5.7482,-5.7838,-5.8648,-5.9328,-5.9457,-5.9379,-5.9113,-5.8451,-5.7684,-5.6173,-5.448,-5.0849,-5.1727,-5.1809,-5.2312,-5.2951,-5.2567,-5.3105,-5.4472,-5.4549,-5.5056,-5.5917,-5.6946,-5.743,-5.7741,-5.8604,-5.9451,-6.0002,-6.0237,-6.0822,-6.1369,-6.1642,-6.1694,-6.1701,-6.1704,-6.1715,-6.1719,-6.1719,-6.1719,-6.1719,-6.1719,-6.1719,-6.168,-6.1523,-6.1447,-6.1126,-6.0692,-6.019,-5.988,-5.9261,-5.872,-5.8526,-5.841,-5.8333,-5.841,-5.8372,-5.8604,-5.8913,-5.8797,-5.8333,-5.8255,-5.8294,-5.8526,-5.8642,-5.8681,-5.8988,-5.9254,-5.9302,-6.0121,-6.0904,-6.1481,-6.1747,-6.1818,-6.1553,-6.1288,-6.0984,-6.0719,-6.1098,-6.1401,-6.1667,-6.1681,-6.18,-6.154,-6.1241,-6.0659,-6.0287,-6.0079,-6.0172,-6.0372,-6.0447,-6.0483,-6.0795,-6.1022,-6.1034,-6.0878,-6.0626,-6.0309,-6.0058,-5.9748,-5.9424,-5.9219,-5.9287,-5.9564,-5.9425,-5.9447,-5.9174,-5.8883,-5.8138,-5.738,-5.7362,-5.7126,-5.7385,-5.7547,-5.7709,-5.7968,-5.8356,-5.8842,-5.9263,-5.9522,-5.9652,-5.9419,-5.894,-5.7963,-5.7086,-5.5698,-5.4052,-5.0894,-5.1727,-5.1782,-5.2368,-5.3259,-5.4203,-5.4934,-5.5357,-5.5357,-5.5574,-5.5845,-5.7499,-5.7829,-5.7609,-5.9113,-5.9957,-6.0305,-6.051,-6.0978,-6.1408,-6.172,-6.1704,-6.1711,-6.1715,-6.1718,-6.1719,-6.1719,-6.1719,-6.1719,-6.1719,-6.1719,-6.168,-6.1562,-6.1472,-6.1314,-6.1041,-6.0847,-6.0499,-5.9841,-5.9687,-5.9377,-5.9106,-5.9261,-5.9493,-5.9068,-5.9532,-6.046,-5.93,-5.899,-5.9803,-5.8952,-5.8836,-5.9532,-6.0055,-6.071,-6.1761,-6.1773,-6.1804,-6.2079,-6.2538,-6.2766,-6.2463,-6.2122,-6.1667,-6.1401,-6.1212,-6.1212,-6.125,-6.1515,-6.1603,-6.1163,-6.079,-6.0717,-6.0613,-6.0461,-6.0587,-6.0674,-6.0793,-6.0855,-6.0805,-6.1022,-6.0998,-6.0974,-6.0732,-6.0415,-6.0156,-5.9873,-5.9589,-5.9459,-5.9323,-5.9323,-5.9633,-5.9938,-6.0023,-5.9599,-5.9298,-5.854,-5.7901,-5.7943,-5.8,-5.813,-5.8259,-5.8324,-5.8583,-5.8972,-5.9263,-5.9587,-5.9716,-5.9716,-5.903,-5.8455,-5.7465,-5.6383,-5.4999,-5.3802,-5.1698,-5.2264,-5.267,-5.3349,-5.428,-5.528,-5.5703,-5.5703,-5.5703,-5.5703,-5.5899,-5.7293,-5.7947,-5.8221,-5.9464,-6.0449,-6.0939,-6.1017,-6.1291,-6.1525,-6.169,-6.1701,-6.1711,-6.1719,-6.1719,-6.1719,-6.1719,-6.1719,-6.1719,-6.1719,-6.1719,-6.1719,-6.164,-6.1523,-6.1408,-6.1264,-6.1195,-6.0963,-6.0692,-6.0654,-6.0344,-6.0035,-6.0422,-6.0731,-6.0112,-6.0809,-6.1814,-6.0074,-5.9919,-6.0499,-5.9339,-5.9764,-6.079,-6.1872,-6.1902,-6.2617,-6.2094,-6.2032,-6.2311,-6.2656,-6.288,-6.2842,-6.2576,-6.1894,-6.1553,-6.1288,-6.106,-6.0947,-6.1292,-6.1413,-6.0748,-6.0191,-6.045,-6.0617,-6.0886,-6.1142,-6.1262,-6.1387,-6.1322,-6.114,-6.1034,-6.0974,-6.0854,-6.0609,-6.0227,-5.9931,-5.9683,-5.9631,-5.9633,-5.9737,-5.9771,-5.9944,-6.0347,-6.0666,-6.0198,-5.9764,-5.9268,-5.888,-5.8852,-5.8842,-5.8907,-5.8939,-5.9004,-5.9263,-5.9587,-5.9716,-5.9716,-5.9716,-5.9628,-5.8972,-5.8182,-5.7084,-5.5888,-5.4522,-5.3442,-5.2886,-5.3031,-5.3947,-5.4605,-5.5511,-5.5626,-5.5703,-5.5703,-5.5703,-5.5703,-5.5899,-5.6734,-5.7776,-5.8558,-5.9716,-6.0715,-6.1236,-6.1486,-6.1486,-6.172,-6.1704,-6.1709,-6.1709,-6.1719,-6.1719,-6.1719,-6.1719,-6.1719,-6.1719,-6.1719,-6.1719,-6.1719,-6.164,-6.1562,-6.1412,-6.1336,-6.1253,-6.1079,-6.1079,-6.1118,-6.1543,-6.1621,-6.1776,-6.2588,-6.1969,-6.1427,-6.1737,-6.1079,-6.0035,-6.0074,-6.0344,-6.1002,-6.2472,-6.3724,-6.3469,-6.2746,-6.2269,-6.2173,-6.2345,-6.2542,-6.2959,-6.2997,-6.2917,-6.2387,-6.2084,-6.1401,-6.1022,-6.0686,-6.0989,-6.0705,-6.0076,-6.0003,-6.0188,-6.0407,-6.0651,-6.0908,-6.119,-6.1296,-6.1257,-6.1034,-6.0974,-6.0854,-6.0671,-6.0423,-6.0065,-5.9669,-5.9624,-5.9668,-5.9873,-6.0148,-6.046,-6.0529,-6.0754,-6.1019,-6.0808,-6.047,-6.0121,-5.9838,-5.961,-5.9457,-5.9328,-5.9457,-5.9684,-5.9716,-5.9716,-5.9716,-5.9716,-5.9846,-5.9798,-5.9202,-5.8248,-5.6884,-5.5541,-5.4303,-5.3213,-5.2766,-5.3031,-5.3332,-5.399,-5.4836,-5.5472,-5.5703,-5.5703,-5.5703,-5.5703,-5.5878,-5.6655,-5.7675,-5.8739,-5.9568,-6.0536,-6.1465,-6.1715,-6.172,-6.169,-6.1709,-6.1715,-6.1719,-6.1719,-6.1719,-6.1719,-6.1719,-6.1719,-6.1719,-6.1719,-6.1719,-6.1719,-6.168,-6.1601,-6.1412,-6.1384,-6.1291,-6.1273,-6.1157,-6.1234,-6.1505,-6.1389,-6.1427,-6.1737,-6.1234,-6.1582,-6.1737,-6.1427,-6.1311,-6.1621,-6.1776,-6.2743,-6.429,-6.5255,-6.4964,-6.3885,-6.2853,-6.2475,-6.2297,-6.2387,-6.2769,-6.3259,-6.3334,-6.3259,-6.2728,-6.1705,-6.1022,-6.0686,-6.0358,-6.0033,-5.974,-5.9816,-5.996,-6.0189,-6.0358,-6.0674,-6.101,-6.1055,-6.1117,-6.0974,-6.0854,-6.0671,-6.0485,-6.0199,-5.9803,-5.9757,-5.9942,-6.0081,-6.0419,-6.0758,-6.1345,-6.1483,-6.1217,-6.1341,-6.114,-6.0788,-6.0292,-6.0076,-5.9781,-5.9781,-5.9814,-5.9976,-6.0137,-5.9846,-5.9716,-5.9911,-6.0137,-6.0332,-6.0161,-5.9433,-5.8433,-5.7098,-5.5708,-5.4458,-5.3382,-5.245,-5.2494,-5.3007,-5.372,-5.4566,-5.5357,-5.5703,-5.5703,-5.5703,-5.5703,-5.5742,-5.6284,-5.7217,-5.8435,-5.923,-6.0367,-6.14,-6.1671,-6.1715,-6.169,-6.1704,-6.1715,-6.1719,-6.1719,-6.1719,-6.1719,-6.1719,-6.1719,-6.1719,-6.1719,-6.1719,-6.1719,-6.168,-6.1623,-6.1451,-6.1399,-6.1505,-6.166,-6.1311,-6.1273,-6.1389,-6.135,-6.1698,-6.1814,-6.1737,-6.1814,-6.1814,-6.1621,-6.1466,-6.2046,-6.2394,-6.3091,-6.4213,-6.5025,-6.4855,-6.3847,-6.287,-6.2338,-6.2129,-6.2273,-6.2652,-6.3069,-6.3562,-6.341,-6.2122,-6.1174,-6.1098,-6.0837,-6.0739,-6.045,-5.9627,-5.9478,-5.9872,-6.0166,-6.0216,-6.0375,-6.0839,-6.1113,-6.1093,-6.1034,-6.0854,-6.0547,-6.0297,-5.9978,-5.9718,-5.9972,-6.0151,-6.0839,-6.1139,-6.1149,-6.1844,-6.1995,-6.1501,-6.1165,-6.092,-6.06,-6.0196,-6.0064,-6.0137,-6.0461,-6.0656,-6.0712,-6.0647,-6.0494,-6.0429,-6.0494,-6.072,-6.0793,-6.0344,-5.9664,-5.8603,-5.7414,-5.5984,-5.4748,-5.3884,-5.2158,-5.188,-5.2815,-5.3605,-5.4451,-5.5357,-5.5703,-5.5703,-5.5703,-5.5703,-5.5703,-5.5742,-5.6849,-5.802,-5.8722,-6.0071,-6.1071,-6.1582,-6.1676,-6.1725,-6.1725,-6.1709,-6.1719,-6.1719,-6.1719,-6.1719,-6.1719,-6.1719,-6.1719,-6.1719,-6.1719,-6.1719,-6.168,-6.1623,-6.1451,-6.1453,-6.1543,-6.1621,-6.1543,-6.1543,-6.1582,-6.1543,-6.2008,-6.2201,-6.2124,-6.1582,-6.1737,-6.166,-6.1157,-6.1737,-6.2704,-6.3748,-6.4445,-6.5141,-6.4463,-6.3809,-6.3104,-6.2357,-6.1837,-6.2311,-6.2538,-6.2842,-6.3372,-6.3069,-6.1856,-6.1363,-6.1288,-6.0959,-6.0896,-6.0527,-5.974,-5.9438,-5.985,-6.012,-6.0139,-6.0304,-6.0782,-6.1093,-6.1093,-6.1034,-6.0732,-6.0423,-6.0107,-5.9783,-5.9902,-6.015,-6.0669,-6.1353,-6.1782,-6.1571,-6.1791,-6.1559,-6.0984,-6.0804,-6.0849,-6.0423,-6.0151,-6.0615,-6.0785,-6.1206,-6.1498,-6.1342,-6.131,-6.1433,-6.14,-6.1239,-6.1213,-6.1284,-6.0642,-5.9818,-5.8969,-5.7798,-5.6238,-5.5023,-5.4403,-5.1992,-5.1949,-5.2836,-5.3336,-5.3678,-5.5028,-5.5703,-5.5703,-5.5703,-5.5703,-5.5703,-5.584,-5.6734,-5.8505,-5.8644,-5.967,-6.1042,-6.153,-6.169,-6.1704,-6.1725,-6.1707,-6.1719,-6.1719,-6.1719,-6.1719,-6.1719,-6.1719,-6.1719,-6.1719,-6.1719,-6.1719,-6.1719,-6.1601,-6.1451,-6.1429,-6.1427,-6.1543,-6.1466,-6.135,-6.1427,-6.135,-6.1234,-6.135,-6.1311,-6.1195,-6.1234,-6.1195,-6.1118,-6.1621,-6.2743,-6.4174,-6.4986,-6.5391,-6.491,-6.4129,-6.3449,-6.2824,-6.2547,-6.2838,-6.3069,-6.3259,-6.3713,-6.3713,-6.2766,-6.2125,-6.1716,-6.0785,-6.0603,-6.0417,-5.985,-5.9875,-6.0122,-6.0152,-6.0142,-6.0576,-6.0986,-6.1034,-6.1069,-6.0828,-6.0521,-6.0177,-5.9923,-5.9902,-6.0185,-6.0635,-6.1429,-6.1968,-6.1902,-6.1829,-6.1761,-6.1168,-6.0633,-6.0942,-6.1238,-6.0446,-6.0226,-6.0785,-6.1465,-6.1886,-6.2054,-6.1749,-6.1842,-6.2183,-6.2016,-6.1757,-6.1795,-6.1902,-6.0771,-5.9911,-5.9301,-5.8327,-5.6528,-5.5367,-5.474]}]]